[[{"header":{"parameterUnit":"m.s-1","parameterCategory":1,"la1":30.6,"la2":28.766,"lo1":-90.7593,"lo2":-88.6598,"dy":0.0162,"dx":0.0183,"nx":116,"ny":114,"refTime":"2023-10-04T06:00:00:Z","depth":0,"parameterNumber":2,"parameterNumberName":"U-component_of_WINDS"},"data":[0.0,0.0,0.0,0.0,0.0,0.0,0.0,0.0,0.0,0.0,0.0,0.0,0.0,0.0,0.0,0.0,0.0,0.0,0.0,0.0,0.0,0.0,0.0,0.0,0.0,0.0,0.0,0.0,0.0,0.0,0.0,0.0,0.0,0.0,0.0,0.0,0.0,0.0,0.0,0.0,0.0,0.0,0.0,0.0,0.0,0.0,0.0,0.0,0.0,0.0,0.0,0.0,0.0,0.0,0.0,0.0,0.0,0.0,0.0,0.0,0.0,0.0,0.0,0.0,0.0,0.0,0.0,0.0,0.0,0.0,0.0,0.0,0.0,0.0,0.0,0.0,0.0,0.0,0.0,0.0,0.0,0.0,0.0,0.0,0.0,0.0,0.0,0.0,0.0,0.0,0.0,0.0,0.0,0.0,0.0,0.0,0.0,0.0,0.0,0.0,0.0,0.0,0.0,0.0,0.0,0.0,0.0,0.0,0.0,0.0,0.0,0.0,0.0,0.0,0.0,0.0,0.0,0.0,0.0,0.0,0.0,0.0,0.0,0.0,0.0,0.0,0.0,0.0,0.0,0.0,0.0,0.0,0.0,0.0,0.0,0.0,0.0,0.0,0.0,0.0,0.0,0.0,0.0,0.0,0.0,0.0,0.0,0.0,0.0,0.0,0.0,0.0,0.0,0.0,0.0,0.0,0.0,0.0,0.0,0.0,0.0,0.0,0.0,0.0,0.0,0.0,0.0,0.0,0.0,0.0,0.0,0.0,0.0,0.0,0.0,0.0,0.0,0.0,0.0,0.0,0.0,0.0,0.0,0.0,0.0,0.0,0.0,0.0,0.0,0.0,0.0,0.0,0.0,0.0,0.0,0.0,0.0,0.0,0.0,0.0,0.0,0.0,0.0,0.0,0.0,0.0,0.0,0.0,0.0,0.0,0.0,0.0,0.0,0.0,0.0,0.0,0.0,0.0,0.0,0.0,0.0,0.0,0.0,0.0,0.0,0.0,0.0,0.0,0.0,0.0,0.0,0.0,0.0,0.0,0.0,0.0,0.0,0.0,0.0,0.0,0.0,0.0,0.0,0.0,0.0,0.0,0.0,0.0,0.0,0.0,0.0,0.0,0.0,0.0,0.0,0.0,0.0,0.0,0.0,0.0,0.0,0.0,0.0,0.0,0.0,0.0,0.0,0.0,0.0,0.0,0.0,0.0,0.0,0.0,0.0,0.0,0.0,0.0,0.0,0.0,0.0,0.0,0.0,0.0,0.0,0.0,0.0,0.0,0.0,0.0,0.0,0.0,0.0,0.0,0.0,0.0,0.0,0.0,0.0,0.0,0.0,0.0,0.0,0.0,0.0,0.0,0.0,0.0,0.0,0.0,0.0,0.0,0.0,0.0,0.0,0.0,0.0,0.0,0.0,0.0,0.0,0.0,0.0,0.0,0.0,0.0,0.0,0.0,0.0,0.0,0.0,0.0,0.0,0.0,0.0,0.0,0.0,0.0,0.0,0.0,0.0,0.0,0.0,0.0,0.0,0.0,0.0,0.0,0.0,0.0,0.0,0.0,0.0,0.0,0.0,0.0,0.0,0.0,0.0,0.0,0.0,0.0,0.0,0.0,0.0,0.0,0.0,0.0,0.0,0.0,0.0,0.0,0.0,0.0,0.0,0.0,0.0,0.0,0.0,0.0,0.0,0.0,0.0,0.0,0.0,0.0,0.0,0.0,0.0,0.0,0.0,0.0,0.0,0.0,0.0,0.0,0.0,0.0,0.0,0.0,0.0,0.0,0.0,0.0,0.0,0.0,0.0,0.0,0.0,0.0,0.0,0.0,0.0,0.0,0.0,0.0,0.0,0.0,0.0,0.0,0.0,0.0,0.0,0.0,0.0,0.0,0.0,0.0,0.0,0.0,0.0,0.0,0.0,0.0,0.0,0.0,0.0,0.0,0.0,0.0,0.0,0.0,0.0,0.0,0.0,0.0,0.0,0.0,0.0,0.0,0.0,0.0,0.0,0.0,0.0,0.0,0.0,0.0,0.0,0.0,0.0,0.0,0.0,0.0,0.0,0.0,0.0,0.0,0.0,0.0,0.0,0.0,0.0,0.0,0.0,0.0,0.0,0.0,0.0,0.0,0.0,0.0,0.0,0.0,0.0,0.0,0.0,0.0,0.0,0.0,0.0,0.0,0.0,0.0,0.0,0.0,0.0,0.0,0.0,0.0,0.0,0.0,0.0,0.0,0.0,0.0,0.0,0.0,0.0,0.0,0.0,0.0,0.0,0.0,0.0,0.0,0.0,0.0,0.0,0.0,0.0,0.0,0.0,0.0,0.0,0.0,0.0,0.0,0.0,0.0,0.0,0.0,0.0,0.0,0.0,0.0,0.0,0.0,0.0,0.0,0.0,0.0,0.0,0.0,0.0,0.0,0.0,0.0,0.0,0.0,0.0,0.0,0.0,0.0,0.0,0.0,0.0,0.0,0.0,0.0,0.0,0.0,0.0,0.0,0.0,0.0,0.0,0.0,0.0,0.0,0.0,0.0,0.0,0.0,0.0,0.0,0.0,0.0,0.0,0.0,0.0,0.0,0.0,0.0,0.0,0.0,0.0,0.0,0.0,0.0,0.0,0.0,0.0,0.0,0.0,0.0,0.0,0.0,0.0,0.0,0.0,0.0,0.0,0.0,0.0,0.0,0.0,0.0,0.0,0.0,0.0,0.0,0.0,0.0,0.0,0.0,0.0,0.0,0.0,0.0,0.0,0.0,0.0,0.0,0.0,0.0,0.0,0.0,0.0,0.0,0.0,0.0,0.0,0.0,0.0,0.0,0.0,0.0,0.0,0.0,0.0,0.0,0.0,0.0,0.0,0.0,0.0,0.0,0.0,0.0,0.0,0.0,0.0,0.0,0.0,0.0,0.0,0.0,0.0,0.0,0.0,0.0,0.0,0.0,0.0,0.0,0.0,0.0,0.0,0.0,0.0,0.0,0.0,0.0,0.0,0.0,0.0,0.0,0.0,0.0,0.0,0.0,0.0,0.0,0.0,0.0,0.0,0.0,0.0,0.0,0.0,0.0,0.0,0.0,0.0,0.0,0.0,0.0,0.0,0.0,0.0,0.0,0.0,0.0,0.0,0.0,0.0,0.0,0.0,0.0,0.0,0.0,0.0,0.0,0.0,0.0,0.0,0.0,0.0,0.0,0.0,0.0,0.0,0.0,0.0,0.0,0.0,0.0,0.0,0.0,0.0,0.0,0.0,0.0,0.0,0.0,0.0,0.0,0.0,0.0,0.0,0.0,0.0,0.0,0.0,0.0,0.0,0.0,0.0,0.0,0.0,0.0,0.0,0.0,0.0,0.0,0.0,0.0,0.0,0.0,0.0,0.0,0.0,0.0,0.0,0.0,0.0,0.0,0.0,0.0,0.0,0.0,0.0,0.0,0.0,0.0,0.0,0.0,0.0,0.0,0.0,0.0,0.0,0.0,0.0,0.0,0.0,0.0,0.0,0.0,0.0,0.0,0.0,0.0,0.0,0.0,0.0,0.0,0.0,0.0,0.0,0.0,0.0,0.0,0.0,0.0,0.0,0.0,0.0,0.0,0.0,0.0,0.0,0.0,0.0,0.0,0.0,0.0,0.0,0.0,0.0,0.0,0.0,0.0,0.0,0.0,0.0,0.0,0.0,0.0,0.0,0.0,0.0,0.0,0.0,0.0,0.0,0.0,0.0,0.0,0.0,0.0,0.0,0.0,0.0,0.0,0.0,0.0,0.0,0.0,0.0,0.0,0.0,0.0,0.0,0.0,0.0,0.0,0.0,0.0,0.0,0.0,0.0,0.0,0.0,0.0,0.0,0.0,0.0,0.0,0.0,0.0,0.0,0.0,0.0,0.0,0.0,0.0,0.0,0.0,0.0,0.0,0.0,0.0,0.0,0.0,0.0,0.0,0.0,0.0,0.0,0.0,0.0,0.0,0.0,0.0,0.0,0.0,0.0,0.0,0.0,0.0,0.0,0.0,0.0,0.0,0.0,0.0,0.0,0.0,0.0,0.0,0.0,0.0,0.0,0.0,0.0,0.0,0.0,0.0,0.0,0.0,0.0,0.0,0.0,0.0,0.0,0.0,0.0,0.0,0.0,0.0,0.0,0.0,0.0,0.0,0.0,0.0,0.0,0.0,0.0,0.0,0.0,0.0,0.0,0.0,0.0,0.0,0.0,0.0,0.0,0.0,0.0,0.0,0.0,0.0,0.0,0.0,0.0,0.0,0.0,0.0,0.0,0.0,0.0,0.0,0.0,0.0,0.0,0.0,0.0,0.0,0.0,0.0,0.0,0.0,0.0,0.0,0.0,0.0,0.0,0.0,0.0,0.0,0.0,0.0,0.0,0.0,0.0,0.0,0.0,0.0,0.0,0.0,0.0,0.0,0.0,0.0,0.0,0.0,0.0,0.0,0.0,0.0,0.0,0.0,0.0,0.0,0.0,0.0,0.0,0.0,0.0,0.0,0.0,0.0,0.0,0.0,0.0,0.0,0.0,0.0,0.0,0.0,0.0,0.0,0.0,0.0,0.0,0.0,0.0,0.0,0.0,0.0,0.0,0.0,0.0,0.0,0.0,0.0,0.0,0.0,0.0,0.0,0.0,0.0,0.0,0.0,0.0,0.0,0.0,0.0,0.0,0.0,0.0,0.0,0.0,0.0,0.0,0.0,0.0,0.0,0.0,0.0,0.0,0.0,0.0,0.0,0.0,0.0,0.0,0.0,0.0,0.0,0.0,0.0,0.0,0.0,0.0,0.0,0.0,0.0,0.0,0.0,0.0,0.0,0.0,0.0,0.0,0.0,0.0,0.0,0.0,0.0,0.0,0.0,0.0,0.0,0.0,0.0,0.0,0.0,0.0,0.0,0.0,0.0,0.0,0.0,0.0,0.0,0.0,0.0,0.0,0.0,0.0,0.0,0.0,0.0,0.0,0.0,0.0,0.0,0.0,0.0,0.0,0.0,0.0,0.0,0.0,0.0,0.0,0.0,0.0,0.0,0.0,0.0,0.0,0.0,0.0,0.0,0.0,0.0,0.0,0.0,0.0,0.0,0.0,0.0,0.0,0.0,0.0,0.0,0.0,0.0,0.0,0.0,0.0,0.0,0.0,0.0,0.0,0.0,0.0,0.0,0.0,0.0,0.0,0.0,0.0,0.0,0.0,0.0,0.0,0.0,0.0,0.0,0.0,0.0,0.0,0.0,0.0,0.0,0.0,0.0,0.0,0.0,0.0,0.0,0.0,0.0,0.0,0.0,0.0,0.0,0.0,0.0,0.0,0.0,0.0,0.0,0.0,0.0,0.0,0.0,0.0,0.0,0.0,0.0,0.0,0.0,0.0,0.0,0.0,0.0,0.0,0.0,0.0,0.0,0.0,0.0,0.0,0.0,0.0,0.0,0.0,0.0,0.0,0.0,0.0,0.0,0.0,0.0,0.0,0.0,0.0,0.0,0.0,0.0,0.0,0.0,0.0,0.0,0.0,0.0,0.0,0.0,0.0,0.0,0.0,0.0,0.0,0.0,0.0,0.0,0.0,0.0,0.0,0.0,0.0,0.0,0.0,0.0,0.0,0.0,0.0,0.0,0.0,0.0,0.0,0.0,0.0,0.0,0.0,0.0,0.0,0.0,0.0,0.0,0.0,0.0,0.0,0.0,0.0,0.0,0.0,0.0,0.0,0.0,0.0,0.0,0.0,0.0,0.0,0.0,0.0,0.0,0.0,0.0,0.0,0.0,0.0,0.0,0.0,0.0,0.0,0.0,0.0,0.0,0.0,0.0,0.0,0.0,0.0,0.0,0.0,0.0,0.0,0.0,0.0,0.0,0.0,0.0,0.0,0.0,0.0,0.0,0.0,0.0,0.0,0.0,0.0,0.0,0.0,0.0,0.0,0.0,0.0,0.0,0.0,0.0,0.0,0.0,0.0,0.0,0.0,0.0,0.0,0.0,0.0,0.0,0.0,0.0,0.0,0.0,0.0,0.0,0.0,0.0,0.0,0.0,0.0,0.0,0.0,0.0,0.0,0.0,0.0,0.0,0.0,0.0,0.0,0.0,0.0,0.0,0.0,0.0,0.0,0.0,0.0,0.0,4.2845,4.3157,0.0,0.0,0.0,0.0,0.0,0.0,0.0,0.0,0.0,0.0,0.0,0.0,0.0,0.0,0.0,0.0,0.0,0.0,0.0,0.0,0.0,0.0,0.0,0.0,0.0,0.0,0.0,0.0,0.0,0.0,0.0,0.0,0.0,0.0,0.0,0.0,0.0,0.0,5.463,5.4816,5.52,5.5235,5.5254,5.5215,0.0,0.0,0.0,0.0,0.0,0.0,0.0,0.0,0.0,0.0,0.0,0.0,0.0,0.0,0.0,0.0,0.0,0.0,0.0,0.0,0.0,0.0,0.0,0.0,0.0,0.0,0.0,0.0,0.0,0.0,0.0,0.0,0.0,0.0,0.0,0.0,0.0,0.0,0.0,0.0,0.0,0.0,0.0,0.0,0.0,0.0,0.0,0.0,0.0,0.0,0.0,0.0,0.0,0.0,0.0,0.0,0.0,0.0,0.0,0.0,0.0,0.0,0.0,0.0,0.0,0.0,0.0,0.0,0.0,0.0,4.3957,4.3079,0.0,0.0,0.0,0.0,0.0,0.0,0.0,0.0,0.0,0.0,0.0,0.0,0.0,0.0,0.0,0.0,0.0,0.0,0.0,0.0,0.0,0.0,0.0,5.6012,5.6051,5.6167,5.6186,5.6278,0.0,0.0,0.0,0.0,0.0,0.0,0.0,5.5511,5.5511,5.5511,5.5488,5.5857,5.659,5.673,5.68,5.6719,5.5137,0.0,0.0,0.0,0.0,0.0,0.0,0.0,0.0,0.0,0.0,0.0,0.0,0.0,0.0,0.0,0.0,0.0,0.0,0.0,0.0,0.0,0.0,0.0,0.0,0.0,0.0,0.0,0.0,0.0,0.0,0.0,0.0,0.0,0.0,0.0,0.0,0.0,0.0,0.0,0.0,0.0,0.0,0.0,0.0,0.0,0.0,0.0,0.0,0.0,0.0,0.0,0.0,0.0,0.0,0.0,0.0,0.0,0.0,0.0,0.0,0.0,0.0,0.0,4.9556,4.9907,5.0575,5.1293,5.1078,4.9868,4.5594,4.3665,4.3489,4.3193,0.0,0.0,0.0,0.0,0.0,0.0,0.0,0.0,0.0,0.0,0.0,0.0,0.0,0.0,0.0,0.0,0.0,0.0,0.0,0.0,0.0,5.6012,5.6012,5.6031,5.6128,5.6201,5.6238,0.0,0.0,0.0,0.0,0.0,5.6427,5.6354,5.6335,5.6335,5.6236,5.6321,5.6609,5.7269,5.7556,5.7508,5.6571,5.6296,5.6456,0.0,0.0,0.0,0.0,0.0,0.0,0.0,0.0,0.0,0.0,0.0,0.0,0.0,0.0,0.0,0.0,0.0,0.0,0.0,0.0,0.0,0.0,0.0,0.0,0.0,0.0,0.0,0.0,0.0,0.0,0.0,0.0,0.0,0.0,0.0,0.0,0.0,0.0,0.0,0.0,0.0,4.5018,4.6009,0.0,0.0,0.0,0.0,0.0,0.0,0.0,0.0,0.0,0.0,0.0,0.0,0.0,4.9254,5.0702,5.0739,5.1226,5.2198,5.2198,5.2253,5.2351,5.2487,5.1648,5.0063,4.938,0.0,4.7842,4.639,0.0,0.0,0.0,0.0,0.0,0.0,0.0,0.0,0.0,0.0,0.0,0.0,0.0,0.0,0.0,0.0,0.0,0.0,0.0,0.0,0.0,5.6437,5.6728,5.6728,5.723,5.7346,5.69,5.6958,0.0,0.0,0.0,5.6503,5.6426,5.6478,5.6689,5.7134,5.6567,5.6589,5.7165,5.699,5.6919,5.6913,5.6501,5.6611,5.7052,5.6185,0.0,0.0,0.0,0.0,0.0,0.0,0.0,0.0,0.0,0.0,0.0,0.0,0.0,0.0,0.0,0.0,0.0,0.0,0.0,0.0,0.0,0.0,0.0,0.0,0.0,0.0,0.0,0.0,0.0,0.0,0.0,0.0,0.0,0.0,0.0,0.0,0.0,0.0,0.0,4.5047,4.6593,4.6993,4.6688,4.6616,0.0,0.0,0.0,0.0,0.0,0.0,0.0,0.0,0.0,5.0986,5.1049,5.1611,5.2846,5.2865,5.3297,5.4175,5.4657,5.514,5.5628,5.5628,5.5196,5.4373,5.3424,5.2522,5.1433,4.7799,4.6078,4.5648,0.0,0.0,0.0,0.0,4.5845,4.5908,0.0,0.0,0.0,0.0,0.0,0.0,0.0,0.0,0.0,0.0,0.0,0.0,5.6321,5.6921,5.7404,5.7617,5.8236,5.8236,5.7441,5.7383,5.7052,5.6297,5.6386,5.6398,5.6308,5.6379,5.6689,5.7232,5.6803,5.6931,5.7592,5.7164,5.695,5.69,5.6649,5.6803,5.719,5.6534,5.6272,5.6144,0.0,0.0,0.0,0.0,0.0,0.0,0.0,0.0,0.0,0.0,0.0,0.0,0.0,0.0,0.0,0.0,0.0,0.0,0.0,0.0,0.0,0.0,0.0,0.0,0.0,0.0,0.0,0.0,0.0,0.0,0.0,0.0,0.0,0.0,0.0,0.0,0.0,4.6267,4.7744,4.7315,4.765,4.774,0.0,0.0,0.0,0.0,0.0,0.0,4.9829,5.0699,5.1948,5.365,5.3705,5.4214,5.5319,5.5325,5.576,5.6601,5.7049,5.7594,5.8237,5.8003,5.7864,5.774,5.6259,5.5142,5.399,4.9712,4.7815,4.7537,4.6889,4.6865,4.7284,4.7922,4.8028,4.7938,0.0,0.0,0.0,0.0,0.0,0.0,0.0,0.0,0.0,0.0,0.0,5.6321,5.7153,5.7269,5.7637,5.8449,5.8565,5.8236,5.7366,5.7364,5.7035,5.6239,5.6278,5.6301,5.6308,5.6243,5.6225,5.6263,5.6981,5.7443,5.7615,5.8405,5.8695,5.8546,5.777,5.6996,5.6263,5.6225,5.6222,5.6142,5.5291,0.0,0.0,0.0,0.0,0.0,0.0,0.0,0.0,0.0,0.0,0.0,0.0,0.0,0.0,0.0,0.0,0.0,0.0,0.0,0.0,0.0,0.0,0.0,0.0,0.0,0.0,0.0,0.0,0.0,0.0,0.0,0.0,0.0,0.0,0.0,0.0,0.0,0.0,4.6554,4.7774,0.0,0.0,0.0,0.0,4.872,5.0278,5.159,5.2468,5.3346,5.4607,5.6341,5.6393,5.7218,5.8926,5.8945,5.9336,6.0137,5.9414,5.9082,5.9101,5.8281,5.7909,5.784,5.6926,5.604,5.5083,5.3162,5.1893,5.1141,5.1108,5.0596,4.9908,4.9951,4.9445,4.873,0.0,0.0,0.0,0.0,0.0,0.0,0.0,0.0,5.5343,5.5919,5.5995,5.6341,5.7211,5.7811,5.8255,5.8565,5.959,5.9377,5.7443,5.7849,5.754,5.6128,5.6186,5.6253,5.6243,5.6137,5.6611,5.7733,5.7464,5.8199,5.9841,5.9066,5.8989,5.9416,5.8004,5.7192,5.6882,5.6321,5.607,5.6012,5.5241,5.5113,0.0,0.0,0.0,0.0,0.0,0.0,0.0,0.0,0.0,0.0,0.0,0.0,0.0,0.0,0.0,0.0,0.0,0.0,0.0,0.0,0.0,0.0,0.0,0.0,0.0,0.0,0.0,0.0,0.0,0.0,0.0,0.0,0.0,0.0,0.0,0.0,0.0,5.0488,5.1945,0.0,5.1363,5.1538,5.1613,5.1351,5.2936,5.4283,5.5162,5.604,5.7282,5.8997,5.9059,5.9592,6.0733,6.0792,6.0644,6.0332,6.0664,6.0527,5.9941,5.9101,5.873,5.865,5.7223,5.643,5.6098,5.547,5.3689,5.1347,5.0772,5.0728,5.099,5.1518,5.1161,5.0491,0.0,0.0,0.0,0.0,0.0,0.0,0.0,0.0,5.4916,5.5511,5.6089,5.6882,5.8062,5.8681,5.9261,5.9822,6.0634,6.0151,5.7888,5.8275,5.7811,5.6089,5.6089,5.6128,5.6128,5.6341,5.7153,5.8604,5.8314,5.9184,6.1079,5.9687,5.9339,5.9841,5.8391,5.7733,5.7695,5.7114,5.6534,5.5973,5.5473,5.5473,5.5584,0.0,0.0,0.0,0.0,0.0,0.0,0.0,0.0,0.0,0.0,0.0,0.0,0.0,0.0,0.0,0.0,0.0,0.0,0.0,0.0,0.0,0.0,0.0,0.0,0.0,0.0,0.0,0.0,0.0,0.0,0.0,0.0,0.0,0.0,5.0961,5.3147,5.3142,5.4669,5.5279,5.4108,5.4264,5.4307,5.401,5.5575,5.6927,5.7772,5.8655,5.98,6.1201,6.0975,6.1241,6.2063,6.1818,6.1397,6.0781,6.1094,6.0957,6.0351,5.9258,5.8926,5.9101,5.7354,5.6754,5.6957,5.6391,5.4962,5.3103,5.2513,5.245,5.2752,5.328,5.2935,5.2226,0.0,0.0,0.0,0.0,0.0,0.0,0.0,5.4051,5.4703,5.4793,5.6263,5.7946,5.9667,5.988,6.0557,6.2182,6.1543,6.0344,5.8662,5.8565,5.7791,5.607,5.6012,5.6012,5.6051,5.6882,5.7753,5.8681,5.9513,6.0383,6.1195,6.0402,6.0035,6.0016,5.9106,5.872,5.872,5.8662,5.7675,5.6128,5.607,5.5589,5.4931,0.0,0.0,0.0,0.0,0.0,0.0,0.0,0.0,0.0,0.0,0.0,0.0,0.0,0.0,0.0,0.0,0.0,0.0,0.0,0.0,0.0,0.0,0.0,0.0,0.0,0.0,0.0,0.0,0.0,0.0,0.0,0.0,0.0,5.1562,5.303,5.4201,5.4201,5.5747,5.6138,5.4439,5.5029,5.5826,5.6621,5.8201,5.9478,6.0274,6.1152,6.2029,6.2903,6.2166,6.2148,6.3027,6.2172,6.1732,6.1738,6.082,6.041,6.0371,5.8672,5.8379,5.9101,5.7383,5.7085,5.768,5.604,5.5884,5.6626,5.6586,5.6011,5.524,5.5243,5.4677,5.3779,0.0,0.0,0.0,0.0,0.0,0.0,5.2297,5.3217,5.4061,5.4716,5.6263,5.7733,5.8836,5.9513,6.0093,6.0557,6.0364,5.9493,5.7772,5.7656,5.7172,5.6051,5.6012,5.6302,5.694,5.7192,5.8333,6.0402,6.0654,6.1853,6.3903,6.3052,6.2994,6.3516,6.2027,6.1369,6.1273,6.0054,5.9261,5.872,5.7462,5.6457,5.5702,0.0,0.0,0.0,0.0,0.0,0.0,0.0,0.0,0.0,0.0,0.0,0.0,0.0,0.0,0.0,0.0,0.0,0.0,0.0,0.0,0.0,0.0,0.0,0.0,0.0,0.0,0.0,0.0,0.0,0.0,0.0,5.1664,5.262,5.2386,5.5981,5.8636,5.8636,6.0178,6.103,6.0505,6.0095,6.0175,6.0939,6.1461,6.2114,6.2902,6.2597,6.2803,6.3673,6.2966,6.2935,6.3721,6.3015,6.2625,6.2549,6.11,6.0723,6.1269,5.8945,5.8379,5.914,5.8027,5.7673,5.7835,5.7317,5.725,5.7348,5.6138,5.5884,5.6207,5.616,5.5197,5.3783,0.0,0.0,0.0,0.0,0.0,0.0,5.1468,5.2346,5.3265,5.4136,5.6031,5.7637,5.8488,5.9048,5.9493,5.9861,5.9223,5.8391,5.7385,5.696,5.6689,5.6553,5.6553,5.7134,5.8372,5.872,5.9977,6.2182,6.2549,6.3671,6.547,6.4638,6.4503,6.4928,6.3555,6.2936,6.2878,6.1911,6.1273,6.0867,5.9841,5.8488,5.7037,5.6704,5.6469,5.6217,5.5145,5.4691,5.4425,5.3262,0.0,0.0,0.0,0.0,0.0,0.0,0.0,0.0,0.0,0.0,0.0,0.0,0.0,0.0,0.0,0.0,0.0,0.0,0.0,0.0,0.0,0.0,0.0,0.0,5.3576,5.5083,5.5825,5.8519,6.0792,6.1863,6.2898,6.3473,6.341,6.2967,6.2842,6.3226,6.3279,6.3472,6.3881,6.3462,6.3579,6.443,6.3741,6.3739,6.4536,6.3433,6.2883,6.2872,6.1541,6.0996,6.1113,5.9629,5.9043,5.918,5.8651,5.8432,5.8348,5.761,5.7504,5.766,0.0,0.0,0.0,0.0,5.5087,5.3791,0.0,0.0,0.0,0.0,0.0,0.0,5.0793,5.1592,5.2511,5.3382,5.5625,5.7501,5.8352,5.8526,5.8874,5.9551,5.8197,5.7269,5.7172,5.6534,5.6553,5.7424,5.754,5.841,6.0132,6.0983,6.224,6.398,6.4851,6.5702,6.6475,6.576,6.5431,6.5392,6.4619,6.4271,6.4271,6.4155,6.3671,6.2955,6.2781,6.1118,5.8642,5.7795,5.7834,5.8047,5.5731,5.5362,5.5736,5.4041,0.0,0.0,0.0,0.0,0.0,0.0,0.0,0.0,0.0,0.0,0.0,0.0,0.0,0.0,0.0,0.0,0.0,0.0,0.0,0.0,0.0,0.0,0.0,0.0,5.5981,5.8777,6.0694,6.0987,6.1802,6.4082,6.4335,6.4348,6.4384,6.4262,6.4193,6.4256,6.4274,6.4228,6.4086,6.4154,0.0,0.0,0.0,6.4554,6.5411,6.3709,6.2906,6.3,6.1952,6.1133,6.0527,6.0351,5.9922,5.9336,5.9331,5.9305,5.9129,5.7547,5.7187,5.7582,5.6879,5.6606,5.6484,5.5655,5.4794,5.3923,0.0,0.0,0.0,0.0,0.0,0.0,5.0793,5.1592,5.2511,5.3382,5.5103,5.6592,5.7462,5.8178,5.8372,5.7849,5.7501,5.6998,5.6302,5.6747,5.7443,5.8314,5.901,6.019,6.1892,6.2762,6.4019,6.5721,6.6592,6.7462,6.8294,6.8139,6.8081,6.8061,6.7887,6.781,6.7771,6.7056,6.6669,6.6398,6.5044,6.2549,5.9629,5.9379,5.853,5.739,5.6869,5.6368,5.5653,5.3969,5.3928,5.4315,5.2807,5.2407,0.0,0.0,0.0,0.0,0.0,0.0,0.0,0.0,0.0,0.0,0.0,0.0,0.0,0.0,0.0,0.0,0.0,0.0,0.0,5.6348,5.8558,6.0971,6.4079,6.451,6.4706,6.5195,6.5205,6.5418,6.6048,6.4859,6.4578,6.5829,6.5941,6.5895,6.5818,6.5838,6.5877,6.5993,6.5276,6.5316,6.6185,6.4558,6.3757,6.3755,6.1579,0.0,6.1328,6.0019,5.9707,6.0176,6.017,6.0166,6.0066,5.9035,5.7914,5.6821,5.6665,5.6577,5.6489,5.6313,5.5705,5.4819,0.0,0.0,0.0,0.0,0.0,0.0,5.0793,5.1228,5.1857,5.2743,5.4349,5.5567,5.6012,5.6437,5.6515,5.6089,5.6051,5.6031,5.6012,5.723,5.8526,5.9803,6.0692,6.2143,6.4271,6.4735,6.5779,6.7501,6.8332,6.897,6.9396,6.9396,6.9396,6.9377,6.899,6.8796,6.8777,6.8352,6.8158,6.8042,6.6766,6.4967,6.2917,6.1602,6.0558,5.963,5.8355,5.7583,5.6946,5.5264,5.4687,5.4496,5.3277,5.2947,5.2856,0.0,0.0,0.0,0.0,0.0,0.0,0.0,0.0,0.0,0.0,0.0,0.0,0.0,0.0,5.1327,0.0,0.0,5.6231,5.9256,6.0822,6.2553,6.5136,6.5433,6.5565,6.5995,6.6414,6.6624,6.6555,6.6182,6.6256,6.7037,6.6728,6.6655,6.6995,6.6591,6.6322,6.6245,6.5857,6.5857,6.6301,6.5102,6.4309,6.3884,6.2277,6.1088,6.0293,6.039,6.0215,5.9844,6.0698,6.1045,6.0945,5.964,5.8343,5.7153,5.6762,5.6582,5.6499,5.607,5.5606,5.5087,0.0,0.0,0.0,0.0,0.0,0.0,0.0,5.0846,5.1206,5.2086,5.342,5.4368,5.4523,5.4542,5.4542,5.4542,5.4542,5.4967,5.5935,5.7791,5.9667,6.1524,6.2588,6.4271,6.665,6.6862,6.7636,6.9028,6.9841,7.0247,7.0247,7.0247,7.0247,7.0208,6.957,6.9299,6.9299,6.9299,6.9299,6.9222,6.8332,6.7462,6.6437,6.4058,6.2743,6.1834,5.9455,5.847,5.7949,5.5937,5.4974,5.4476,5.3539,5.3254,5.3008,5.1802,5.1862,0.0,0.0,0.0,0.0,0.0,0.0,0.0,0.0,0.0,5.1156,5.2183,5.296,5.4151,5.639,5.7754,5.9276,6.1548,6.2751,6.3945,6.5502,6.5621,6.5826,6.6505,6.7206,6.7334,6.6582,6.7185,6.7606,6.7553,6.7107,6.701,6.7432,6.6935,6.6551,6.6303,6.6245,6.6225,6.6205,6.5218,6.4426,6.3768,6.2858,6.1298,5.9272,6.0937,6.0879,5.953,6.1047,6.159,6.1333,5.9933,5.8831,5.7972,5.7153,5.6821,5.6723,5.5864,5.5519,5.5334,0.0,0.0,0.0,0.0,0.0,0.0,0.0,0.0,5.1206,5.2086,5.2356,5.2782,5.3556,5.3652,5.3652,5.3652,5.3652,5.431,5.5896,5.8352,6.0847,6.3284,6.4928,6.663,6.8468,6.9203,6.9667,6.986,7.0731,7.1156,7.1156,7.1156,7.1156,7.1156,7.1059,7.1021,7.1021,7.1021,7.1021,7.0943,7.0073,6.9222,6.8313,6.6475,6.3884,6.1002,5.9242,5.8101,5.6942,5.371,5.3594,5.4486,5.2859,5.2356,5.236,5.2346,5.1877,5.1366,5.1398,5.133,5.1237,5.1137,5.1698,5.2453,0.0,0.0,5.4002,5.5604,5.6044,5.6451,5.7405,5.9546,6.1502,6.2517,6.4096,6.55,6.6358,6.6525,6.6541,6.6509,6.6597,6.6621,6.6508,6.6582,6.664,6.6644,6.7281,6.7344,6.6581,6.7202,6.717,6.6322,6.6283,6.6264,6.6205,6.4619,6.3787,6.369,6.224,6.0992,6.0024,6.116,6.1188,6.0319,6.1274,6.1252,6.0534,6.0334,5.9749,5.887,5.7992,5.766,5.7562,5.6743,5.6411,5.6231,0.0,0.0,0.0,0.0,0.0,0.0,0.0,0.0,0.0,5.0751,5.1583,5.2337,5.2705,5.2743,5.2531,5.2028,5.2453,5.3884,5.6592,5.9165,6.195,6.5025,6.6804,6.8274,6.9473,6.9821,7.0247,7.075,7.1117,7.1291,7.1291,7.1291,7.1291,7.1291,7.1291,7.1291,7.1291,7.1291,7.1291,7.1214,7.0344,6.9203,6.781,6.5586,6.2936,6.0248,5.9029,5.7404,0.0,5.3014,5.2356,5.2395,5.1679,5.1447,5.1486,5.1667,5.1838,5.1888,5.1506,5.1406,5.1622,0.0,5.3132,5.3744,5.506,5.6165,5.7249,5.8456,5.9112,6.0012,6.1837,6.2666,6.3494,0.0,6.5672,6.6252,6.6566,6.6146,6.5438,6.4406,6.4294,6.4877,6.6353,6.6955,6.7266,6.7266,6.7111,6.7091,6.7196,6.7044,6.6758,6.6375,6.6321,6.6051,6.5509,6.4812,6.3942,6.2936,6.2375,6.1403,6.0126,6.0649,6.0717,6.0447,6.1319,6.1202,6.0354,5.9846,5.9124,5.8265,5.7426,5.7094,5.7055,5.6723,5.6567,5.6446,0.0,0.0,0.0,0.0,0.0,0.0,0.0,0.0,0.0,0.0,5.0751,5.1583,5.1815,5.1834,5.1583,5.0964,5.1699,5.3343,5.607,5.8855,6.1834,6.5006,6.7268,6.8932,6.9976,7.0228,7.0672,7.1291,7.1291,7.1291,7.1291,7.1291,7.1291,7.1291,7.1291,7.1291,7.1291,7.1291,7.1156,7.0866,7.0015,6.8371,6.6205,6.3864,6.1099,5.841,5.7772,5.636,5.4503,5.2511,5.1583,5.1215,5.0983,5.0945,5.1003,5.1157,5.1658,5.2133,5.181,0.0,0.0,5.3818,5.4578,5.535,5.7065,5.8621,6.0001,6.1095,6.1426,6.2075,6.3955,6.3982,6.4145,6.5398,6.5961,6.6312,6.6552,6.5401,6.4084,6.2837,6.206,6.2449,6.4527,6.5732,6.6586,6.7052,6.6508,6.6528,6.7383,6.6807,6.6422,6.6406,6.6124,6.5663,6.5005,6.4774,6.3884,6.2394,6.253,6.1608,5.976,5.9927,6.0147,6.044,6.1076,6.0978,6.0315,5.9202,5.8363,5.7719,5.6918,5.6606,5.6606,5.6606,5.6553,5.6511,0.0,0.0,0.0,0.0,0.0,0.0,0.0,0.0,0.0,0.0,0.0,0.0,0.0,5.0945,5.0945,5.0906,5.1699,5.2589,5.3556,5.6786,5.9822,6.2394,6.574,6.8313,6.9957,7.0827,7.1272,7.1291,7.1291,7.1291,7.1291,7.1291,7.1291,7.1291,7.1291,7.1291,7.1291,7.1291,7.0808,6.9957,6.9164,6.6824,6.3613,6.1853,5.8584,5.4948,5.4929,5.4871,5.4407,5.1815,5.1486,5.2008,5.1177,5.1003,5.1119,5.1177,5.1314,5.1599,5.2355,5.2526,5.2889,5.4625,5.6279,5.7944,5.9698,6.0788,6.1882,6.3546,6.2609,6.1511,6.1525,6.2246,6.2854,6.2821,6.4251,6.5609,6.6383,6.4414,6.2833,6.2716,6.0468,5.9283,6.0196,6.1847,6.3537,6.5168,6.5246,6.5615,6.6489,6.6508,6.6474,6.6406,6.558,6.5099,6.4986,6.4174,6.3284,6.2394,6.2549,6.1311,5.8932,5.9129,5.966,6.0398,6.0421,6.0412,6.0276,5.8558,5.7816,5.7719,5.6918,5.6606,5.6606,5.6606,5.6558,5.6503,0.0,0.0,0.0,0.0,0.0,0.0,0.0,0.0,0.0,0.0,0.0,0.0,0.0,0.0,0.0,0.0,5.1177,5.2202,5.4233,5.6476,5.8642,6.0654,6.4522,6.665,6.6669,6.8622,6.9899,7.044,7.044,7.0731,7.1291,7.1291,7.1291,7.1272,7.0692,7.044,7.0363,6.9241,6.9241,6.9725,6.665,6.4715,6.3245,5.9242,5.6147,5.371,0.0,5.1757,5.2008,5.0577,5.0306,5.05,5.021,5.0132,5.0298,5.0945,5.1638,5.2375,5.3174,5.3797,5.4893,5.7721,5.8842,5.9872,6.2186,6.3359,6.3643,6.251,6.1834,6.0912,5.918,5.9128,5.9717,6.0812,6.2432,6.3865,6.4717,6.457,6.3126,5.9724,5.9516,5.8894,5.6913,5.9302,6.1691,6.342,6.408,6.476,6.5596,6.6198,6.6221,6.5623,6.5319,6.4588,6.3424,6.3068,6.2488,6.1654,6.1221,6.0565,5.9776,5.9921,5.9823,5.9562,6.0143,5.9749,5.8597,5.7465,5.6665,5.6059,5.5201,5.4869,5.4947,5.5465,5.5655,5.5728,0.0,0.0,0.0,0.0,0.0,0.0,0.0,0.0,0.0,0.0,0.0,0.0,0.0,0.0,0.0,0.0,0.0,5.1621,5.3304,5.5006,5.6573,5.8023,6.1543,6.3381,6.3168,6.5064,6.6301,6.6824,6.6824,6.7114,6.7655,6.7655,6.7655,6.7636,6.7075,6.6978,6.7191,6.5799,6.6011,6.6959,6.3342,6.1485,6.048,5.6244,5.3594,0.0,4.9939,4.9571,4.9939,4.9417,4.9451,4.9683,4.9683,4.995,5.0433,5.1356,5.2528,5.3736,5.4838,5.6219,5.7929,6.0409,6.1478,6.2293,6.3673,6.4391,6.4042,6.1478,6.0215,5.8972,5.7029,5.6408,5.6758,5.8467,5.9943,6.1497,6.3284,6.2934,6.1614,5.9244,5.8836,5.8001,5.6117,5.7923,6.004,6.208,6.3323,6.4352,6.5168,6.6023,6.6237,6.5693,6.5355,6.4504,6.3088,6.3003,6.2543,6.1724,6.0689,6.0192,6.0206,6.0331,5.9917,5.9124,5.969,5.9124,5.768,5.6255,5.5337,5.4771,5.4225,5.401,5.4147,5.5245,5.5664,5.5736,0.0,0.0,0.0,0.0,0.0,0.0,0.0,0.0,0.0,0.0,0.0,0.0,0.0,0.0,0.0,0.0,0.0,0.0,5.0848,5.2434,5.373,5.4561,5.7076,5.8836,5.9609,6.0518,6.0983,6.1041,6.1041,6.106,6.1099,6.1099,6.1099,6.1099,6.106,6.1505,6.222,6.1292,6.1447,6.2046,5.9358,5.7327,5.5664,5.3011,5.1022,4.9513,4.8643,4.8333,4.8353,4.843,4.904,4.978,4.9819,5.0497,5.1457,5.2425,5.3945,5.5663,5.7352,5.9651,6.1808,6.2682,6.4061,6.4974,6.4119,6.3867,6.3051,6.039,5.7845,5.5825,0.0,0.0,5.4096,5.5942,5.7029,5.8855,6.2293,6.004,5.8894,0.0,0.0,0.0,0.0,0.0,5.8855,6.1283,6.2993,6.4294,6.5149,6.6023,6.6489,6.6431,6.5604,6.4718,6.3845,6.3735,6.3255,6.2422,6.0919,6.0223,6.0275,6.0303,5.9881,5.9104,5.9046,5.8538,5.7543,5.5083,5.4068,5.4068,5.4029,5.401,5.4181,5.5826,5.6439,5.6439,0.0,0.0,0.0,0.0,0.0,0.0,0.0,0.0,0.0,0.0,0.0,0.0,0.0,0.0,0.0,0.0,0.0,0.0,4.9958,5.0983,5.166,5.1892,5.4967,5.6495,5.6109,5.8159,5.9551,6.0209,6.0209,6.0518,6.1099,6.1099,6.1099,6.1079,6.046,6.0325,6.0441,5.8968,5.9181,6.0149,5.5691,5.4409,5.4773,5.0918,4.9193,4.869,4.7818,4.7508,4.7701,0.0,0.0,0.0,0.0,5.1851,5.2382,5.3876,5.5993,5.8234,5.9951,6.2288,6.445,6.5304,6.5362,6.4819,6.3362,6.2022,6.0176,5.6952,5.4757,5.2931,0.0,0.0,0.0,5.4854,5.7107,0.0,6.3187,6.3983,0.0,6.2527,0.0,6.1361,5.9632,6.0642,0.0,6.2313,6.2779,6.3673,6.5129,6.6023,6.6198,6.5557,6.4726,6.3891,6.3017,6.2342,6.188,6.1597,6.0701,6.0592,6.1124,5.9954,5.9319,5.9065,5.8402,5.768,5.6801,5.5493,5.4943,5.4836,5.4231,5.3967,5.4053,5.5133,5.5528,5.5619,0.0,0.0,0.0,0.0,0.0,0.0,0.0,0.0,0.0,0.0,0.0,0.0,0.0,0.0,0.0,0.0,0.0,0.0,0.0,4.9919,5.0384,5.0384,5.255,5.3556,5.3111,5.4484,5.5644,5.6515,5.578,5.5838,5.6631,5.6261,5.6104,5.6104,5.6026,5.5988,5.5907,5.4572,5.4781,0.0,0.0,5.1436,5.2308,4.9143,4.7941,4.7824,4.6933,4.6887,0.0,0.0,0.0,5.1942,5.3546,5.4349,5.51,5.7158,0.0,6.1472,6.321,6.5537,6.7422,6.7189,6.647,6.5173,6.2682,6.0506,5.7923,5.4116,5.2251,5.0891,4.9571,4.9027,4.9765,0.0,0.0,0.0,6.1186,6.2857,6.3711,0.0,6.3925,0.0,6.1944,6.2701,6.342,6.377,6.3809,6.4216,6.5149,6.6023,6.6275,6.579,6.4955,6.3945,6.2701,6.1847,6.1386,6.1352,6.0988,6.1056,6.1451,6.0229,5.9456,5.9046,5.8187,5.7348,5.6528,5.5669,5.5255,5.5182,5.5123,5.4839,5.4626,5.5879,5.6106,5.5845,0.0,0.0,0.0,0.0,0.0,0.0,0.0,0.0,0.0,0.0,4.6457,0.0,0.0,0.0,0.0,0.0,0.0,0.0,0.0,0.0,4.9417,4.9513,5.0306,5.0751,5.0751,5.0848,5.1273,5.2028,5.0577,5.0229,5.0887,5.0197,4.9804,4.9727,5.0516,5.0782,5.0635,4.9974,5.0085,5.0525,4.9084,4.8904,4.9278,0.0,4.7042,4.6945,4.6169,4.6504,0.0,0.0,5.1146,5.3049,5.5767,5.7301,5.8603,6.1167,6.3148,6.4853,6.6478,6.8708,7.0129,6.8319,6.6977,6.5155,6.1686,5.8661,5.5514,5.1785,5.0231,4.9357,4.8716,4.7978,4.8327,5.095,0.0,5.4116,5.8525,5.9904,6.1672,6.4993,6.476,6.4333,6.4333,6.4333,6.4624,6.5324,6.5382,6.5382,6.5382,6.6101,6.6392,6.6178,6.544,6.4236,6.2546,6.1788,6.14,6.14,6.1463,6.1447,6.1315,6.0561,5.9749,5.889,5.8011,5.7231,5.6547,5.5786,5.5426,5.5449,5.6191,5.6101,5.5698,5.7108,5.7217,5.6644,0.0,0.0,0.0,0.0,0.0,0.0,0.0,0.0,0.0,0.0,4.5916,4.6032,0.0,0.0,0.0,0.0,0.0,0.0,0.0,0.0,0.0,4.8585,4.9455,4.9919,4.9919,5.0558,5.0983,5.1138,5.0828,5.077,5.0906,5.0816,5.0385,4.9708,4.991,4.9594,4.8968,4.9537,4.944,4.8909,4.8681,4.8227,4.7625,4.6607,0.0,0.0,4.6044,0.0,0.0,0.0,5.2064,5.4058,5.734,5.9458,6.1245,6.3789,6.579,6.7363,6.8389,7.0001,7.0833,6.8423,6.5586,6.2482,5.903,5.4621,0.0,0.0,4.8852,4.792,4.8502,4.8483,4.9202,5.1785,5.2912,5.5223,6.0234,6.1711,6.3245,0.0,6.6159,6.6062,6.6062,6.6062,0.0,6.6256,6.6275,6.6275,6.6275,6.6431,6.5868,6.4469,6.4294,6.3381,6.1652,6.1478,6.14,6.14,6.1463,6.1154,6.0471,5.9682,5.8851,5.7972,5.7153,5.6723,5.6586,5.645,5.6338,5.629,5.6446,5.6822,5.7221,5.6862,5.7057,5.7407,0.0,0.0,0.0,0.0,0.0,0.0,0.0,4.4852,4.4891,4.5684,4.58,4.58,4.58,4.58,4.58,0.0,0.0,0.0,0.0,0.0,0.0,0.0,4.8566,4.9243,4.9687,5.0074,5.0712,5.1583,0.0,5.05,5.0887,5.0506,5.0129,4.9755,4.9788,4.9595,4.9213,4.9155,4.8631,4.7878,4.7908,4.7395,4.6579,0.0,0.0,0.0,0.0,0.0,0.0,0.0,5.0989,5.3222,5.7981,6.0662,6.2682,6.5673,6.7149,6.8194,6.9974,7.1038,7.1038,6.8492,6.4947,6.1162,5.7703,0.0,0.0,0.0,4.7881,4.7434,4.7842,4.755,0.0,5.0076,5.1532,5.3727,5.7535,6.0351,0.0,6.4955,6.5965,6.6508,6.6508,6.6508,6.6508,6.6508,6.6508,6.6508,6.6508,6.6508,6.5732,6.4042,6.4003,6.3168,6.1419,6.14,6.1194,6.0783,6.0834,6.044,5.9659,5.8819,5.8207,5.7758,5.6957,5.6606,5.6606,5.6558,5.6523,5.6543,5.6998,5.7139,5.7068,5.7107,5.7107,5.7009,0.0,0.0,0.0,0.0,0.0,0.0,0.0,4.4601,4.4968,4.5955,4.6071,4.6071,4.6071,4.5896,4.58,0.0,0.0,0.0,0.0,0.0,0.0,0.0,0.0,0.0,4.9126,0.0,0.0,5.166,5.0519,0.0,0.0,0.0,0.0,0.0,4.9543,4.9349,4.9027,4.8468,4.7781,0.0,0.0,4.6773,0.0,0.0,0.0,0.0,0.0,0.0,0.0,0.0,4.9629,5.1804,5.6855,6.0157,6.2779,6.6023,6.7363,6.833,7.0742,7.1534,7.1009,6.8267,6.437,6.0293,5.6809,5.2562,0.0,4.7589,4.7143,4.7026,4.7026,4.6463,4.6502,0.0,4.9473,5.1319,5.4058,5.7826,6.1089,0.0,6.5091,0.0,6.6489,6.6508,6.6508,6.6508,6.6508,6.6508,6.6508,6.6508,6.5732,6.4042,6.4003,6.3168,6.1419,6.1206,6.0903,6.0477,6.0165,5.969,5.9043,5.8186,5.7699,5.748,5.6855,5.6582,5.6577,5.6528,5.6491,5.6576,5.7244,5.7209,5.6814,5.7262,5.7145,5.6717,0.0,0.0,0.0,0.0,0.0,0.0,0.0,4.4601,4.5181,4.6767,4.698,4.698,4.698,4.6264,4.58,0.0,0.0,0.0,0.0,0.0,0.0,0.0,0.0,0.0,0.0,0.0,0.0,4.9939,5.0519,0.0,0.0,0.0,0.0,0.0,0.0,4.7842,4.6404,4.7123,0.0,0.0,0.0,0.0,0.0,0.0,0.0,0.0,0.0,0.0,0.0,0.0,0.0,5.0367,5.2445,5.6447,6.0875,6.3556,0.0,0.0,6.9962,7.1012,7.0817,6.7456,6.3396,5.9335,5.5903,0.0,4.7492,4.7337,4.6676,4.6113,4.6113,4.6055,4.6307,4.7259,4.755,4.8813,5.2173,5.5009,5.7981,6.1245,0.0,0.0,6.6431,6.6508,6.6508,6.6508,6.6508,6.6508,6.6508,6.6508,6.5732,6.4042,6.4003,6.3168,6.1419,6.0604,6.0611,6.1354,5.9833,5.9084,5.8984,5.8167,5.7363,5.6626,5.6548,5.6503,5.6504,5.6504,5.6491,5.6515,5.6593,5.7026,5.7516,5.6853,5.7029,5.7496,0.0,0.0,0.0,0.0,0.0,0.0,4.3518,4.3827,4.4427,4.609,4.6322,4.6322,4.6322,4.6013,4.58,4.58,0.0,0.0,0.0,0.0,0.0,0.0,0.0,0.0,0.0,0.0,4.8643,4.9707,5.0016,0.0,0.0,0.0,0.0,0.0,0.0,4.8169,4.755,4.7376,0.0,0.0,0.0,0.0,0.0,0.0,0.0,0.0,0.0,0.0,0.0,0.0,0.0,0.0,4.8389,5.0712,0.0,0.0,6.2332,6.4547,6.7266,6.9034,6.9267,6.5848,6.1769,5.769,5.4213,0.0,4.6521,4.6521,4.623,4.5997,4.5997,4.5997,4.6288,4.7162,4.7298,4.8133,5.0561,5.2659,5.5417,5.938,6.1672,0.0,0.0,6.6508,6.6508,6.6508,6.6508,6.6275,6.5751,6.5732,6.5188,6.4042,6.3498,6.2624,6.1419,6.0545,6.0063,5.9983,5.8797,5.7979,5.7547,5.7219,5.687,5.6509,5.6509,5.6497,5.6504,5.6491,5.6503,5.6496,5.65,5.6706,5.6931,5.6619,5.6641,5.6729,0.0,0.0,0.0,0.0,0.0,4.1371,4.3034,4.3518,4.4291,4.5974,4.6167,4.6167,4.6167,4.5955,4.58,4.58,4.58,0.0,0.0,0.0,0.0,0.0,0.0,0.0,0.0,0.0,4.7695,4.8933,4.9455,5.0012,0.0,0.0,5.0209,4.9387,0.0,0.0,0.0,0.0,0.0,0.0,0.0,0.0,0.0,0.0,0.0,0.0,0.0,0.0,0.0,0.0,0.0,0.0,0.0,0.0,0.0,0.0,5.8325,6.0914,6.3842,6.6077,6.6839,6.3634,6.0001,5.6311,0.0,0.0,4.6307,4.6055,4.5997,4.5997,4.5997,4.5997,4.6113,4.6502,4.6754,4.7337,4.8561,5.0425,5.297,0.0,0.0,6.0856,6.4275,6.5518,6.612,6.612,6.6353,6.612,6.5246,6.4741,6.4197,6.3634,6.2779,6.1905,6.1031,5.9924,5.924,5.8983,5.7851,5.7184,5.6957,5.6699,5.6533,5.6497,5.6497,5.6504,5.6503,5.6488,5.6508,5.6508,5.6492,5.6503,5.6503,5.6455,5.6388,5.6211,0.0,0.0,0.0,0.0,0.0,0.0,4.3034,4.404,4.52,4.6864,4.7096,4.7096,4.7096,4.6322,4.58,4.58,4.58,0.0,0.0,0.0,0.0,0.0,0.0,0.0,0.0,0.0,4.7115,4.7134,4.8856,4.9702,4.9708,4.9788,4.935,4.8483,0.0,0.0,0.0,0.0,0.0,0.0,0.0,0.0,0.0,0.0,0.0,0.0,0.0,0.0,0.0,0.0,0.0,0.0,0.0,0.0,0.0,0.0,5.43,5.8014,5.9794,6.2121,6.342,6.0798,5.8214,5.5417,0.0,4.9182,4.7045,4.6171,4.5997,4.5997,4.5997,4.5997,4.5744,4.4948,4.5491,4.6016,4.6035,4.8269,5.0561,0.0,0.0,5.6408,5.9827,6.3226,6.5207,6.5207,6.6003,6.612,6.5246,6.3634,6.2721,6.2701,6.1866,6.1011,6.0118,5.8447,5.8091,5.8987,5.725,5.6891,5.7758,5.6885,5.6497,5.6504,5.6503,5.65,5.6503,5.6503,5.6503,5.6503,5.6503,5.6503,5.6483,5.6349,5.6289,5.6278,0.0,0.0,0.0,0.0,0.0,0.0,0.0,4.315,4.4117,4.5239,4.5877,4.6206,4.6206,4.5974,4.58,4.58,4.58,0.0,0.0,0.0,0.0,0.0,0.0,0.0,0.0,0.0,4.6496,4.7096,4.8305,4.9185,4.9769,4.9776,4.9368,4.853,4.7675,4.6812,0.0,0.0,0.0,0.0,0.0,0.0,0.0,0.0,0.0,0.0,0.0,0.0,0.0,0.0,0.0,0.0,0.0,0.0,0.0,4.7443,5.0363,0.0,5.5356,5.7283,5.8323,5.6299,5.4294,5.223,4.9994,4.7466,4.5511,4.5239,4.5181,4.5181,4.5181,4.5627,4.6113,4.6443,4.621,4.621,0.0,0.0,0.0,5.3766,5.8292,6.1788,6.3439,6.4061,6.4605,6.5168,6.4955,6.4158,6.2682,6.2099,6.1808,6.1808,6.039,5.9517,5.9268,5.8169,5.779,5.8178,5.7028,5.6659,5.6977,5.665,5.6497,5.6504,5.6503,5.65,5.6503,5.6503,5.6503,5.6503,5.6503,5.6503,5.6483,5.6349,5.6267,5.6142,0.0,0.0,0.0,0.0,0.0,0.0,0.0,4.2826,4.3673,4.4524,4.5357,4.5877,4.5877,4.5819,4.5819,4.5858,4.5819,0.0,0.0,0.0,0.0,0.0,0.0,0.0,4.58,4.58,4.6239,4.7143,4.8048,4.8941,4.9789,4.9491,4.907,4.8541,4.7356,4.6502,0.0,0.0,0.0,0.0,0.0,0.0,4.6146,0.0,0.0,0.0,0.0,0.0,0.0,0.0,0.0,0.0,0.0,0.0,0.0,0.0,4.7704,4.9687,0.0,5.3163,5.4147,5.2726,5.1297,0.0,4.8117,4.6445,4.5064,4.4443,4.4812,4.5161,4.4851,4.5453,4.6074,4.6327,4.5899,4.5744,0.0,0.0,0.0,5.3553,0.0,0.0,6.2274,6.3051,6.3711,6.4216,6.3789,6.2896,6.1478,6.0778,6.0268,5.9969,5.8912,5.8382,5.8403,5.756,5.7202,5.7305,5.6758,5.6518,5.6558,5.6523,5.6511,5.6491,5.6496,5.65,0.0,5.6503,5.6503,5.6503,5.6503,5.6474,5.6417,5.6297,5.6219,5.6082,0.0,0.0,0.0,0.0,0.0,0.0,0.0,4.2937,4.3788,4.4608,4.5471,4.6015,4.5996,4.5899,4.588,4.6002,4.5891,0.0,0.0,0.0,0.0,0.0,0.0,0.0,4.5814,4.5814,4.6234,4.7113,4.8042,4.8916,4.971,4.8941,4.8604,4.8522,4.6773,4.6007,0.0,0.0,0.0,0.0,0.0,0.0,0.0,0.0,0.0,0.0,0.0,0.0,0.0,0.0,0.0,0.0,0.0,0.0,0.0,0.0,0.0,0.0,0.0,4.9763,5.0747,4.9937,4.9125,0.0,4.6463,4.5998,0.0,4.3918,4.4773,4.5589,4.4851,4.5375,4.5666,4.4928,4.4792,4.4812,0.0,4.654,0.0,0.0,5.5747,5.7858,5.78,6.0656,6.256,6.2604,6.2502,6.2055,6.1181,5.9588,5.8348,5.7535,5.7524,5.7513,5.7513,5.6782,5.6432,5.6504,5.6504,5.6495,5.6509,5.6491,5.6491,5.6496,5.6492,5.6503,5.6503,5.6503,5.6503,5.6503,5.6483,5.6417,5.6278,5.6219,5.6141,5.6087,0.0,0.0,0.0,0.0,0.0,0.0,0.0,0.0,0.0,0.0,4.5535,4.6084,4.6084,4.6041,4.6035,0.0,0.0,0.0,0.0,0.0,0.0,0.0,0.0,0.0,4.588,4.588,4.5984,4.6203,4.7798,4.8677,4.8883,4.8693,4.8588,4.8522,4.6773,4.6027,0.0,0.0,0.0,0.0,0.0,0.0,0.0,0.0,0.0,0.0,4.6284,4.6288,0.0,0.0,0.0,0.0,0.0,0.0,0.0,0.0,4.6245,4.6309,4.6757,0.0,4.7411,4.7156,4.693,4.666,0.0,4.557,4.4967,4.4579,0.0,4.4035,4.384,4.4501,4.5025,4.4831,4.4792,4.5006,4.5627,0.0,0.0,5.5127,5.8415,6.0268,5.9639,6.0308,6.1036,6.1652,6.0519,5.9406,5.8549,5.8101,5.7505,5.6698,5.6738,5.6769,5.6769,5.6579,5.6503,5.6582,5.6582,5.6552,5.6509,5.6491,5.6491,5.6496,5.6492,5.6503,5.6503,5.6503,5.6503,5.6483,5.6388,5.6319,5.6297,5.6174,5.6117,5.6087,0.0,0.0,0.0,0.0,0.0,0.0,0.0,0.0,0.0,0.0,4.5597,4.6147,4.6143,4.6123,0.0,0.0,0.0,0.0,0.0,0.0,0.0,0.0,0.0,4.5867,4.5899,4.5899,4.6106,4.6531,4.7513,4.841,4.9178,4.8375,4.8211,4.8522,4.6805,4.6084,4.6166,0.0,0.0,0.0,4.6665,0.0,0.0,0.0,0.0,0.0,4.63,4.63,0.0,4.63,4.63,4.63,0.0,0.0,0.0,0.0,4.6273,4.6245,4.6296,4.63,4.6277,4.6216,4.6203,4.6072,4.5604,0.0,0.0,0.0,0.0,4.3976,4.3569,4.3899,4.419,4.419,4.421,0.0,0.0,0.0,5.3485,5.6008,5.8315,5.9679,5.9607,5.9591,5.9786,6.0213,5.9053,5.7941,5.7089,5.705,5.6494,5.5284,5.6054,5.6503,5.6503,5.6497,5.652,5.6548,5.6548,5.6542,5.6504,5.6491,5.6496,5.648,5.6082,5.5899,5.586,5.547,5.5314,5.5295,5.5181,5.513,5.5097,5.4982,5.5195,5.5439,0.0,0.0,0.0,0.0,0.0,0.0,0.0,0.0,0.0,0.0,0.0,0.0,0.0,0.0,0.0,0.0,0.0,0.0,0.0,0.0,0.0,0.0,4.5922,4.5922,4.5922,4.5929,4.6298,4.7109,4.7381,4.8247,4.9668,4.8191,4.7764,4.8174,4.6735,4.6154,4.6248,4.7,4.6894,4.6275,4.7073,0.0,0.0,0.0,0.0,0.0,0.0,0.0,0.0,4.63,4.63,4.63,4.63,0.0,0.0,0.0,0.0,0.0,4.63,4.63,4.6277,4.6216,4.6203,4.5955,4.5012,0.0,0.0,0.0,0.0,0.0,0.0,4.3432,0.0,0.0,0.0,0.0,4.8545,5.0509,5.2715,5.5755,5.7161,5.805,5.8476,5.8635,5.8716,5.8697,5.7784,5.6944,5.6256,5.608,5.5368,5.3941,5.5325,5.6107,5.6105,5.6372,5.6439,5.6309,5.6446,5.6432,5.632,5.6437,5.6422,5.6249,5.5528,5.5119,5.4944,5.4203,5.3883,5.3875,5.3808,5.3736,5.3676,5.3596,5.4103,5.4697,0.0,0.0,0.0,0.0,0.0,0.0,0.0,0.0,0.0,0.0,0.0,0.0,0.0,0.0,0.0,0.0,0.0,0.0,0.0,0.0,0.0,4.6078,4.601,4.6007,4.6063,4.5997,4.6061,4.621,4.7686,4.8541,4.8794,4.8522,4.7708,4.6474,4.6261,4.6195,4.6201,4.6405,4.6413,4.6296,4.6436,0.0,0.0,0.0,0.0,0.0,0.0,0.0,0.0,4.63,4.63,4.63,4.63,0.0,0.0,0.0,0.0,0.0,4.63,4.63,4.6277,4.6216,4.6203,4.5955,4.5012,0.0,0.0,0.0,0.0,0.0,0.0,4.3034,4.3491,0.0,0.0,4.7762,0.0,0.0,5.3865,5.5132,5.7313,5.8209,5.6913,5.7441,5.7851,5.7804,5.6406,5.5504,5.5388,5.4685,5.4169,5.3913,5.4162,5.4293,5.43,5.5763,5.6134,5.5412,5.6153,5.6101,5.5424,5.6164,5.609,5.5392,5.5256,5.4788,5.4087,5.397,5.3866,5.3808,5.3736,5.3663,5.3615,5.3542,5.4056,5.4774,0.0,0.0,0.0,0.0,0.0,0.0,0.0,0.0,0.0,0.0,0.0,0.0,0.0,0.0,0.0,0.0,0.0,0.0,0.0,0.0,4.6211,4.6211,4.6136,4.6114,4.6111,4.6072,4.628,4.6696,4.7512,4.8133,4.858,4.8165,4.7309,4.6164,4.6195,4.6216,4.6269,4.6296,4.63,4.63,0.0,0.0,0.0,0.0,0.0,0.0,0.0,0.0,0.0,0.0,4.63,4.63,4.63,0.0,0.0,0.0,0.0,0.0,4.63,4.63,4.63,4.6269,4.6231,4.6079,4.5655,0.0,0.0,0.0,0.0,0.0,0.0,0.0,4.3364,4.4738,0.0,4.8844,5.0947,5.2359,5.3652,5.4998,5.6189,5.6595,5.5833,5.6114,5.6133,5.5642,5.4918,5.4284,5.3826,5.3865,5.3459,5.2513,5.341,5.3676,5.3206,5.4461,5.4897,5.4507,5.489,5.489,5.4512,5.4921,5.4874,5.4476,5.4009,5.358,5.3171,5.2684,5.2464,5.2387,5.2313,5.2253,5.2288,5.3182,5.3459,5.3536,0.0,0.0,0.0,0.0,0.0,0.0,0.0,0.0,0.0,0.0,0.0,0.0,0.0,0.0,0.0,0.0,0.0,0.0,0.0,4.63,4.63,4.63,4.6243,4.6285,4.6398,4.6397,4.68,4.7609,4.7803,4.8164,4.8602,4.7777,4.6968,4.6206,4.6216,4.6245,4.63,4.63,4.63,4.63,0.0,0.0,0.0,0.0,0.0,0.0,0.0,0.0,0.0,0.0,0.0,0.0,0.0,0.0,0.0,4.63,4.63,4.6261,4.6046,4.6144,4.6202,4.5792,4.5952,4.6142,4.5943,0.0,0.0,0.0,0.0,0.0,0.0,4.269,0.0,4.6122,4.8084,4.9902,5.1581,5.2632,5.3698,5.5033,5.5387,5.534,5.4929,5.5085,5.4843,5.397,5.3716,5.3296,5.2648,5.3038,5.2687,5.1342,5.259,5.2972,5.2294,5.2948,5.3377,5.3599,5.3794,5.3794,5.3599,5.3814,5.3794,5.356,5.2898,5.2489,5.2236,5.1573,5.1248,5.1171,5.1117,5.1056,5.1155,5.2659,5.2763,5.2453,0.0,0.0,0.0,0.0,0.0,0.0,0.0,0.0,0.0,0.0,0.0,0.0,0.0,0.0,0.0,0.0,0.0,0.0,0.0,4.63,4.63,4.63,4.6303,4.6619,4.7292,4.7314,4.7707,4.8502,4.9318,4.937,4.8672,4.7801,4.6969,4.6206,4.6269,4.63,4.63,4.63,4.63,4.63,4.63,0.0,0.0,0.0,0.0,0.0,0.0,0.0,0.0,0.0,0.0,0.0,0.0,0.0,4.63,4.63,4.63,4.6124,4.5304,4.5675,4.5909,4.4289,4.5055,0.0,4.5172,4.4955,0.0,4.3858,0.0,0.0,0.0,4.3661,4.5304,4.7108,4.949,5.1717,5.3462,5.4463,5.506,5.5194,5.5907,5.5771,5.4145,5.473,5.4846,5.397,5.3151,5.2664,5.2606,5.1885,5.1437,5.13,5.1417,5.1456,5.1398,5.1394,5.1823,5.2703,5.3522,5.3483,5.2723,5.3541,5.3463,5.2684,5.2625,5.2138,5.1398,5.1339,5.123,5.1105,5.1105,5.1017,5.1022,5.195,5.224,5.2453,0.0,0.0,0.0,0.0,0.0,0.0,0.0,0.0,0.0,0.0,0.0,0.0,0.0,0.0,0.0,0.0,0.0,0.0,0.0,4.63,4.63,4.63,4.63,4.6651,4.7457,4.7469,4.8094,4.9419,4.9195,4.8681,4.786,4.7046,4.6521,4.6249,4.6296,4.63,4.63,4.63,4.63,4.63,4.63,4.63,0.0,0.0,0.0,0.0,0.0,0.0,0.0,0.0,4.63,4.63,4.63,4.63,4.63,4.63,4.5929,4.5421,4.509,4.4836,4.4524,4.386,4.4188,0.0,0.0,4.5347,4.5026,4.5241,4.5242,0.0,0.0,0.0,4.6727,4.7386,5.0094,5.2344,5.2992,5.3841,5.4387,5.4398,5.4691,5.4418,5.321,5.3385,5.3229,5.2353,5.1938,5.1725,5.1725,5.1386,5.119,5.119,5.119,5.119,5.119,5.115,5.1325,5.1677,5.2038,5.2038,5.1677,5.2094,5.2065,5.1677,5.1707,5.1512,5.119,5.119,5.1117,5.103,5.099,5.0932,5.1022,5.1873,5.2202,5.2453,0.0,0.0,0.0,0.0,0.0,0.0,0.0,0.0,0.0,0.0,0.0,0.0,0.0,0.0,0.0,0.0,0.0,0.0,4.63,4.63,4.63,4.63,4.63,4.6683,4.7517,4.7536,4.8313,4.9898,4.9022,4.8186,4.7377,4.6585,4.6228,4.6273,4.6561,4.6522,4.6292,4.6538,4.6503,4.63,4.6273,4.6277,0.0,0.0,0.0,0.0,0.0,0.0,0.0,0.0,4.63,4.63,4.63,4.63,4.6241,4.5968,4.548,4.4875,4.4328,4.3938,4.3567,0.0,0.0,0.0,4.589,4.5831,4.5656,4.6534,4.6237,4.5721,4.5366,0.0,0.0,4.7455,5.0381,5.2606,5.2606,5.3346,5.3794,5.3522,5.3736,5.3435,5.2269,5.2405,5.2211,5.1297,5.1181,5.1161,5.1161,5.1128,5.1105,5.1105,5.1105,5.1105,5.1105,5.1081,5.1069,5.1069,5.1117,5.1128,5.1105,5.1201,5.1201,5.1105,5.115,5.1139,5.1105,5.1105,5.1069,5.099,5.0937,5.0906,5.0983,5.1563,5.195,5.2414,0.0,0.0,0.0,0.0,0.0,0.0,0.0,0.0,0.0,0.0,0.0,0.0,0.0,0.0,0.0,0.0,0.0,0.0,4.63,4.63,4.63,4.63,4.63,4.669,4.7569,4.7608,4.8359,4.987,4.9002,4.8186,4.7377,4.6566,4.6196,4.6245,4.7117,4.702,4.6265,4.7067,4.6975,4.63,4.6236,4.624,4.63,0.0,0.0,0.0,0.0,0.0,0.0,0.0,4.63,4.63,4.63,4.628,4.6124,4.5246,4.4992,4.4602,4.2864,4.3021,0.0,0.0,0.0,0.0,4.589,4.63,4.6554,4.7432,4.6241,4.528,4.609,4.6239,4.6524,4.7377,5.0374,5.2586,5.2586,5.3327,5.356,5.2684,5.3346,5.3174,5.1366,5.1989,5.2105,5.1163,5.1105,5.1105,5.1105,5.1105,5.1105,5.1105,5.1086,5.1086,5.1105,5.1011,5.1004,5.1004,5.1004,5.103,5.1105,5.1105,5.1105,5.1105,5.1105,5.1105,5.1105,5.1105,5.1056,5.099,5.0937,5.0906,5.0906,5.0925,5.1447,5.2298,0.0,0.0,0.0,0.0,0.0,0.0,0.0,0.0,0.0,0.0,0.0,0.0,0.0,0.0,0.0,0.0,0.0,0.0,4.63,4.63,4.63,4.63,4.63,4.6417,4.6671,4.7239,4.7732,4.8133,4.7871,4.7326,4.648,4.6236,4.6466,4.7067,4.732,4.7301,4.7067,4.7306,4.6943,4.6236,4.6211,4.624,4.63,0.0,0.0,0.0,0.0,0.0,0.0,0.0,0.0,0.0,4.63,4.587,4.5324,4.509,4.4133,4.306,4.2533,4.2142,0.0,4.1986,0.0,0.0,0.0,4.6276,0.0,0.0,4.8453,4.7754,4.7981,4.8496,4.8763,4.8464,5.0256,5.169,5.169,5.188,5.1891,5.1638,5.1804,5.1714,5.1167,5.1361,5.14,5.1125,5.1056,5.103,5.103,5.0976,5.0947,5.0947,5.0419,5.04,5.0947,5.039,5.0085,5.0085,5.0085,5.039,5.0961,5.1056,5.1056,5.0961,5.1004,5.1004,5.0947,5.0947,5.0952,5.0937,5.0906,5.0906,5.0983,5.1583,5.1235,5.0828,0.0,0.0,0.0,0.0,0.0,0.0,0.0,0.0,0.0,0.0,0.0,0.0,0.0,0.0,0.0,0.0,0.0,0.0,0.0,4.63,4.63,4.63,4.63,4.63,4.63,4.6788,4.6992,4.6924,4.7234,4.6968,4.615,4.6461,4.69,4.7431,4.8112,4.8047,4.7412,4.7766,4.7249,4.6226,4.6546,4.6523,4.6339,0.0,0.0,0.0,0.0,0.0,0.0,0.0,0.0,0.0,4.63,4.5695,4.4933,4.4582,4.3489,4.2318,4.1978,4.1492,0.0,4.2182,4.291,4.4062,4.666,0.0,0.0,0.0,4.9622,4.8903,4.9211,4.9406,4.9471,4.9294,5.0388,5.1256,5.1256,5.1191,5.1161,5.1161,5.1128,5.1093,5.1069,5.1069,5.1056,5.1017,5.0976,5.0811,5.0448,5.0732,5.0584,4.9888,4.9734,4.9734,4.9869,4.9386,4.9135,4.9138,4.9135,4.9386,4.9885,5.0336,5.0666,5.0887,5.0603,5.0468,5.0403,5.0055,4.9919,4.9919,4.9919,4.9919,4.9977,5.05,5.0055,4.9533,0.0,0.0,0.0,0.0,0.0,0.0,0.0,0.0,0.0,0.0,0.0,0.0,0.0,0.0,0.0,0.0,0.0,0.0,0.0,4.63,4.63,4.63,4.63,4.63,4.63,4.63,4.6276,4.6211,4.6943,4.6918,4.6201,4.7011,4.7436,4.7601,4.9263,4.9081,4.7581,4.837,4.7775,4.6371,4.7099,4.6989,4.6487,4.7206,0.0,0.0,0.0,0.0,0.0,0.0,0.0,0.0,4.6171,4.5574,4.4699,4.3837,4.2962,4.2109,4.1323,0.0,0.0,4.23,4.3896,0.0,4.8267,4.9536,5.039,5.105,0.0,4.9247,4.9971,4.9523,4.9262,4.9995,5.0713,5.1211,5.1181,5.107,5.0977,5.0977,5.0977,5.094,5.0893,5.0874,5.0865,5.079,5.0716,5.0314,4.9528,5.0243,4.9953,4.835,4.8987,4.9026,4.8311,4.8214,4.8179,4.8169,4.8179,4.8176,4.8214,4.915,4.9977,5.0635,4.99,4.9591,4.9513,4.874,4.8392,4.8392,4.8392,4.8392,4.8411,4.8488,4.8411,4.843,0.0,0.0,0.0,0.0,0.0,0.0,0.0,0.0,0.0,0.0,0.0,0.0,0.0,0.0,0.0,0.0,0.0,0.0,0.0,4.63,4.63,4.63,4.63,4.63,4.63,4.63,4.6284,4.6273,4.6397,4.6348,4.6131,4.6995,4.7766,4.8468,4.9533,4.941,4.8429,4.8612,4.8098,4.717,4.7337,4.7303,4.719,4.7352,4.6911,0.0,0.0,0.0,0.0,0.0,0.0,0.0,4.5417,4.4592,4.3736,4.2861,4.2015,4.1338,4.1142,4.1597,0.0,0.0,4.5701,4.8118,4.8671,4.9932,5.086,5.0444,5.0575,5.0823,5.0989,5.0879,5.0794,5.0918,5.1103,5.1171,5.1128,5.0525,5.008,5.008,5.0026,5.0003,4.9988,4.9939,4.9888,4.9872,4.9241,4.8781,4.8591,4.8764,4.8687,4.8301,4.7819,4.78,4.8301,4.7607,4.7279,4.7282,4.7279,4.7279,4.7298,4.8245,4.8778,4.8933,4.8759,4.8682,4.8662,4.8488,4.8392,4.8392,4.8392,4.8392,4.8488,4.9165,4.8546,4.7695,0.0,0.0,0.0,0.0,0.0,0.0,0.0,0.0,0.0,0.0,0.0,0.0,0.0,0.0,0.0,0.0,0.0,0.0,0.0,0.0,4.63,4.63,4.63,4.63,4.63,4.63,4.63,4.63,4.623,4.617,4.6187,4.7424,4.8268,4.8743,4.9641,4.9547,4.8664,4.8254,4.7593,4.6851,4.7239,4.717,4.687,4.7245,4.6902,4.6196,4.6154,0.0,0.0,0.0,0.0,0.0,0.0,0.0,4.3542,4.308,4.2067,4.1092,4.1092,0.0,0.0,4.3852,0.0,4.8295,4.8697,4.9453,4.9932,4.9515,5.0065,5.0635,5.0636,5.0304,5.0168,5.0519,5.0195,4.9901,4.9865,4.9453,4.9127,4.9127,4.9098,4.9053,4.9019,4.9003,4.8987,4.8974,4.8552,4.8092,4.7651,4.8037,4.7882,4.7092,4.6979,4.6979,4.7053,4.661,4.6362,4.6345,4.6362,4.6378,4.6414,4.7754,4.8346,4.8323,4.7936,4.7777,4.7753,4.7328,4.7154,4.7154,4.7154,4.7154,4.7212,4.7676,4.725,4.667,0.0,0.0,0.0,0.0,0.0,0.0,0.0,0.0,0.0,0.0,0.0,0.0,0.0,0.0,0.0,0.0,0.0,0.0,0.0,0.0,0.0,4.63,4.63,4.63,4.63,4.63,4.63,4.63,4.6228,4.6287,4.6466,4.7991,4.8716,4.8755,4.9684,4.9589,4.8652,4.7793,4.7034,4.6468,4.7124,4.6991,4.6466,4.7151,4.6897,4.6154,4.6102,4.6084,4.6093,4.6162,0.0,0.0,0.0,0.0,4.363,4.3437,4.2298,4.1093,0.0,0.0,4.1863,4.4114,4.5988,0.0,4.8183,4.8585,4.8725,4.8506,4.9129,4.9693,4.9679,4.9128,4.8905,4.9551,4.9006,4.8503,4.847,4.8319,4.8179,4.8179,4.8179,4.8164,4.8099,4.8063,4.8067,4.8053,4.7921,4.748,4.6714,4.7369,4.7118,4.5731,4.6331,4.6273,4.5481,4.5461,4.5368,4.5163,4.5233,4.5247,4.5298,4.6744,4.7491,4.7616,4.6785,4.651,4.6598,4.5863,4.5664,4.58,4.58,4.5877,4.6013,4.5858,4.5896,4.5993,0.0,0.0,0.0,0.0,0.0,0.0,0.0,0.0,0.0,0.0,0.0,0.0,0.0,0.0,0.0,0.0,0.0,0.0,4.63,0.0,0.0,4.63,4.63,4.63,4.63,4.63,4.63,4.63,4.6228,4.6582,0.0,4.8339,4.8788,4.8827,4.9717,4.96,4.873,4.7851,4.7383,4.7255,4.7362,4.7301,4.7174,4.7345,4.6822,4.6017,4.6017,4.6007,4.6027,4.6096,4.608,0.0,0.0,0.0,4.3453,4.2692,4.1814,4.111,0.0,0.0,4.2471,0.0,4.5092,4.6391,0.0,0.0,4.8477,0.0,4.8224,4.8847,4.8777,4.8699,4.8619,4.8677,4.8574,4.849,4.8421,4.7768,4.727,4.727,4.726,4.7283,4.7249,4.7166,4.7077,4.7097,4.6388,4.5911,4.5776,4.5873,4.5834,4.5622,4.5719,4.5372,4.4506,4.4487,4.4124,4.3431,4.3431,4.3448,4.3448,4.3679,4.4229,4.4963,4.4094,4.4152,4.4843,4.4718,4.5119,4.5795,4.5786,4.6264,4.6825,4.6071,4.6283,4.6825,0.0,0.0,0.0,0.0,0.0,0.0,0.0,0.0,0.0,0.0,0.0,0.0,0.0,0.0,0.0,4.63,4.63,4.63,4.63,4.63,4.63,4.63,4.63,4.63,4.63,4.63,4.63,4.63,4.6276,0.0,0.0,4.8409,4.9058,4.9551,4.9924,4.9625,4.874,4.787,4.7203,4.6713,4.6684,4.6651,4.6627,4.661,4.6348,4.5997,4.5997,4.6018,4.6052,4.6091,4.6111,4.5972,4.5164,0.0,0.0,0.0,4.1757,0.0,4.05,4.0642,4.1144,0.0,4.3117,4.415,4.4637,4.5694,4.645,4.5998,4.6581,4.73,4.7682,4.7384,4.7229,4.7649,4.7307,4.6828,4.6341,4.5935,4.5529,4.5026,4.5385,4.563,4.5596,4.5976,4.6213,4.6159,4.5353,4.4874,4.4874,4.4432,4.4201,4.4201,4.4165,4.3955,4.3571,4.3534,4.3344,4.2998,4.3069,4.3069,4.3032,4.2569,4.2848,4.3682,4.3316,4.3385,4.3815,4.4293,4.4752,4.5172,4.5626,4.6032,4.6322,4.5935,4.6032,4.6322,0.0,0.0,0.0,0.0,0.0,0.0,0.0,0.0,0.0,0.0,0.0,0.0,0.0,0.0,0.0,0.0,4.63,4.63,4.63,4.63,4.63,4.63,4.63,4.63,4.63,4.63,4.63,4.63,0.0,0.0,4.792,4.8525,4.9377,0.0,5.0195,4.9735,4.9052,4.7981,4.7147,4.6504,4.6238,4.6111,4.6091,4.6046,4.6008,4.5997,4.5997,4.6046,4.6098,4.6098,4.6132,4.6052,4.5163,4.4335,0.0,0.0,0.0,0.0,0.0,0.0,3.9637,4.029,4.1061,4.189,0.0,0.0,4.4272,4.4431,4.4958,4.5517,4.604,4.5822,4.577,4.6375,4.5722,4.4949,4.4349,4.4272,4.402,4.3349,4.3791,4.4148,4.4083,4.4669,4.5021,4.497,4.4355,4.3989,4.3989,4.3431,4.3104,4.3104,4.3032,4.29,4.267,4.2406,4.2256,4.2275,4.2381,4.2398,4.2343,4.1742,4.1813,4.2441,4.2441,4.2603,4.2946,4.3815,4.4327,4.4664,4.549,4.5935,4.609,4.5877,4.5935,4.609,0.0,0.0,0.0,0.0,0.0,0.0,0.0,0.0,0.0,0.0,0.0,0.0,4.63,4.63,4.63,4.63,4.63,4.63,4.63,4.63,4.63,4.63,4.63,0.0,4.63,4.63,4.63,4.63,0.0,0.0,4.874,4.8779,4.9716,5.1301,5.0477,5.0067,4.993,0.0,0.0,0.0,4.6523,4.615,4.6098,4.6098,4.6063,4.5997,4.5997,4.6046,4.6098,4.6098,4.6147,4.6056,4.5174,4.4297,4.3457,0.0,0.0,0.0,0.0,3.8576,0.0,3.8624,3.9296,0.0,0.0,0.0,4.2649,4.3413,4.3607,4.3585,4.3505,4.4136,4.4678,4.4717,4.4001,4.3421,4.3363,4.3363,4.333,4.3225,4.3241,4.3235,4.3185,4.3214,4.322,4.322,4.3181,4.3162,4.3162,4.3124,4.3104,4.3104,4.3032,4.2612,4.1769,4.0931,4.053,4.053,4.06,4.0636,4.0636,4.0588,4.0585,4.0639,4.0639,4.1135,4.2048,4.2922,4.3762,4.4583,4.5457,4.6303,4.6922,4.609,4.6322,4.6902,0.0,0.0,0.0,0.0,0.0,0.0,0.0,0.0,0.0,0.0,0.0,0.0,0.0,4.63,4.63,4.63,4.63,4.63,4.63,4.63,4.63,4.63,4.63,4.63,4.63,4.63,4.63,4.63,0.0,4.6885,4.8037,4.8037,4.8935,5.0575,5.0828,5.0614,5.0028,4.8857,0.0,0.0,0.0,0.0,0.0,0.0,4.6072,4.6007,0.0,0.0,4.6112,4.6144,4.6182,4.5955,4.4565,4.3915,4.3288,4.1306,0.0,0.0,0.0,0.0,0.0,3.7542,3.7903,3.8361,3.9232,4.0084,4.0792,4.1077,4.1954,4.248,4.1867,4.2853,4.3769,4.3769,4.3498,4.3092,4.2531,4.2466,4.2259,4.1666,4.2054,4.2356,4.2322,4.281,4.3104,4.3104,4.2585,4.2242,4.2206,4.1703,4.1415,4.1368,4.1351,4.1163,4.0785,4.0497,4.0326,4.0346,4.0452,4.0485,4.0432,4.0476,4.0489,4.0489,4.0489,4.0727,4.1191,4.2613,4.341,4.3858,4.5258,4.5993,4.6225,4.5916,4.5993,4.6225,0.0,0.0,0.0,0.0,0.0,0.0,0.0,0.0,0.0,4.63,0.0,0.0,0.0,0.0,4.63,4.63,4.63,4.63,4.63,4.63,4.63,4.63,4.63,4.63,4.63,4.6007,4.6007,4.63,4.6007,4.6456,4.7608,4.7608,4.8349,4.9696,5.0262,5.0379,0.0,0.0,0.0,4.7514,0.0,0.0,4.6199,0.0,0.0,0.0,0.0,0.0,4.6152,4.6182,4.6015,4.5543,4.4112,4.3088,4.2006,3.9995,0.0,0.0,3.71,0.0,0.0,0.0,0.0,3.703,3.7878,3.8511,3.9006,3.9267,4.0171,4.0742,4.0131,4.0893,4.1705,4.197,4.1777,4.139,4.0817,4.0965,4.0803,3.994,4.054,4.0915,4.0631,4.1062,4.1508,4.1797,4.1296,4.105,4.1303,4.0784,4.0463,4.0379,4.0362,4.0345,4.031,4.0309,4.029,4.0291,4.0398,4.0432,4.0415,4.0479,4.0492,4.0492,4.0508,4.0534,4.0709,4.217,4.2811,4.3001,4.4407,4.4949,4.5007,4.5297,4.5394,4.5394,0.0,0.0,0.0,0.0,0.0,0.0,0.0,0.0,4.63,4.63,0.0,0.0,0.0,0.0,0.0,4.63,4.63,4.63,4.63,4.63,4.63,4.63,4.63,4.63,4.63,4.548,4.5441,4.63,4.5441,4.5909,4.7569,4.7569,4.7998,4.8759,4.8759,4.9228,4.9969,0.0,4.831,4.7514,0.0,4.6246,4.6245,0.0,0.0,0.0,4.6191,4.6202,0.0,4.6195,0.0,0.0,0.0,0.0,0.0,0.0,0.0,0.0,0.0,0.0,0.0,0.0,0.0,0.0,3.6986,3.7157,3.7375,3.8162,3.835,3.8319,3.8249,3.8248,3.8498,3.9267,3.8721,3.8206,3.8201,3.8865,3.9052,3.8207,3.8777,3.8936,3.8123,3.8046,3.8392,3.9258,3.9335,3.9681,4.045,4.0499,4.0432,4.0288,4.0307,4.029,4.031,4.031,4.0291,4.0307,4.0307,4.0325,4.0415,4.0466,4.0502,4.0502,4.0492,4.0539,4.0665,4.1538,4.1947,4.2091,4.2963,4.3305,4.3401,4.4253,4.4562,4.4562,0.0,0.0,0.0,0.0,0.0,4.63,4.63,4.63,4.63,0.0,0.0,0.0,4.7237,4.7237,4.6983,4.6358,4.63,4.63,4.63,4.63,4.63,4.63,4.63,4.63,4.63,4.6066,4.6066,4.6303,4.6066,4.6183,4.6651,4.6651,4.71,4.792,4.7939,4.8076,4.8291,4.8037,0.0,4.7588,4.7325,4.7185,0.0,0.0,0.0,0.0,0.0,4.6205,4.62,0.0,4.568,4.4665,0.0,0.0,0.0,0.0,0.0,0.0,3.6247,0.0,0.0,0.0,0.0,0.0,3.6286,3.6294,3.6314,3.6557,3.7053,3.7292,3.6666,3.6996,3.723,3.6813,3.7564,3.8187,3.8206,3.8395,3.8428,3.8138,3.8252,3.8513,3.8892,3.8931,3.9277,4.0104,4.0162,4.0277,4.0479,4.0413,4.0342,4.0307,4.0309,4.0291,4.031,4.0309,4.0289,4.0307,4.0362,4.0415,4.0466,4.0502,4.0499,4.0492,4.0508,4.0504,4.0596,4.1513,4.1938,4.2091,4.2916,4.3258,4.3324,4.3576,4.3653,4.3653,0.0,0.0,0.0,4.63,4.6593,4.6846,4.6846,4.6846,4.6846,0.0,0.0,0.0,4.7608,4.7608,4.7256,4.6378,4.63,4.63,4.63,4.63,4.63,4.63,4.63,4.63,4.63,4.5935,4.5941,4.6293,4.5941,4.5941,4.629,4.629,4.656,4.7061,0.0,0.0,0.0,0.0,0.0,0.0,4.7451,0.0,0.0,4.7907,4.7793,0.0,0.0,0.0,4.625,4.6293,4.5453,0.0,0.0,0.0,0.0,0.0,0.0,0.0,0.0,0.0,0.0,0.0,0.0,0.0,3.5997,3.5966,3.5934,3.5904,3.6267,3.6456,3.5983,3.625,3.6356,3.5795,3.6512,3.7157,3.7123,3.7429,3.7501,3.7064,3.7307,3.7569,3.77,3.8027,3.8565,3.9392,3.9777,4.0146,4.0482,4.0432,4.0379,4.0325,4.0345,4.0346,4.0346,4.0344,4.0362,4.0379,4.0379,4.0432,4.0502,4.0502,4.0499,4.0511,4.0508,4.0523,4.0577,4.1131,4.1384,4.1479,4.1989,4.2228,4.2299,4.2628,4.2776,4.2802,0.0,0.0,4.6261,4.6163,4.6963,4.7608,4.7608,4.7686,4.7725,0.0,4.7822,4.7881,4.7881,4.7783,4.7393,4.6515,4.6358,4.63,4.63,4.63,4.63,4.63,4.6303,4.6303,4.63,4.5534,4.552,4.6303,4.5522,4.5541,4.6303,4.6303,4.6297,4.6303,4.6303,0.0,0.0,0.0,0.0,4.6378,4.7354,4.7642,0.0,0.0,4.827,4.7518,4.7461,4.6963,4.6261,4.6085,4.4972,4.3391,0.0,0.0,0.0,0.0,3.7985,0.0,0.0,0.0,0.0,0.0,3.5991,0.0,3.5994,3.6005,3.5981,3.5919,3.5914,3.5908,3.5898,3.5905,3.5864,3.5736,3.5718,3.5689,3.5623,3.6288,3.6458,3.5605,3.6209,3.6394,3.5713,3.6372,3.7199,3.8065,3.8931,3.9742,4.0463,4.0502,4.0485,4.0415,4.0398,4.0398,4.0398,4.0415,4.0432,4.0502,4.0432,4.0449,4.0499,4.0502,4.0502,4.0499,4.0508,4.0539,4.0607,4.0622,4.0598,4.0621,4.0746,4.079,4.0887,4.1603,4.1892,4.197,0.0,4.5695,4.6085,4.5382,4.6554,4.7608,4.7608,4.8154,4.8564,4.8564,4.9189,4.9618,4.9618,4.8993,4.8232,4.7412,4.669,4.63,4.63,4.63,4.63,4.63,4.6293,4.6295,4.63,4.6128,4.6122,4.6308,4.6133,4.6133,4.6308,4.6308,4.6307,4.63,4.63,0.0,0.0,0.0,0.0,4.6436,4.7959,4.8177,4.7676,4.849,4.8294,4.75,4.6791,4.6436,4.6085,4.468,4.3977,4.3391,4.1654,4.0503,3.9644,3.8843,0.0,0.0,0.0,0.0,0.0,3.5991,3.5991,0.0,3.6007,3.6001,3.5997,3.5974,3.5986,3.5953,3.5899,3.5897,3.5892,3.5864,3.5826,3.5756,3.5695,3.5828,3.5855,3.5608,3.5743,3.6009,3.6492,3.7275,3.8108,3.8975,3.9792,4.0319,4.0482,4.0502,4.0485,4.0415,4.0398,4.0398,4.0398,4.0449,4.0485,4.0502,4.0485,4.0499,4.0508,4.0499,4.0499,4.0508,4.0558,4.0588,4.0588,4.066,4.0687,4.0668,4.07,4.0746,4.081,4.0984,4.1052,4.1059,4.509,4.5695,4.6163,4.5714,4.7061,4.8193,4.8193,4.8915,4.9442,4.9442,4.9833,5.0106,5.0106,4.9345,4.8505,4.7666,4.6807,4.6303,4.6293,4.6293,4.6309,4.63,4.6309,4.6295,4.6301,4.6301,4.6306,4.6308,4.6308,4.6308,4.6308,4.6308,4.6307,4.6293,4.6293,4.6309,0.0,0.0,4.63,4.6417,4.7686,0.0,4.7686,4.8486,4.8291,4.7549,4.712,4.6671,4.6027,4.4289,4.3704,4.3391,4.1654,4.0795,4.019,3.8961,3.8297,3.7653,3.6345,3.5991,3.5991,3.5991,3.5991,0.0,0.0,3.6336,3.6528,3.6091,3.6321,3.6473,3.6036,3.5924,3.5903,3.5898,3.583,3.5801,3.5757,3.5728,3.5687,3.5612,3.5601,3.5763,3.6151,3.6935,3.7924,3.9201,4.0057,4.0508,4.0495,4.0495,4.0495,4.0444,4.0444,4.0444,4.0444,4.0479,4.0495,4.0495,4.0495,4.0492,4.0489,4.0492,4.0527,4.0539,4.0592,4.0622,4.0646,4.0687,4.0733,4.0746,4.0746,4.0778,4.079,4.079,4.0812,4.0849,4.4898,4.5444,4.6046,4.6046,4.7451,4.8564,4.8564,4.9442,5.0165,5.0328,5.0347,5.0344,5.036,4.9462,4.8603,4.79,4.6889,4.629,4.6301,4.6303,4.6301,4.629,4.629,4.63,4.6308,4.6308,4.6308,4.6308,4.6308,4.6308,4.6308,4.6308,4.6306,4.629,4.6303,4.63,0.0,0.0,0.0,4.6358,0.0,4.7354,4.7432,4.8252,4.8057,4.7354,4.7354,4.6788,4.5812,4.4231,4.3587,4.3177,4.1596,4.1108,4.0776,3.91,3.8593,3.8219,3.6462,3.5991,3.5991,3.5991,3.5991,3.5991,0.0,0.0,0.0,3.615,3.6657,3.7028,3.638,3.6333,3.6299,3.5961,3.5995,3.5939,3.5621,3.5666,3.5708,3.5615,3.5913,3.5968,3.5654,3.6511,3.77,3.9215,4.0057,4.0523,4.0523,4.0523,4.0489,4.0489,4.0489,4.0489,4.0489,4.0489,4.0489,4.0489,4.0489,4.0523,4.0523,4.0523,4.0539,4.0603,4.0603,4.0646,4.07,4.07,4.0733,4.0746,4.079,4.079,4.079,4.0803,4.0846,4.0907,4.388,4.4552,4.5148,4.5151,4.6577,4.7744,4.7744,4.9072,5.0387,5.1142,5.1257,5.1252,5.1258,4.9794,4.8779,0.0,4.7207,4.6297,4.6301,4.6307,4.6308,4.6308,4.6308,4.6308,4.6308,4.6308,4.6308,4.6308,4.6308,4.6308,4.6308,4.6308,4.6308,4.6308,4.6293,0.0,0.0,0.0,4.63,0.0,4.6417,4.6456,4.6534,4.7412,4.7198,4.6456,4.6456,4.589,4.4992,4.4036,4.3196,4.2376,4.14,4.1108,4.0776,3.91,3.8593,3.8219,3.6462,3.5991,3.5991,3.5991,3.5991,3.5991,3.5991,0.0,3.6127,3.603,0.0,3.7259,3.7172,0.0,0.0,3.6235,3.6572,3.6498,3.4944,3.5392,3.5842,3.5708,3.7003,3.7317,3.5828,3.7119,3.8415,3.932,4.014,4.0588,4.0588,4.0539,4.0489,4.0489,4.0489,4.0489,4.0489,4.0489,4.0489,4.0489,4.0489,4.0539,4.0588,4.0588,4.0583,4.0607,4.0654,4.0687,4.07,4.0759,4.07,4.0559,4.0733,4.079,4.0803,4.0804,4.0839,4.0917,4.3593,4.4392,4.4993,4.5006,4.6432,4.7601,4.7592,4.9052,5.0461,5.1288,5.1398,5.1224,5.0754,0.0,0.0,0.0,0.0,4.6309,0.0,4.6306,4.6308,4.6308,4.6308,4.6308,4.6308,4.6308,4.6308,4.6308,4.6308,4.6308,4.6308,4.6308,4.6308,4.6308,4.6306,0.0,4.63,0.0,4.6295,0.0,4.6303,4.63,4.6339,4.671,4.6612,4.6222,4.5734,4.5304,4.4797,4.3411,4.2708,4.2259,4.1361,4.0756,4.0112,3.8941,3.8238,3.7575,3.6345,3.5991,3.5991,3.5991,3.5991,3.5991,3.5991,3.6384,3.6618,3.6111,0.0,0.0,0.0,0.0,0.0,0.0,3.625,3.6192,3.5515,3.6093,3.6386,3.5812,3.6833,3.7472,3.7228,3.78,3.8524,3.9341,3.9706,4.0116,4.0579,4.0579,4.0564,4.0564,4.0564,4.0564,4.0564,4.0564,4.0564,4.0564,4.0564,4.0579,4.0598,4.0598,4.0626,4.0654,4.0612,4.0579,4.0574,4.0564,4.0519,4.045,4.0583,4.0654,4.0688,4.0738,4.0839,4.0952,4.3223,0.0,0.0,4.531,4.6402,4.7317,4.7556,4.8876,5.0149,5.0959,5.1266,5.1093,5.0298,4.9628,0.0,0.0,4.7243,4.6814,0.0,4.6514,4.6542,4.6308,4.6308,4.6308,4.6308,4.6308,4.6308,4.6308,4.6308,4.6308,4.6308,4.6308,4.6308,4.6308,4.6308,4.6307,4.6295,0.0,4.6303,4.6301,4.6306,4.63,4.63,4.6306,4.6147,4.5851,4.5226,4.4699,4.4094,4.2829,4.2243,4.1927,4.1303,4.0506,3.9669,3.8843,3.7985,3.7106,3.6247,3.5991,3.5991,3.5991,3.5991,3.5991,3.5991,3.6482,3.6755,3.613,3.6696,0.0,0.0,0.0,3.6551,3.6082,0.0,3.6129,3.5693,3.6317,3.6559,3.5908,3.637,3.7063,3.789,3.7926,3.8133,3.8709,3.9174,3.9669,4.0235,4.0486,4.0588,4.0588,4.0588,4.0588,4.0588,4.0588,4.0588,4.0588,4.0559,4.0545,4.0559,4.053,4.0549,4.0612,4.0519,4.0485,4.0515,4.0454,4.0406,4.0372,4.0441,4.05,4.0568,4.0642,4.0796,4.0935,4.2441,4.3828,0.0,0.0,4.6308,4.6639,4.7478,4.8353,4.9244,5.0117,5.0918,0.0,0.0,0.0,0.0,0.0,0.0,4.8094,4.642,4.7084,4.7174,4.6348,4.6308,4.6308,4.6308,4.6308,4.6308,4.6308,4.6308,4.6308,4.6308,4.6308,4.6308,4.6308,4.6308,4.6308,4.6308,4.6308,4.6307,4.6301,4.6306,4.63,4.6303,4.6297,4.5787,4.5051,4.5012,4.3918,4.2477,4.241,4.1841,4.1147,4.1108,4.0552,3.9738,3.8868,3.7985,3.7106,3.6247,3.5991,3.5991,3.5991,3.5991,3.5991,3.5991,3.601,3.603,3.601,3.6696,3.7282,3.7262,3.7946,3.7965,3.6264,3.6707,0.0,0.0,3.5483,3.6007,3.5911,3.5857,3.6187,3.7061,3.713,3.7113,3.7075,3.8573,3.9487,3.9445,4.0191,4.0588,4.0588,4.0588,4.0588,4.0588,4.0588,4.0588,4.0588,4.0469,4.0438,4.0489,4.0358,4.0341,4.0406,4.0406,4.0438,4.0504,4.0489,4.0425,4.0325,4.0377,4.0392,4.0422,4.0559,4.0681,4.0807,0.0,0.0,0.0,0.0,0.0,4.6797,4.8239,4.8708,4.9393,0.0,5.123,0.0,0.0,4.9667,4.8846,0.0,0.0,4.6932,4.6345,4.6579,4.6619,4.6308,4.6308,4.6308,4.6308,4.6308,4.6308,4.6308,4.6308,4.6308,4.6308,4.6308,4.6308,4.6308,4.6308,4.6308,0.0,0.0,0.0,0.0,4.6303,4.5955,4.5438,4.5431,4.5263,4.4859,4.369,4.29,4.2318,4.1735,4.1346,4.111,4.1097,4.0552,3.972,3.8864,3.7982,3.712,3.6239,3.5999,3.5991,3.5991,3.5999,3.6003,3.5994,3.5991,3.5991,3.5991,3.6228,3.6443,3.6443,3.6677,3.6696,3.6111,3.6245,3.6222,0.0,3.5812,3.5997,3.5973,3.6423,3.7053,3.7883,3.7444,3.7303,3.7831,3.7899,3.8394,3.948,3.9799,4.0184,4.073,4.0784,4.0792,4.0726,4.0725,4.0668,4.0526,4.0481,4.0434,4.037,4.0372,4.0372,4.0406,4.0339,4.0341,4.0358,4.0307,4.0272,4.0234,4.0309,4.0327,4.0344,4.0473,4.0615,4.073,4.5,0.0,0.0,0.0,0.0,0.0,4.8223,4.8437,0.0,0.0,5.0508,0.0,4.9375,0.0,4.8418,0.0,4.7187,4.6953,4.6348,4.6582,4.6621,4.6308,4.6308,4.6308,4.6308,4.6308,4.6308,4.6305,4.6308,4.6308,4.6308,4.6308,4.6133,4.584,4.584,4.584,4.584,4.584,4.6014,0.0,4.5955,4.5314,4.4505,4.4198,4.4086,4.3922,4.2802,4.2207,4.1852,4.1326,4.1133,4.1133,4.1146,4.056,3.9724,3.8867,3.7988,3.7107,3.6248,3.5991,3.6003,3.5994,3.5999,3.6005,3.6005,3.6003,3.6001,3.6001,3.5996,3.5991,3.5991,3.5991,3.5991,3.5991,3.5991,3.5994,0.0,3.5996,3.5991,3.6007,3.645,3.6971,3.7455,3.7014,3.691,3.7417,3.7222,3.7708,3.9062,3.9431,3.9976,4.0819,4.0869,4.0878,4.0843,4.0804,4.0706,4.0568,4.0466,4.0386,4.0302,4.0286,4.0306,4.0323,4.0289,4.029,4.029,4.0253,4.0234,4.0234,4.0291,4.0309,4.0346,4.0396,4.0473,4.0574,4.5058,4.5723,0.0,0.0,4.6367,4.666,4.7539,4.7695,4.8027,0.0,4.8965,4.8633,4.7754,4.8379,4.8164,4.6504,4.7832,4.8066,4.6406,4.707,4.7168,4.6348,4.6308,4.6308,4.6308,4.6308,4.6305,4.63,4.6305,4.6308,4.6308,4.6269,4.5781,4.5,4.4941,0.0,4.4941,4.4941,4.541,4.6094,4.528,4.4418,4.3548,4.2717,4.2376,4.2341,4.2342,4.1813,4.1116,4.1171,4.1191,4.1191,4.1152,4.0566,3.9726,3.8809,3.7949,3.7109,3.623,3.5996,3.5995,3.6001,3.5994,3.6001,3.5995,3.5995,3.5992,3.5992,3.6003,3.6013,3.6052,3.6052,3.6052,3.6052,3.6033,3.5999,3.601,3.6001,3.5999,3.601,3.5994,3.597,3.5914,3.5962,3.5968,3.5911,3.6619,3.7416,3.8255,3.911,3.9965,4.0869,4.0917,4.0917,4.0907,4.0765,4.0694,4.0681,4.0422,4.0307,4.0289,4.0157,4.0137,4.0196,4.0196,4.0253,4.031,4.031,4.0291,4.0307,4.0307,4.0342,4.0398,4.0328,4.0309,4.0342,4.5898,4.6113,4.6504,0.0,4.7266,4.7558,4.8437,4.9121,4.9609,4.9844,4.9863,4.9531,4.8652,4.8183,4.7754,4.7305,4.707,4.6777,4.6328,4.6504,4.6523,4.6308,4.6308,4.6308,4.6308,4.6301,4.6309,4.63,4.6309,4.6297,4.6285,4.5642,4.5212,4.4978,4.4316,4.4023,4.4023,4.4023,4.416,4.4355,4.412,4.3515,4.2714,4.2485,4.2009,4.1445,4.1483,4.1367,4.117,4.1191,4.1191,4.1094,4.0449,4.0078,3.9609,3.8086,3.748,3.7109,3.623,3.5996,3.5996,3.5995,3.5995,3.5993,3.6005,3.5992,3.5996,3.5996,3.5995,3.6207,3.6855,3.6977,3.6964,3.6964,3.6431,3.5999,3.601,3.6001,3.5999,3.601,3.6007,3.5982,3.5985,3.5997,3.5962,3.5914,3.6138,3.6913,3.8377,3.8656,3.9461,4.0921,4.1025,4.0991,4.0907,4.0818,4.0706,4.0554,4.0372,4.0252,4.0157,4.0176,4.0176,4.0196,4.0253,4.0272,4.031,4.0309,4.0289,4.0288,4.0342,4.0377,4.0392,4.0379,4.0362,4.0379,4.619,4.6562,4.7148,4.8027,4.8164,4.832,4.8828,4.9316,4.9629,4.9629,4.9297,4.8887,4.8398,4.7558,4.7031,4.7031,4.6582,4.6308,4.6303,4.6303,4.6305,4.6307,4.6307,4.6307,4.6307,4.63,4.6306,4.63,4.5909,4.5721,4.5707,4.4831,4.4225,4.3837,4.3353,4.3123,4.3164,4.3535,4.3476,4.3125,4.3125,4.2637,0.0,4.1871,4.157,4.1094,4.0741,4.0879,4.1133,4.0762,4.0879,4.0976,3.9726,3.959,3.9551,3.7812,3.7305,3.7109,3.623,3.5996,3.5996,3.5996,3.5996,3.5996,3.5991,3.5995,3.5996,3.5996,3.5996,3.6269,3.7131,3.7309,3.7413,3.781,3.7456,3.7006,3.6619,3.6578,3.6438,3.6049,3.5991,3.6007,3.5994,3.6007,3.5978,3.5958,3.5986,3.6727,3.841,3.8497,3.9287,4.0987,4.1026,4.0979,4.0896,4.0776,4.0655,4.054,4.0392,4.0271,4.0196,4.0234,4.0253,4.0253,4.0309,4.0346,4.0327,4.0344,4.036,4.0392,4.046,4.0489,4.0485,4.0492,4.0495,4.0479,4.6301,4.7109,0.0,0.0,4.9062,4.9062,4.9062,4.8965,4.8906,4.8906,4.8242,4.7734,4.7617,4.6914,4.6426,4.6308,4.6308,4.6307,4.6309,4.6303,4.6306,4.63,4.63,4.63,4.63,4.63,4.6237,4.6124,4.5363,4.4933,4.4816,4.3938,4.3138,4.2399,0.0,0.0,0.0,4.3047,4.2949,4.2246,4.2246,4.1816,4.1191,4.1191,4.1129,4.0923,4.0175,4.0391,4.0898,4.0019,4.0234,4.0566,3.8945,3.8945,3.9238,3.7617,3.7129,3.6953,3.6211,3.5996,3.5996,3.5996,3.5996,3.5996,3.5996,3.5996,3.5996,3.5996,3.5996,3.6308,3.7292,3.7561,3.788,3.8652,3.8672,3.834,3.7578,3.7363,3.7011,3.6266,3.6071,0.0,3.6003,3.5999,3.5991,3.599,3.6001,3.6687,3.8245,3.8452,3.9267,4.0881,4.0922,4.0918,4.0898,4.0711,4.0588,4.0607,4.0408,4.0307,4.0307,4.0307,4.0307,4.0325,4.0379,4.0396,4.0396,4.0432,4.0444,4.0519,4.0593,4.0621,4.0621,4.0588,4.0612,4.0622,4.7022,0.0,0.0,0.0,4.9961,4.9961,4.9961,4.9355,4.8906,4.8906,4.8769,4.8398,4.7676,4.7461,4.707,4.6367,4.6308,4.6308,4.6307,4.6295,4.6303,4.6306,4.6306,4.6306,4.6306,4.6306,4.5952,4.5226,4.507,4.4621,4.3918,4.304,4.2552,4.2376,0.0,0.0,4.1348,4.1543,4.1543,4.1406,4.1406,4.1328,4.1191,4.1191,4.0742,4.0116,3.9941,4.0,3.998,3.9121,3.8926,3.8887,3.7851,3.7637,3.7559,3.6523,3.623,3.6191,3.6035,3.5996,3.5996,3.5996,3.5996,3.5996,3.5996,3.5996,3.5996,3.5996,3.5996,3.6484,3.8085,3.8964,3.9492,3.9648,3.9062,3.8555,3.8398,3.7754,3.7246,3.709,3.6445,3.5993,3.6007,3.5996,3.5992,3.5991,3.6001,3.6411,3.7386,3.8151,3.9025,4.0004,4.0643,4.0953,4.0898,4.0711,4.0588,4.0588,4.0444,4.0379,4.0379,4.0379,4.0379,4.0379,4.0392,4.0389,4.0408,4.0527,4.0569,4.0574,4.0607,4.0621,4.0687,4.0621,4.0668,4.0765,4.8419,0.0,0.0,0.0,5.0369,5.0115,5.0135,4.9041,4.8397,4.8848,4.8906,4.8574,4.7695,4.7207,4.6758,4.6348,4.6306,4.6305,4.6308,4.6297,4.63,4.63,4.63,4.63,4.63,4.63,4.587,4.4992,4.4543,4.3879,4.3001,4.2123,4.1732,4.1713,0.0,4.1099,0.0,4.1132,4.1152,4.1152,4.1191,4.1191,4.1152,4.0703,4.0273,3.9785,3.8887,3.8555,3.8496,3.8066,3.8223,3.8379,3.7031,3.6934,3.7129,3.6269,3.5996,3.5996,3.5996,3.5996,3.5996,3.5996,3.5996,3.5996,3.5996,3.5996,3.5996,3.5996,3.5996,3.6523,3.8281,3.9687,4.0566,4.0523,4.017,3.9741,3.9334,3.8514,3.7811,3.7342,3.652,3.6007,3.5994,3.6003,3.5995,3.5992,3.5992,3.6363,3.7218,3.7678,3.8528,3.9806,4.0129,4.0478,4.0897,4.0706,4.0588,4.0588,4.0523,4.0495,4.0495,4.0495,4.0495,4.0495,4.0504,4.05,4.0515,4.0598,4.066,4.0654,4.07,4.0713,4.0746,4.0713,4.0746,4.079,4.9517,4.9857,0.0,5.105,5.0655,5.0258,5.0297,4.9185,4.8476,4.8846,4.8749,4.8359,4.7675,4.6992,4.6503,4.6328,4.63,4.6295,4.6307,4.6295,4.63,4.63,4.63,4.63,4.63,4.6124,4.5597,4.4719,4.384,4.2884,4.1849,4.1322,4.1108,4.1108,4.1108,4.1094,4.1099,4.109,4.1093,4.1093,4.1152,4.1172,4.1094,4.0234,3.9785,3.9414,3.7851,3.7187,3.7012,3.7012,3.748,3.7812,3.6426,3.6465,3.6894,3.6191,3.5996,3.5996,3.5996,3.5996,3.5996,3.5996,3.5996,3.5996,3.5995,3.5995,3.5995,3.5995,3.6152,3.6757,3.83,3.9863,4.0955,4.1077,4.1091,4.0821,4.001,3.9153,3.8274,3.7395,3.6536,3.6005,3.5994,3.5991,3.6001,3.5995,3.5996,3.6308,3.6992,3.7201,3.801,3.9559,3.9599,4.0011,4.0867,4.0688,4.0588,4.0588,4.0598,4.0603,4.0603,4.0603,4.0603,4.0603,4.0626,4.0621,4.0654,4.07,4.0713,4.0733,4.0778,4.079,4.079,4.079,4.079,4.079,4.9431,0.0,5.0868,5.1082,5.1048,5.1003,5.1003,5.0867,5.0313,4.907,4.8217,4.769,4.7612,4.7533,4.7162,4.6362,4.6301,4.6297,4.6306,4.6303,4.63,4.63,4.63,4.63,4.63,4.5539,4.4699,4.3821,4.2942,4.1674,4.0054,4.0776,4.1108,4.1108,4.1108,4.1111,4.1091,4.1094,4.1101,4.1108,4.1113,4.1113,4.1016,4.0215,3.9414,3.8594,3.7637,3.6797,3.6113,3.6113,3.6172,3.6211,3.6055,3.6055,3.6113,3.6016,3.5996,3.5996,3.5996,3.5996,3.5996,3.5996,3.5996,3.5995,3.6001,3.5996,3.5996,3.5996,3.663,3.7476,3.8413,3.939,4.0267,4.099,4.1097,4.0818,4.002,3.9142,3.828,3.7402,3.6523,3.5994,3.5994,3.5991,3.5994,3.5996,3.5994,3.6035,3.6113,3.6875,3.7707,3.859,3.9262,3.9986,4.0787,4.0668,4.0588,4.0588,4.0607,4.0607,4.0607,4.0607,4.0607,4.0607,4.0654,4.0733,4.079,4.079,4.079,4.079,4.079,4.079,4.079,4.079,4.079,4.079,5.0086,5.0548,5.0817,5.0945,5.0979,5.0823,5.0386,4.9881,4.9148,4.802,4.8099,4.7855,4.6817,4.6778,4.668,4.6329,4.629,4.6306,4.63,4.63,4.63,4.63,4.63,4.63,4.63,4.5884,4.5021,4.3704,4.3266,4.2212,4.0581,4.0932,4.1381,4.1869,4.1322,4.1381,4.1849,4.1322,4.1094,4.106,4.0576,4.0388,4.0234,3.8867,3.8125,3.7715,3.6836,3.6309,3.5996,3.5996,3.5996,3.5996,3.5996,3.5996,3.5996,3.5996,3.5996,3.5996,3.5996,3.5996,3.5996,3.5996,3.5994,3.6005,3.5994,3.5999,3.6003,3.5994,3.6682,3.7563,3.8441,3.9301,4.016,4.096,4.1094,4.0815,3.9956,3.9117,3.8277,3.7399,3.654,3.5991,3.5991,3.5991,3.5988,3.5939,3.5979,3.601,3.5994,3.6326,3.7147,3.8518,3.8764,3.9521,4.0848,4.0764,4.0713,4.0713,4.0713,4.0713,4.0713,4.0713,4.0713,4.0713,4.0746,4.0778,4.079,4.079,4.079,4.079,4.079,4.079,4.079,4.079,4.079,4.079,5.0529,5.0702,5.074,5.0808,5.0841,5.0662,5.0143,4.9323,4.8438,4.7579,4.7894,4.7645,4.6195,4.6123,4.6181,4.6181,4.6181,4.6206,4.624,4.624,4.6269,4.63,4.63,4.6183,4.5929,4.5567,4.4699,4.3298,4.3217,4.2456,4.1074,4.1358,4.1947,4.2747,4.1869,4.181,4.2337,4.1479,4.0952,4.0678,4.0115,3.9754,3.9354,3.787,3.7304,3.7187,3.6308,3.5996,3.5996,3.5996,3.5996,3.5995,3.5995,3.5995,3.5996,3.5996,3.5996,3.5996,3.5996,3.5995,3.5995,3.5995,3.5991,3.5999,3.5994,3.6001,3.6005,3.5994,3.6696,3.7575,3.8436,3.9097,3.9878,4.0932,4.1108,4.0795,3.9917,3.9117,3.8277,3.7373,3.6492,3.5965,3.5978,3.5978,3.5951,3.5899,3.5935,3.5974,3.6005,3.6007,3.6796,3.8514,3.8477,3.921,4.084,4.0823,4.0796,4.079,4.079,4.079,4.079,4.079,4.079,4.079,4.079,4.0803,4.0808,4.0808,4.082,4.0831,4.0831,4.0831,4.0831,4.0831,4.0831,4.0831,5.0529,5.0702,5.0683,5.0702,5.0702,5.0702,5.0702,4.9952,4.9067,4.8202,4.7472,4.6745,4.5986,4.591,4.591,4.591,4.591,4.5949,4.6098,4.6098,4.615,4.63,4.63,4.5909,4.5031,4.4172,4.3275,4.2325,4.2377,4.1924,4.1013,4.1948,4.2845,4.3645,4.2767,4.2396,4.2337,4.1479,4.06,3.9819,3.9878,3.937,3.8514,3.7649,3.73,3.7183,3.6304,3.5991,3.5991,3.5991,3.5991,3.6009,3.5999,3.6009,3.5996,3.5993,3.5995,3.5996,3.5993,3.6003,3.5996,3.6009,3.5991,3.6009,3.5996,3.5994,3.5994,3.5991,3.6696,3.7575,3.8436,3.8612,3.9159,4.0834,4.1108,4.0795,3.9917,3.9117,3.8255,3.7316,3.6434,3.5899,3.5894,3.5889,3.5889,3.5908,3.5895,3.5935,3.5991,3.5994,3.6773,3.8446,3.8506,3.9247,4.0788,4.0791,4.0792,4.079,4.079,4.079,4.079,4.079,4.079,4.079,4.079,4.0788,4.0807,4.0807,4.0839,4.0907,4.0907,4.0907,4.0907,4.0907,4.0907,4.0907,5.0529,5.0702,5.0702,5.0702,5.0702,5.0298,4.9106,4.8682,4.8009,4.6586,4.6196,4.5973,4.5712,4.5828,4.5899,4.5899,4.5899,4.592,4.5949,4.5949,4.576,4.5306,4.5273,4.4899,4.4133,4.3753,4.3156,4.2305,4.2233,4.1785,4.1013,4.1304,4.1939,4.2786,4.1908,4.1849,4.2298,4.0834,4.0054,3.9702,3.859,3.7965,3.7614,3.6741,3.6409,3.637,3.6096,3.5999,3.5999,3.5999,3.5999,3.5999,3.5994,3.5999,3.6005,3.601,3.6009,3.6005,3.601,3.6003,3.5994,3.5999,3.5999,3.5999,3.5994,3.6462,3.6891,3.6891,3.7575,3.8434,3.9273,3.9429,3.978,4.0912,4.1108,4.06,3.9175,3.8765,3.8043,3.6554,3.6141,3.5962,3.5978,3.5978,3.5947,3.5894,3.5895,3.5908,3.5935,3.6534,3.7372,3.8476,3.9076,3.9887,4.0929,4.0887,4.0867,4.0858,4.0283,3.9971,4.0009,4.0552,4.0826,4.0877,4.0877,4.0868,4.0859,4.0859,4.0519,4.0072,4.0674,4.0538,4.0092,4.0674,4.0907,4.0907,5.0587,5.0702,5.0587,5.026,5.0202,4.9721,4.8317,4.7836,4.7278,4.6203,4.578,4.5568,4.5568,4.5669,4.5764,4.5796,4.5796,4.5803,4.5852,4.553,4.516,4.4779,4.4409,4.3902,4.3192,4.3083,4.2617,4.1731,4.1966,4.2005,4.1906,4.1955,4.246,4.3251,4.2096,4.1888,4.2298,4.0542,3.9449,3.8765,3.7711,3.7106,3.6755,3.6208,3.5991,3.5991,3.5991,3.5991,3.5991,3.5991,3.5991,3.5991,3.5991,3.5991,3.5994,3.6003,3.5999,3.5994,3.6003,3.5999,3.5991,3.5991,3.5991,3.6088,3.6404,3.7165,3.7789,3.7789,3.8453,3.9195,3.9702,3.98,4.0093,4.0952,4.1108,4.062,3.9247,3.8779,3.8147,3.7035,3.6601,3.6402,3.6416,3.6402,3.6255,3.5898,3.5894,3.5909,3.5899,3.677,3.7656,3.851,3.9355,4.0191,4.098,4.0959,4.0928,4.0885,4.0345,3.9907,3.9636,4.0451,4.0859,4.0907,4.0907,4.0722,4.0449,4.0449,3.9952,3.9268,4.0143,4.0143,3.9774,4.0649,4.098,4.098,5.0702,5.0702,5.0433,4.9625,4.9433,4.9106,4.824,4.7432,4.6856,4.6724,4.5994,4.5495,4.5495,4.5495,4.5513,4.5586,4.5528,4.5594,4.5766,4.4868,4.4382,4.4588,4.3684,4.2869,4.2195,4.2195,4.1731,4.0791,4.1528,4.2354,4.3219,4.3354,4.3799,4.4481,4.2908,4.222,4.2103,4.0366,3.8726,3.7282,3.7223,3.6716,3.5991,3.5991,3.5991,3.5991,3.5991,3.5991,3.5991,3.5991,3.5991,3.5991,3.5991,3.5991,3.5991,3.5991,3.5991,3.5991,3.5991,3.5991,3.5991,3.5991,3.5991,3.6228,3.7106,3.7965,3.8612,3.8671,3.9331,3.9897,3.9894,3.9894,4.0148,4.089,4.1007,4.0672,3.9754,3.8911,3.8385,3.8325,3.7552,3.7031,3.7097,3.7043,3.6681,3.5865,3.5853,3.5897,3.5905,3.6718,3.7613,3.857,3.9445,4.0253,4.0994,4.0945,4.0855,4.074,4.0788,4.0383,3.9645,4.0499,4.0917,4.0917,4.0917,4.0496,3.9789,3.9731,3.9266,3.8675,3.9474,3.9844,4.0,4.0799,4.1149,4.1188,5.0702,5.0702,5.0625,5.0433,4.9837,4.9106,4.824,4.7432,4.6645,4.5898,4.5629,4.5495,4.5419,4.5419,4.5419,4.5438,4.4935,4.4891,4.5596,4.4196,4.3378,4.346,4.2634,4.1834,4.1102,4.1082,4.0945,4.0636,4.0781,4.1055,4.1412,4.1459,4.1656,4.1937,4.089,4.0424,4.0307,3.8609,3.7653,3.7243,3.6579,3.6189,3.5991,3.5991,3.5991,3.5991,3.5991,3.5991,3.5991,3.5991,3.5991,3.5991,3.5991,3.5991,3.5991,3.5991,3.5991,3.5991,3.5991,3.5991,3.5991,3.5991,3.5991,3.6228,3.7106,3.7965,3.8765,3.939,4.019,4.0792,4.0793,4.0788,4.0647,4.0184,4.0106,3.9574,3.8024,3.7634,3.7492,3.75,3.6715,3.6462,3.7112,3.6573,3.6099,3.5891,3.5885,3.5892,3.5905,3.6677,3.7551,3.8491,4.0001,4.0879,4.1074,4.0429,3.971,3.8998,3.9668,3.9871,3.9704,4.0571,4.0996,4.1045,4.1045,4.0935,4.0727,4.0046,3.9663,3.9513,3.9727,4.0214,4.0818,4.1025,4.1518,4.2006,5.0702,5.0682,5.0528,5.0124,4.9336,4.8452,4.7588,4.6743,4.6014,4.5515,4.5458,4.5438,4.54,4.54,4.54,4.54,4.5035,4.4842,4.4956,4.3673,4.2768,4.2464,4.1585,4.0969,4.0616,4.0609,4.0604,4.0604,4.0534,4.0564,4.066,4.0726,4.1042,4.1493,4.0287,3.9763,3.9683,3.8004,3.7067,3.6657,3.6189,3.5991,3.5991,3.5991,3.5991,3.5991,3.5991,3.5991,3.5991,3.5991,3.5991,3.5991,3.5991,3.5991,3.5991,3.5991,3.5991,3.5991,3.5991,3.6286,3.6599,3.6599,3.6599,3.6811,3.7659,3.8518,3.9376,4.0184,4.073,4.1057,4.1056,4.1056,4.0778,3.9947,3.9792,3.9182,3.7391,3.7157,3.7151,3.715,3.6742,3.6625,3.7111,3.6735,3.6281,3.5877,3.5872,3.5891,3.5857,3.6654,3.7352,3.7898,3.9209,3.9906,3.9917,3.9447,3.8748,3.787,3.872,3.8949,3.8592,3.9455,3.9877,3.9908,3.9908,3.9914,3.9861,3.9388,3.9218,3.9282,4.0081,4.0432,4.0608,4.1393,4.1749,4.173,5.0683,5.0623,5.0352,4.9603,4.8642,4.7739,4.7011,4.6033,4.54,4.5399,4.5398,4.5398,4.5398,4.5379,4.538,4.5381,4.5381,4.5036,4.425,4.3216,4.2335,4.1701,4.0803,4.0356,4.0472,4.0468,4.0501,4.0549,4.0508,4.0495,4.0519,4.0629,4.1114,4.1839,4.0356,3.9658,3.9497,3.7943,3.6794,3.5991,3.5991,3.5988,3.5988,3.5985,3.5985,3.5985,3.5985,3.5988,3.5988,3.5985,3.5988,3.5988,3.5985,3.5985,3.5985,3.5985,3.5985,3.5985,3.5991,3.6635,3.7318,3.7451,3.7487,3.7659,3.8341,3.9175,3.997,4.0688,4.0916,4.1007,4.1007,4.0883,4.0533,3.9721,3.9487,3.8812,3.7143,3.6903,3.6946,3.7089,3.6984,3.6964,3.7081,3.6977,3.6589,3.5857,3.585,3.5857,3.5799,3.6498,3.6938,3.6982,3.7968,3.8422,3.8291,3.8302,3.793,3.7218,3.7948,3.8059,3.7609,3.8224,3.8561,3.8697,3.8561,3.8493,3.8491,3.8365,3.8389,3.8651,4.0118,4.0489,4.0368,4.1839,4.1999,4.1456,5.0623,5.0542,5.0483,5.0349,4.9024,4.795,4.7816,4.6416,4.54,4.5399,4.5398,4.5378,4.5317,4.5317,4.5317,4.5317,4.5338,4.4995,4.425,4.268,4.1742,4.1608,4.0768,4.031,4.0327,4.0323,4.0341,4.0358,4.0396,4.0457,4.0577,4.0623,4.075,4.0956,4.0084,3.9298,3.8569,3.7679,3.6794,3.5991,3.5939,3.5912,3.5927,3.5929,3.5924,3.5924,3.5924,3.5914,3.5927,3.5929,3.5914,3.5927,3.5929,3.5924,3.5924,3.5924,3.5924,3.5929,3.5985,3.6586,3.739,3.8127,3.8311,3.835,3.8466,3.9129,3.9772,3.9947,4.0526,4.1,4.0991,4.04,3.9614,3.8766,3.8,3.7156,3.6137,3.6001,3.6273,3.7003,3.6459,3.6284,3.7023,3.642,3.5954,3.5818,3.5799,3.5807,3.5799,3.5935,3.6012,3.6029,3.7583,3.8085,3.7409,3.7398,3.7333,3.7207,3.7338,3.8099,3.9375,3.877,3.8907,3.955,3.8829,3.8498,3.8444,3.7702,3.7839,3.8524,3.873,4.0097,4.1947,4.2226,4.269,4.31,5.0603,5.0521,5.0457,5.0457,4.9037,4.7905,4.7905,4.6451,4.536,4.5338,4.5338,4.5338,4.5297,4.5297,4.5297,4.5297,4.4876,4.4266,4.3503,4.268,4.1839,4.094,4.0501,4.031,4.031,4.031,4.029,4.0307,4.0325,4.0394,4.0485,4.0485,4.0535,4.0595,3.9859,3.9357,3.8968,3.7756,3.7038,3.6657,3.616,3.5935,3.5908,3.5895,3.5904,3.5908,3.5908,3.5899,3.5904,3.5894,3.5899,3.5904,3.5894,3.5908,3.5908,3.5908,3.622,3.6615,3.664,3.7259,3.8004,3.8402,3.8825,3.9156,3.9156,3.9792,4.0395,4.0392,4.0696,4.0941,4.0943,4.0632,3.9915,3.8568,3.8015,3.7277,3.5939,3.5756,3.5891,3.6308,3.6026,3.5957,3.6365,3.6043,3.5799,3.5799,3.5799,3.5799,3.5799,3.5799,3.5799,3.5799,3.6573,3.6829,3.6455,3.6479,3.6711,3.7145,3.7182,3.7851,3.902,3.8181,3.826,3.9002,3.8163,3.8301,3.9119,3.8709,3.9061,3.988,4.0322,4.0949,4.1656,4.2134,4.2265,4.2145,5.0562,5.0303,5.0103,5.0103,4.8662,4.7513,4.7513,4.6252,4.5297,4.5297,4.5297,4.5297,4.5297,4.5297,4.5297,4.5297,4.4494,4.3673,4.2851,4.2603,4.1839,4.0368,4.031,4.031,4.031,4.031,4.031,4.0308,4.0308,4.0326,4.0379,4.0379,4.0425,4.0448,3.9902,3.9624,3.9463,3.8046,3.7381,3.7191,3.6329,3.5947,3.5909,3.5885,3.5889,3.5885,3.5885,3.5891,3.5897,3.5891,3.5891,3.5897,3.5891,3.6021,3.6177,3.6177,3.6936,3.7774,3.7786,3.8117,3.8579,3.8961,3.9526,3.9928,3.9743,4.0357,4.0894,4.0655,4.0762,4.0898,4.0869,4.0714,4.0092,3.8559,3.8132,3.7463,3.5922,3.5708,3.5708,3.5708,3.5747,3.5775,3.5775,3.5793,3.5782,3.5782,3.5782,3.5782,3.581,3.581,3.581,3.5799,3.5799,3.5799,3.5799,3.5859,3.6292,3.7094,3.7145,3.7711,3.8678,3.8068,3.8222,3.8944,3.7948,3.8333,3.9665,3.9263,3.9614,4.0508,4.1554,4.1577,4.1152,4.2412,4.2193,4.1306,5.0412,4.9755,4.9217,4.9217,4.7742,4.6596,4.6596,4.5851,4.5297,4.5297,4.5297,4.5297,4.5297,4.5297,4.5297,4.5297,4.4494,4.3673,4.2851,4.203,4.1208,4.0348,4.031,4.031,4.031,4.031,4.031,4.031,4.031,4.0291,4.0307,4.0307,4.0342,4.0413,4.0414,4.0056,3.9359,3.8557,3.7831,3.7122,3.6255,3.5892,3.5885,3.5823,3.5807,3.5807,3.5807,3.585,3.5898,3.5842,3.585,3.5898,3.5842,3.6351,3.7012,3.7012,3.8197,3.9527,3.9529,3.8972,3.879,4.0343,4.0761,4.0625,3.9858,4.0325,4.0674,3.9869,4.0344,4.0877,4.0818,4.0186,3.9392,3.8442,3.7627,3.6775,3.5825,3.5708,3.5708,3.5708,3.5708,3.5708,3.5708,3.5708,3.5708,3.5708,3.5708,3.5718,3.5803,3.5803,3.5793,3.5791,3.5799,3.5799,3.5799,3.5799,3.6234,3.7097,3.7102,3.7986,3.9602,3.954,3.9985,4.0711,3.9091,3.8896,3.9571,3.796,3.7804,3.8747,4.0377,4.0996,4.1299,4.3713,4.3549,4.2228,5.0412,4.9698,4.9098,4.9098,4.7665,4.65,4.65,4.5812,4.5297,4.5297,4.5297,4.5297,4.5297,4.5297,4.5086,4.4551,4.373,4.2908,4.2049,4.1227,4.0616,4.031,4.031,4.031,4.031,4.031,4.031,4.031,4.031,4.0291,4.0291,4.0291,4.0309,4.0346,4.0406,4.0318,3.9998,3.8771,3.81,3.7766,3.645,3.5898,3.5898,3.5864,3.5842,3.5799,3.5799,3.5826,3.592,3.6429,3.6254,3.5939,3.644,3.6459,3.6518,3.7586,3.7966,3.8374,4.0014,3.9829,3.9352,3.9937,4.0092,4.0141,4.0334,4.0625,4.0742,4.0421,4.0615,4.0837,4.0807,4.0128,3.9314,3.844,3.7568,3.6705,3.5813,3.5697,3.5697,3.5697,3.5688,3.5698,3.5698,3.5699,3.5708,3.5708,3.5708,3.5708,3.5737,3.5737,3.5999,3.6522,3.6542,3.656,3.6615,3.7139,3.7855,3.8704,3.8704,3.9322,4.0434,3.9928,4.0142,4.0863,3.9733,4.0011,4.1155,3.9949,3.9968,4.0816,4.147,4.1723,4.1924,4.3442,4.3569,4.2986,5.031,4.9465,4.8697,4.8697,4.7264,4.6118,4.6118,4.564,4.5297,4.5297,4.5297,4.5297,4.5297,4.5297,4.5048,4.4456,4.3424,4.2545,4.1953,4.0903,4.031,4.031,4.031,4.031,4.031,4.031,4.031,4.031,4.031,4.031,4.031,4.031,4.031,4.031,4.0362,4.0271,4.0,3.8672,3.8014,3.7732,3.6382,3.5852,3.5864,3.5864,3.5842,3.5799,3.5799,3.5974,3.6265,3.6576,3.6479,3.6265,3.6595,3.6479,3.644,3.7644,3.7918,3.8084,3.9355,3.9685,3.9714,3.9927,3.9791,3.9752,4.0294,4.0206,4.0012,4.0001,4.0214,4.0311,4.0029,3.9758,3.9196,3.8039,3.7362,3.6665,3.5831,3.5704,3.5704,3.5704,3.5706,3.5697,3.5697,3.5688,3.5698,3.5698,3.5698,3.5824,3.6076,3.6106,3.6523,3.7375,3.7656,3.7831,3.787,3.8209,3.882,3.9674,3.9694,4.013,4.0888,4.0616,4.0946,4.1665,4.0849,4.1451,4.2928,4.1772,4.1811,4.2607,4.2888,4.283,4.2684,4.3557,4.3518,4.2975,5.0149,4.8965,4.7799,4.7799,4.6405,4.5297,4.5297,4.5297,4.5297,4.5297,4.5297,4.5297,4.5297,4.5297,4.5277,4.5277,4.3749,4.2794,4.2775,4.1227,4.031,4.031,4.031,4.031,4.031,4.031,4.031,4.031,4.031,4.031,4.031,4.031,4.031,4.031,4.031,3.9886,3.9154,3.8293,3.7519,3.6831,3.6037,3.5757,3.5791,3.5799,3.5799,3.5799,3.5799,3.6362,3.6964,3.611,3.6401,3.6945,3.609,3.6401,3.71,3.712,3.8287,3.9219,3.7569,3.8326,3.9779,4.0574,4.0167,3.9596,3.9596,3.8926,3.8296,3.8294,3.8922,3.922,3.8353,3.8895,3.8914,3.7174,3.6884,3.6613,3.58,3.5704,3.5704,3.5704,3.5704,3.5704,3.5704,3.5704,3.5704,3.5704,3.5704,3.6082,3.6936,3.7006,3.7404,3.8287,3.9159,3.9605,3.9624,3.8753,3.8753,3.9607,3.9685,4.013,4.0927,4.1801,4.2675,4.3433,4.2578,4.318,4.4656,4.2916,4.2673,4.3497,4.4366,4.418,4.3509,4.4393,4.3618,4.2125,4.9519,4.8563,4.7627,4.6997,4.6003,4.5297,4.5297,4.5297,4.5297,4.5297,4.5297,4.5297,4.5297,4.5297,4.4819,4.3654,4.308,4.2297,4.1132,4.0578,4.031,4.031,4.031,4.031,4.031,4.031,4.031,4.031,4.031,4.031,4.031,4.031,4.031,4.031,4.031,4.0176,3.9924,3.9073,3.8304,3.753,3.6822,3.6221,3.5728,3.5773,3.5801,3.5793,3.5793,3.5968,3.6336,3.725,3.6939,3.6239,3.6542,3.6813,3.7143,3.7764,3.786,3.7917,3.8595,3.8689,3.8698,3.8972,3.8836,3.8612,3.862,3.8415,3.8222,3.823,3.8423,3.852,3.8257,3.7909,3.7502,3.698,3.6439,3.5974,3.5723,3.5704,3.5704,3.5704,3.5704,3.5704,3.5704,3.5704,3.5704,3.5704,3.5704,3.6052,3.6895,3.6925,3.7602,3.9104,3.9395,3.982,4.0428,4.0176,4.0178,4.043,4.046,4.0595,4.0848,4.172,4.1934,4.1662,4.2613,4.333,4.3788,4.3261,4.3183,4.3493,4.4354,4.418,4.3579,4.5013,4.4858,4.385,4.9117,4.8391,4.7532,4.6653,4.5831,4.5297,4.5297,4.5297,4.5297,4.5297,4.5297,4.5297,4.5297,4.4991,4.438,4.3367,4.2679,4.1705,4.0311,4.0253,4.0444,4.0769,4.0482,4.031,4.031,4.031,4.031,4.031,4.031,4.031,4.031,4.031,4.031,4.031,4.031,4.0119,3.9756,3.9273,3.8402,3.7352,3.6954,3.6358,3.5688,3.5728,3.5747,3.5803,3.5775,3.6144,3.6792,3.754,3.7114,3.6309,3.6445,3.6706,3.7036,3.722,3.7374,3.7547,3.7896,3.8106,3.8044,3.7428,3.7467,3.7699,3.7696,3.7444,3.7212,3.7212,3.7735,3.8005,3.7328,3.7328,3.7193,3.6535,3.6013,3.5704,3.5704,3.5704,3.5704,3.5704,3.5704,3.5704,3.5704,3.5704,3.5704,3.5704,3.5704,3.6207,3.7348,3.7406,3.8218,3.9959,3.9997,4.0268,4.079,4.0788,4.0792,4.0804,4.0807,4.0807,4.0826,4.135,4.1485,4.1369,4.2435,4.3288,4.3908,4.3884,4.3865,4.3923,4.4453,4.4124,4.3485,4.4492,4.457,4.4027,4.8831,4.8277,4.7417,4.6538,4.5793,4.5297,4.5297,4.5297,4.5297,4.5297,4.5297,4.5258,4.5182,4.4454,4.392,4.3767,4.2297,4.1016,4.0134,4.0253,4.0673,4.1342,4.0731,4.0349,4.031,4.031,4.031,4.031,4.031,4.031,4.031,4.031,4.031,4.031,4.0291,3.9833,3.9088,3.9088,3.8204,3.6784,3.6742,3.6331,3.5764,3.5646,3.5669,3.5785,3.5796,3.664,3.7675,3.7127,3.7112,3.7151,3.6279,3.6561,3.7075,3.6261,3.7015,3.7768,3.6317,3.6925,3.7638,3.6168,3.6303,3.6787,3.6787,3.6226,3.5704,3.5704,3.6903,3.7522,3.5974,3.6942,3.7483,3.5955,3.5704,3.5704,3.5704,3.5704,3.5704,3.5704,3.5704,3.5704,3.5704,3.5704,3.5704,3.5704,3.5762,3.6516,3.8121,3.8276,3.9088,4.0752,4.079,4.079,4.079,4.079,4.0803,4.0788,4.0804,4.0796,4.0796,4.0873,4.1311,4.1989,4.2144,4.3055,4.4459,4.4479,4.4389,4.4273,4.4343,4.3846,4.3092,4.3247,4.3247,4.3053,4.8181,4.7379,4.6519,4.5698,4.5411,4.5297,4.5297,4.5297,4.5297,4.5297,4.5213,4.49,4.4271,4.3986,4.3319,4.2004,4.0995,4.0267,3.9973,4.0561,4.0777,4.0422,4.0841,4.0843,4.031,4.031,4.031,4.031,4.031,4.031,4.031,4.031,4.031,4.0291,4.0195,4.0041,3.9851,3.9851,3.9261,3.8288,3.7811,3.7117,3.6342,3.5813,3.5626,3.5731,3.6279,3.626,3.6022,3.6407,3.7969,3.9601,3.8719,3.8666,3.8918,3.8725,3.7959,3.7262,3.7572,3.6961,3.6303,3.6574,3.6303,3.5955,3.5955,3.582,3.5704,3.5704,3.5994,3.6129,3.5762,3.5994,3.611,3.5762,3.5704,3.5704,3.5704,3.5704,3.5704,3.5704,3.5704,3.5704,3.5704,3.5704,3.5704,3.5704,3.6284,3.7096,3.8141,3.8856,3.9688,4.0771,4.079,4.079,4.079,4.079,4.0803,4.0803,4.0796,4.0796,4.0815,4.1454,4.1492,4.1144,4.2479,4.2866,4.2634,4.3318,4.2815,4.1693,4.2318,4.2067,4.1506,4.2821,4.2879,4.2164,4.736,4.6806,4.6252,4.543,4.5297,4.5297,4.5297,4.5297,4.5297,4.5297,4.517,4.4779,4.398,4.3441,4.2424,4.0691,4.0222,3.9954,3.9804,4.0265,4.0558,4.0623,4.0642,4.0665,4.0768,4.0327,4.0137,4.0196,4.0137,4.0117,4.0117,4.0176,4.0196,4.0215,4.0137,4.0117,4.0058,3.9618,3.8933,3.8079,3.7374,3.6621,3.5844,3.5475,3.5595,3.5974,3.5955,3.617,3.6485,3.6743,3.8113,3.9591,3.8712,3.8858,3.9179,3.835,3.8131,3.7967,3.7212,3.6651,3.6284,3.6323,3.6013,3.5704,3.5704,3.5994,3.6265,3.6265,3.6593,3.6767,3.6342,3.6265,3.6149,3.5762,3.5704,3.5704,3.5704,3.5704,3.5704,3.5704,3.5704,3.5704,3.5704,3.5704,3.5858,3.6245,3.6651,3.7464,3.874,3.9243,3.9913,4.0771,4.1158,4.1177,4.079,4.1177,4.1177,4.079,4.079,4.079,4.081,4.1235,4.1197,4.0848,4.1719,4.2067,4.2048,4.2492,4.1932,4.0868,4.168,4.1506,4.0945,4.2222,4.2647,4.2667,4.6653,4.6385,4.608,4.5411,4.5297,4.5297,4.5297,4.5297,4.5297,4.5297,4.5036,4.4547,4.3729,4.2629,4.134,3.983,3.9804,3.986,3.9878,4.0008,4.0397,4.112,4.0476,4.0388,4.1047,4.0274,3.9933,4.0117,3.9973,3.9889,3.9911,4.0015,4.0076,4.0057,4.0036,4.0036,3.9979,3.906,3.8241,3.7503,3.6576,3.5837,3.528,3.5073,3.5486,3.6105,3.5654,3.6554,3.789,3.7578,3.8172,3.8937,3.8213,3.8625,3.908,3.764,3.8243,3.891,3.6639,3.6504,3.6832,3.6057,3.596,3.6037,3.5925,3.6419,3.6903,3.6903,3.7472,3.7762,3.7027,3.6775,3.6466,3.5789,3.5673,3.5684,3.5684,3.5684,3.5742,3.5897,3.6033,3.6071,3.5916,3.6033,3.64,3.7077,3.727,3.7986,3.9429,3.9777,4.0249,4.0984,4.1796,4.1835,4.1003,4.1661,4.1661,4.1003,4.1003,4.0926,4.079,4.0945,4.0926,4.079,4.079,4.1177,4.1796,4.1796,4.1313,4.0636,4.1313,4.1255,4.0906,4.1874,4.286,4.3885,4.6519,4.5946,4.543,4.5316,4.5297,4.5297,4.5297,4.5297,4.5297,4.5297,4.4475,4.3559,4.2705,4.1075,3.9962,3.9712,3.9717,3.9991,4.0597,4.0679,4.0785,4.1019,4.0906,4.0613,4.0103,3.986,3.9848,4.0117,3.9973,3.9889,3.9889,3.9911,3.9933,3.9911,3.9804,3.9739,3.9683,3.889,3.8452,3.8247,3.6781,3.614,3.597,3.5266,3.5073,3.5377,3.6634,3.8064,3.9204,3.8423,3.8867,3.9726,3.9631,3.9814,4.0022,3.9774,3.9371,3.8739,3.7647,3.7419,3.7357,3.6719,3.7093,3.7453,3.6863,3.6822,3.6903,3.6903,3.6996,3.7042,3.6926,3.6284,3.5751,3.5635,3.5608,3.5612,3.5612,3.5654,3.5955,3.6651,3.7406,3.758,3.6806,3.7425,3.7909,3.8025,3.8721,3.9255,3.9487,4.0868,4.1719,4.1835,4.2667,4.2705,4.1854,4.1951,4.1951,4.1835,4.1835,4.1467,4.081,4.1525,4.1448,4.079,4.079,4.0848,4.0965,4.0965,4.0442,3.97,3.9797,4.023,4.0984,4.255,4.4117,4.5278,4.5414,4.5035,4.4814,4.4905,4.4905,4.4953,4.5061,4.508,4.508,4.508,4.4218,4.3264,4.2375,4.0707,3.9637,3.9637,3.9637,3.9782,4.0103,4.0121,4.0146,4.022,4.022,4.008,3.9781,3.9708,3.9731,3.987,3.9777,3.9727,3.9727,3.9758,3.9781,3.9781,3.9717,3.9693,3.9637,3.8757,3.8395,3.8263,3.6669,3.6295,3.6618,3.5809,3.5773,3.6264,3.6977,3.7943,3.8826,3.8432,3.8936,3.9731,3.9731,3.987,3.9925,3.9409,3.9393,3.928,3.7871,3.7852,3.8023,3.7292,3.7366,3.7572,3.7386,3.7733,3.7973,3.7643,3.761,3.761,3.7585,3.6491,3.5591,3.5591,3.5604,3.5751,3.6202,3.5917,3.5774,3.6141,3.7371,3.7866,3.6977,3.8129,3.9127,3.9611,3.9997,4.0616,4.1564,4.1854,4.2222,4.2705,4.3576,4.3614,4.2725,4.3208,4.3208,4.2725,4.3227,4.3015,4.2183,4.2067,4.2067,4.2164,4.168,4.1757,4.2164,4.1661,4.0694,3.9545,4.0048,4.0732,4.168,4.3401,4.4485,4.5084]},{"header":{"parameterUnit":"m.s-1","parameterCategory":1,"la1":30.6,"la2":28.766,"lo1":-90.7593,"lo2":-88.6598,"dy":0.0162,"dx":0.0183,"nx":116,"ny":114,"refTime":"2023-10-04T06:00:00:Z","depth":0,"parameterNumber":3,"parameterNumberName":"V-component_of_WINDS"},"data":[0.0,0.0,0.0,0.0,0.0,0.0,0.0,0.0,0.0,0.0,0.0,0.0,0.0,0.0,0.0,0.0,0.0,0.0,0.0,0.0,0.0,0.0,0.0,0.0,0.0,0.0,0.0,0.0,0.0,0.0,0.0,0.0,0.0,0.0,0.0,0.0,0.0,0.0,0.0,0.0,0.0,0.0,0.0,0.0,0.0,0.0,0.0,0.0,0.0,0.0,0.0,0.0,0.0,0.0,0.0,0.0,0.0,0.0,0.0,0.0,0.0,0.0,0.0,0.0,0.0,0.0,0.0,0.0,0.0,0.0,0.0,0.0,0.0,0.0,0.0,0.0,0.0,0.0,0.0,0.0,0.0,0.0,0.0,0.0,0.0,0.0,0.0,0.0,0.0,0.0,0.0,0.0,0.0,0.0,0.0,0.0,0.0,0.0,0.0,0.0,0.0,0.0,0.0,0.0,0.0,0.0,0.0,0.0,0.0,0.0,0.0,0.0,0.0,0.0,0.0,0.0,0.0,0.0,0.0,0.0,0.0,0.0,0.0,0.0,0.0,0.0,0.0,0.0,0.0,0.0,0.0,0.0,0.0,0.0,0.0,0.0,0.0,0.0,0.0,0.0,0.0,0.0,0.0,0.0,0.0,0.0,0.0,0.0,0.0,0.0,0.0,0.0,0.0,0.0,0.0,0.0,0.0,0.0,0.0,0.0,0.0,0.0,0.0,0.0,0.0,0.0,0.0,0.0,0.0,0.0,0.0,0.0,0.0,0.0,0.0,0.0,0.0,0.0,0.0,0.0,0.0,0.0,0.0,0.0,0.0,0.0,0.0,0.0,0.0,0.0,0.0,0.0,0.0,0.0,0.0,0.0,0.0,0.0,0.0,0.0,0.0,0.0,0.0,0.0,0.0,0.0,0.0,0.0,0.0,0.0,0.0,0.0,0.0,0.0,0.0,0.0,0.0,0.0,0.0,0.0,0.0,0.0,0.0,0.0,0.0,0.0,0.0,0.0,0.0,0.0,0.0,0.0,0.0,0.0,0.0,0.0,0.0,0.0,0.0,0.0,0.0,0.0,0.0,0.0,0.0,0.0,0.0,0.0,0.0,0.0,0.0,0.0,0.0,0.0,0.0,0.0,0.0,0.0,0.0,0.0,0.0,0.0,0.0,0.0,0.0,0.0,0.0,0.0,0.0,0.0,0.0,0.0,0.0,0.0,0.0,0.0,0.0,0.0,0.0,0.0,0.0,0.0,0.0,0.0,0.0,0.0,0.0,0.0,0.0,0.0,0.0,0.0,0.0,0.0,0.0,0.0,0.0,0.0,0.0,0.0,0.0,0.0,0.0,0.0,0.0,0.0,0.0,0.0,0.0,0.0,0.0,0.0,0.0,0.0,0.0,0.0,0.0,0.0,0.0,0.0,0.0,0.0,0.0,0.0,0.0,0.0,0.0,0.0,0.0,0.0,0.0,0.0,0.0,0.0,0.0,0.0,0.0,0.0,0.0,0.0,0.0,0.0,0.0,0.0,0.0,0.0,0.0,0.0,0.0,0.0,0.0,0.0,0.0,0.0,0.0,0.0,0.0,0.0,0.0,0.0,0.0,0.0,0.0,0.0,0.0,0.0,0.0,0.0,0.0,0.0,0.0,0.0,0.0,0.0,0.0,0.0,0.0,0.0,0.0,0.0,0.0,0.0,0.0,0.0,0.0,0.0,0.0,0.0,0.0,0.0,0.0,0.0,0.0,0.0,0.0,0.0,0.0,0.0,0.0,0.0,0.0,0.0,0.0,0.0,0.0,0.0,0.0,0.0,0.0,0.0,0.0,0.0,0.0,0.0,0.0,0.0,0.0,0.0,0.0,0.0,0.0,0.0,0.0,0.0,0.0,0.0,0.0,0.0,0.0,0.0,0.0,0.0,0.0,0.0,0.0,0.0,0.0,0.0,0.0,0.0,0.0,0.0,0.0,0.0,0.0,0.0,0.0,0.0,0.0,0.0,0.0,0.0,0.0,0.0,0.0,0.0,0.0,0.0,0.0,0.0,0.0,0.0,0.0,0.0,0.0,0.0,0.0,0.0,0.0,0.0,0.0,0.0,0.0,0.0,0.0,0.0,0.0,0.0,0.0,0.0,0.0,0.0,0.0,0.0,0.0,0.0,0.0,0.0,0.0,0.0,0.0,0.0,0.0,0.0,0.0,0.0,0.0,0.0,0.0,0.0,0.0,0.0,0.0,0.0,0.0,0.0,0.0,0.0,0.0,0.0,0.0,0.0,0.0,0.0,0.0,0.0,0.0,0.0,0.0,0.0,0.0,0.0,0.0,0.0,0.0,0.0,0.0,0.0,0.0,0.0,0.0,0.0,0.0,0.0,0.0,0.0,0.0,0.0,0.0,0.0,0.0,0.0,0.0,0.0,0.0,0.0,0.0,0.0,0.0,0.0,0.0,0.0,0.0,0.0,0.0,0.0,0.0,0.0,0.0,0.0,0.0,0.0,0.0,0.0,0.0,0.0,0.0,0.0,0.0,0.0,0.0,0.0,0.0,0.0,0.0,0.0,0.0,0.0,0.0,0.0,0.0,0.0,0.0,0.0,0.0,0.0,0.0,0.0,0.0,0.0,0.0,0.0,0.0,0.0,0.0,0.0,0.0,0.0,0.0,0.0,0.0,0.0,0.0,0.0,0.0,0.0,0.0,0.0,0.0,0.0,0.0,0.0,0.0,0.0,0.0,0.0,0.0,0.0,0.0,0.0,0.0,0.0,0.0,0.0,0.0,0.0,0.0,0.0,0.0,0.0,0.0,0.0,0.0,0.0,0.0,0.0,0.0,0.0,0.0,0.0,0.0,0.0,0.0,0.0,0.0,0.0,0.0,0.0,0.0,0.0,0.0,0.0,0.0,0.0,0.0,0.0,0.0,0.0,0.0,0.0,0.0,0.0,0.0,0.0,0.0,0.0,0.0,0.0,0.0,0.0,0.0,0.0,0.0,0.0,0.0,0.0,0.0,0.0,0.0,0.0,0.0,0.0,0.0,0.0,0.0,0.0,0.0,0.0,0.0,0.0,0.0,0.0,0.0,0.0,0.0,0.0,0.0,0.0,0.0,0.0,0.0,0.0,0.0,0.0,0.0,0.0,0.0,0.0,0.0,0.0,0.0,0.0,0.0,0.0,0.0,0.0,0.0,0.0,0.0,0.0,0.0,0.0,0.0,0.0,0.0,0.0,0.0,0.0,0.0,0.0,0.0,0.0,0.0,0.0,0.0,0.0,0.0,0.0,0.0,0.0,0.0,0.0,0.0,0.0,0.0,0.0,0.0,0.0,0.0,0.0,0.0,0.0,0.0,0.0,0.0,0.0,0.0,0.0,0.0,0.0,0.0,0.0,0.0,0.0,0.0,0.0,0.0,0.0,0.0,0.0,0.0,0.0,0.0,0.0,0.0,0.0,0.0,0.0,0.0,0.0,0.0,0.0,0.0,0.0,0.0,0.0,0.0,0.0,0.0,0.0,0.0,0.0,0.0,0.0,0.0,0.0,0.0,0.0,0.0,0.0,0.0,0.0,0.0,0.0,0.0,0.0,0.0,0.0,0.0,0.0,0.0,0.0,0.0,0.0,0.0,0.0,0.0,0.0,0.0,0.0,0.0,0.0,0.0,0.0,0.0,0.0,0.0,0.0,0.0,0.0,0.0,0.0,0.0,0.0,0.0,0.0,0.0,0.0,0.0,0.0,0.0,0.0,0.0,0.0,0.0,0.0,0.0,0.0,0.0,0.0,0.0,0.0,0.0,0.0,0.0,0.0,0.0,0.0,0.0,0.0,0.0,0.0,0.0,0.0,0.0,0.0,0.0,0.0,0.0,0.0,0.0,0.0,0.0,0.0,0.0,0.0,0.0,0.0,0.0,0.0,0.0,0.0,0.0,0.0,0.0,0.0,0.0,0.0,0.0,0.0,0.0,0.0,0.0,0.0,0.0,0.0,0.0,0.0,0.0,0.0,0.0,0.0,0.0,0.0,0.0,0.0,0.0,0.0,0.0,0.0,0.0,0.0,0.0,0.0,0.0,0.0,0.0,0.0,0.0,0.0,0.0,0.0,0.0,0.0,0.0,0.0,0.0,0.0,0.0,0.0,0.0,0.0,0.0,0.0,0.0,0.0,0.0,0.0,0.0,0.0,0.0,0.0,0.0,0.0,0.0,0.0,0.0,0.0,0.0,0.0,0.0,0.0,0.0,0.0,0.0,0.0,0.0,0.0,0.0,0.0,0.0,0.0,0.0,0.0,0.0,0.0,0.0,0.0,0.0,0.0,0.0,0.0,0.0,0.0,0.0,0.0,0.0,0.0,0.0,0.0,0.0,0.0,0.0,0.0,0.0,0.0,0.0,0.0,0.0,0.0,0.0,0.0,0.0,0.0,0.0,0.0,0.0,0.0,0.0,0.0,0.0,0.0,0.0,0.0,0.0,0.0,0.0,0.0,0.0,0.0,0.0,0.0,0.0,0.0,0.0,0.0,0.0,0.0,0.0,0.0,0.0,0.0,0.0,0.0,0.0,0.0,0.0,0.0,0.0,0.0,0.0,0.0,0.0,0.0,0.0,0.0,0.0,0.0,0.0,0.0,0.0,0.0,0.0,0.0,0.0,0.0,0.0,0.0,0.0,0.0,0.0,0.0,0.0,0.0,0.0,0.0,0.0,0.0,0.0,0.0,0.0,0.0,0.0,0.0,0.0,0.0,0.0,0.0,0.0,0.0,0.0,0.0,0.0,0.0,0.0,0.0,0.0,0.0,0.0,0.0,0.0,0.0,0.0,0.0,0.0,0.0,0.0,0.0,0.0,0.0,0.0,0.0,0.0,0.0,0.0,0.0,0.0,0.0,0.0,0.0,0.0,0.0,0.0,0.0,0.0,0.0,0.0,0.0,0.0,0.0,0.0,0.0,0.0,0.0,0.0,0.0,0.0,0.0,0.0,0.0,0.0,0.0,0.0,0.0,0.0,0.0,0.0,0.0,0.0,0.0,0.0,0.0,0.0,0.0,0.0,0.0,0.0,0.0,0.0,0.0,0.0,0.0,0.0,0.0,0.0,0.0,0.0,0.0,0.0,0.0,0.0,0.0,0.0,0.0,0.0,0.0,0.0,0.0,0.0,0.0,0.0,0.0,0.0,0.0,0.0,0.0,0.0,0.0,0.0,0.0,0.0,0.0,0.0,0.0,0.0,0.0,0.0,0.0,0.0,0.0,0.0,0.0,0.0,0.0,0.0,0.0,0.0,0.0,0.0,0.0,0.0,0.0,0.0,0.0,0.0,0.0,0.0,0.0,0.0,0.0,0.0,0.0,0.0,0.0,0.0,0.0,0.0,0.0,0.0,0.0,0.0,0.0,0.0,0.0,0.0,0.0,0.0,0.0,0.0,0.0,0.0,0.0,0.0,0.0,0.0,0.0,0.0,0.0,0.0,0.0,0.0,0.0,0.0,0.0,0.0,0.0,0.0,0.0,0.0,0.0,0.0,0.0,0.0,0.0,0.0,0.0,0.0,0.0,0.0,0.0,0.0,0.0,0.0,0.0,0.0,0.0,0.0,0.0,0.0,0.0,0.0,0.0,0.0,0.0,0.0,0.0,0.0,0.0,0.0,0.0,0.0,0.0,0.0,0.0,0.0,0.0,0.0,0.0,0.0,0.0,0.0,0.0,0.0,0.0,0.0,0.0,0.0,0.0,0.0,0.0,0.0,0.0,0.0,0.0,0.0,0.0,0.0,0.0,0.0,0.0,0.0,0.0,0.0,0.0,0.0,0.0,0.0,0.0,0.0,0.0,0.0,0.0,0.0,0.0,0.0,0.0,0.0,0.0,0.0,0.0,0.0,0.0,0.0,0.0,0.0,0.0,0.0,0.0,0.0,0.0,0.0,0.0,0.0,0.0,0.0,0.0,0.0,0.0,0.0,0.0,0.0,0.0,0.0,0.0,0.0,0.0,0.0,0.0,0.0,0.0,0.0,0.0,0.0,0.0,0.0,0.0,0.0,0.0,0.0,0.0,0.0,0.0,0.0,0.0,0.0,0.0,0.0,0.0,0.0,0.0,0.0,0.0,0.0,0.0,0.0,0.0,0.0,0.0,0.0,0.0,-0.1496,-0.1507,0.0,0.0,0.0,0.0,0.0,0.0,0.0,0.0,0.0,0.0,0.0,0.0,0.0,0.0,0.0,0.0,0.0,0.0,0.0,0.0,0.0,0.0,0.0,0.0,0.0,0.0,0.0,0.0,0.0,0.0,0.0,0.0,0.0,0.0,0.0,0.0,0.0,0.0,0.2505,0.5158,0.7758,0.2532,0.0,0.0,0.0,0.0,0.0,0.0,0.0,0.0,0.0,0.0,0.0,0.0,0.0,0.0,0.0,0.0,0.0,0.0,0.0,0.0,0.0,0.0,0.0,0.0,0.0,0.0,0.0,0.0,0.0,0.0,0.0,0.0,0.0,0.0,0.0,0.0,0.0,0.0,0.0,0.0,0.0,0.0,0.0,0.0,0.0,0.0,0.0,0.0,0.0,0.0,0.0,0.0,0.0,0.0,0.0,0.0,0.0,0.0,0.0,0.0,0.0,0.0,0.0,0.0,0.0,0.0,0.0,0.0,0.0,0.0,0.0,0.0,-0.1535,-0.1504,0.0,0.0,0.0,0.0,0.0,0.0,0.0,0.0,0.0,0.0,0.0,0.0,0.0,0.0,0.0,0.0,0.0,0.0,0.0,0.0,0.0,0.0,0.0,0.7872,0.7877,0.7894,0.7896,0.6039,0.0,0.0,0.0,0.0,0.0,0.0,0.0,0.1332,0.1332,0.1332,0.571,0.785,0.7827,0.347,0.1363,0.1485,0.1444,0.0,0.0,0.0,0.0,0.0,0.0,0.0,0.0,0.0,0.0,0.0,0.0,0.0,0.0,0.0,0.0,0.0,0.0,0.0,0.0,0.0,0.0,0.0,0.0,0.0,0.0,0.0,0.0,0.0,0.0,0.0,0.0,0.0,0.0,0.0,0.0,0.0,0.0,0.0,0.0,0.0,0.0,0.0,0.0,0.0,0.0,0.0,0.0,0.0,0.0,0.0,0.0,0.0,0.0,0.0,0.0,0.0,0.0,0.0,0.0,0.0,0.0,0.0,-0.1839,-0.1852,-0.1766,-0.1903,-0.1895,-0.185,-0.1692,-0.1525,-0.1519,-0.1603,0.0,0.0,0.0,0.0,0.0,0.0,0.0,0.0,0.0,0.0,0.0,0.0,0.0,0.0,0.0,0.0,0.0,0.0,0.0,0.0,0.0,0.7872,0.7872,0.7875,0.7888,0.7649,0.6905,0.0,0.0,0.0,0.0,0.0,0.6803,0.6919,0.6917,0.6917,0.7529,0.7915,0.783,0.7159,0.7067,0.7444,0.7071,0.6912,0.6557,0.0,0.0,0.0,0.0,0.0,0.0,0.0,0.0,0.0,0.0,0.0,0.0,0.0,0.0,0.0,0.0,0.0,0.0,0.0,0.0,0.0,0.0,0.0,0.0,0.0,0.0,0.0,0.0,0.0,0.0,0.0,0.0,0.0,0.0,0.0,0.0,0.0,0.0,0.0,0.0,0.0,-0.1375,-0.0803,0.0,0.0,0.0,0.0,0.0,0.0,0.0,0.0,0.0,0.0,0.0,0.0,0.0,-0.1505,-0.1438,-0.0553,-0.0671,-0.1709,-0.1709,-0.1825,-0.1828,-0.1833,-0.1804,-0.1858,-0.1832,0.0,-0.1671,-0.1823,0.0,0.0,0.0,0.0,0.0,0.0,0.0,0.0,0.0,0.0,0.0,0.0,0.0,0.0,0.0,0.0,0.0,0.0,0.0,0.0,0.0,0.7932,0.7973,0.7973,0.8043,0.806,0.787,0.5735,0.0,0.0,0.0,0.3332,0.5557,0.7185,0.7967,0.803,0.6445,0.5698,0.563,0.5613,0.5731,0.5982,0.7313,0.7956,0.7764,0.541,0.0,0.0,0.0,0.0,0.0,0.0,0.0,0.0,0.0,0.0,0.0,0.0,0.0,0.0,0.0,0.0,0.0,0.0,0.0,0.0,0.0,0.0,0.0,0.0,0.0,0.0,0.0,0.0,0.0,0.0,0.0,0.0,0.0,0.0,0.0,0.0,0.0,0.0,0.0,-0.1671,-0.1627,-0.1333,-0.1019,-0.0712,0.0,0.0,0.0,0.0,0.0,0.0,0.0,0.0,0.0,-0.1001,-0.078,-0.1014,-0.1615,-0.0807,-0.0581,-0.0709,-0.1073,-0.1324,-0.1335,-0.1335,-0.1445,-0.1543,-0.1866,-0.1949,-0.1796,-0.1774,-0.181,-0.1794,0.0,0.0,0.0,0.0,-0.2202,-0.2506,0.0,0.0,0.0,0.0,0.0,0.0,0.0,0.0,0.0,0.0,0.0,0.0,0.7915,0.8,0.8068,0.8098,0.8185,0.8185,0.7945,0.7937,0.7005,0.5049,0.4933,0.4562,0.3937,0.6548,0.7967,0.8171,0.6096,0.4981,0.5039,0.5001,0.4983,0.5103,0.7081,0.7857,0.791,0.7945,0.6785,0.4789,0.0,0.0,0.0,0.0,0.0,0.0,0.0,0.0,0.0,0.0,0.0,0.0,0.0,0.0,0.0,0.0,0.0,0.0,0.0,0.0,0.0,0.0,0.0,0.0,0.0,0.0,0.0,0.0,0.0,0.0,0.0,0.0,0.0,0.0,0.0,0.0,0.0,-0.1414,-0.1667,-0.1652,-0.156,-0.1146,0.0,0.0,0.0,0.0,0.0,0.0,-0.1196,-0.1549,-0.1587,-0.1522,-0.082,-0.071,-0.1207,-0.0845,-0.0365,-0.0,-0.0373,-0.0628,-0.0762,-0.0759,-0.0884,-0.126,-0.1842,-0.1926,-0.1885,-0.1845,-0.1879,-0.1972,-0.2047,-0.2149,-0.2375,-0.2512,-0.2727,-0.2932,0.0,0.0,0.0,0.0,0.0,0.0,0.0,0.0,0.0,0.0,0.0,0.7915,0.8032,0.8049,0.81,0.8214,0.8231,0.8185,0.8062,0.7934,0.7889,0.7654,0.7659,0.6539,0.3937,0.6532,0.7902,0.7907,0.8135,0.8073,0.7969,0.7819,0.7858,0.8228,0.7991,0.7884,0.7907,0.7902,0.7777,0.7641,0.7525,0.0,0.0,0.0,0.0,0.0,0.0,0.0,0.0,0.0,0.0,0.0,0.0,0.0,0.0,0.0,0.0,0.0,0.0,0.0,0.0,0.0,0.0,0.0,0.0,0.0,0.0,0.0,0.0,0.0,0.0,0.0,0.0,0.0,0.0,0.0,0.0,0.0,0.0,-0.1626,-0.1355,0.0,0.0,0.0,0.0,-0.1701,-0.1866,-0.1802,-0.1832,-0.1863,-0.1549,-0.086,-0.123,-0.0999,-0.0129,-0.0,-0.0,-0.0,-0.0,-0.0,-0.0,-0.0,-0.0379,-0.1136,-0.1739,-0.1957,-0.1924,-0.2089,-0.2039,-0.1786,-0.212,-0.2209,-0.2288,-0.2618,-0.2916,-0.3087,0.0,0.0,0.0,0.0,0.0,0.0,0.0,0.0,0.8395,0.8108,0.7994,0.7918,0.804,0.8125,0.8187,0.8231,0.8375,0.8345,0.8073,0.813,0.8087,0.7888,0.7896,0.7406,0.6532,0.7391,0.7956,0.8114,0.8204,0.8309,0.841,0.817,0.8159,0.835,0.8152,0.8038,0.7994,0.7915,0.788,0.7872,0.7886,0.6767,0.0,0.0,0.0,0.0,0.0,0.0,0.0,0.0,0.0,0.0,0.0,0.0,0.0,0.0,0.0,0.0,0.0,0.0,0.0,0.0,0.0,0.0,0.0,0.0,0.0,0.0,0.0,0.0,0.0,0.0,0.0,0.0,0.0,0.0,0.0,0.0,0.0,-0.1984,-0.17,0.0,-0.1569,-0.1575,-0.169,-0.1905,-0.1849,-0.1896,-0.1926,-0.1957,-0.1625,-0.0901,-0.0644,0.143,0.5447,0.1857,0.0,0.0,0.0,0.0,0.0,0.0,-0.0128,-0.0512,-0.1623,-0.1971,-0.1959,-0.2058,-0.2109,-0.2017,-0.2217,-0.2326,-0.2561,-0.2925,-0.3017,-0.3088,0.0,0.0,0.0,0.0,0.0,0.0,0.0,0.0,0.8085,0.7925,0.7883,0.7994,0.816,0.8247,0.8329,0.8407,0.8522,0.8454,0.8136,0.819,0.8125,0.7883,0.7883,0.7888,0.7888,0.7918,0.8032,0.8236,0.8195,0.8318,0.8584,0.8388,0.8339,0.841,0.8206,0.8114,0.8108,0.8027,0.7945,0.7867,0.792,0.792,0.7688,0.0,0.0,0.0,0.0,0.0,0.0,0.0,0.0,0.0,0.0,0.0,0.0,0.0,0.0,0.0,0.0,0.0,0.0,0.0,0.0,0.0,0.0,0.0,0.0,0.0,0.0,0.0,0.0,0.0,0.0,0.0,0.0,0.0,0.0,-0.1891,-0.1972,-0.2088,-0.2029,-0.193,-0.1889,-0.1895,-0.1778,-0.1179,-0.1091,-0.0869,-0.0378,-0.1408,-0.1696,-0.1068,-0.0399,0.1871,0.5703,0.3781,0.1876,0.0,0.0,0.0,0.0,0.0,0.0,-0.0,-0.1001,-0.161,-0.1989,-0.1969,-0.2039,-0.2086,-0.2178,-0.229,-0.2534,-0.2909,-0.3122,-0.3194,0.0,0.0,0.0,0.0,0.0,0.0,0.0,0.8319,0.8053,0.7701,0.7907,0.8144,0.8386,0.8416,0.8511,0.8739,0.8649,0.8481,0.8244,0.8231,0.8122,0.788,0.7872,0.7872,0.7877,0.7994,0.8117,0.8247,0.8364,0.8486,0.86,0.8489,0.8437,0.8435,0.8307,0.8253,0.8253,0.8244,0.8106,0.7888,0.788,0.7936,0.7842,0.0,0.0,0.0,0.0,0.0,0.0,0.0,0.0,0.0,0.0,0.0,0.0,0.0,0.0,0.0,0.0,0.0,0.0,0.0,0.0,0.0,0.0,0.0,0.0,0.0,0.0,0.0,0.0,0.0,0.0,0.0,0.0,0.0,-0.2026,-0.1968,-0.2011,-0.2011,-0.1947,-0.196,-0.1901,-0.1801,-0.1218,0.0124,0.0508,0.1298,0.2632,-0.0267,-0.1624,-0.0961,-0.0407,0.0136,0.0275,0.5576,0.5672,0.0269,0.0133,0.0,0.0,0.0,0.0,0.0,0.0,-0.0747,-0.2014,-0.1957,-0.1952,-0.1977,-0.1976,-0.2201,-0.2412,-0.2774,-0.3105,-0.3407,0.0,0.0,0.0,0.0,0.0,0.0,0.8283,0.7953,0.7718,0.769,0.7907,0.8114,0.8269,0.8364,0.8446,0.8511,0.8484,0.8361,0.8119,0.8103,0.8035,0.7877,0.7872,0.7913,0.8002,0.8038,0.8198,0.8489,0.8524,0.8693,0.8981,0.8861,0.8853,0.8927,0.8717,0.8625,0.8611,0.844,0.8329,0.8253,0.8076,0.7934,0.7828,0.0,0.0,0.0,0.0,0.0,0.0,0.0,0.0,0.0,0.0,0.0,0.0,0.0,0.0,0.0,0.0,0.0,0.0,0.0,0.0,0.0,0.0,0.0,0.0,0.0,0.0,0.0,0.0,0.0,0.0,0.0,-0.1917,-0.1952,-0.1944,-0.1955,-0.2048,-0.2048,-0.2101,-0.1731,-0.0528,-0.0524,0.0263,0.2128,0.2281,0.2576,0.3297,0.3144,0.2468,0.1528,0.0549,0.206,0.6416,0.3716,0.3693,0.6161,0.2,0.0,0.0,0.0,0.0,0.0,0.0,-0.0503,-0.1388,-0.1751,-0.1999,-0.2003,-0.196,-0.1952,-0.2208,-0.282,-0.3255,-0.3643,0.0,0.0,0.0,0.0,0.0,0.0,0.8152,0.7706,0.7486,0.7608,0.7875,0.81,0.822,0.8299,0.8361,0.8413,0.8323,0.8206,0.8065,0.8005,0.7967,0.7948,0.7948,0.803,0.8204,0.8253,0.8429,0.8739,0.8791,0.8948,0.9201,0.9084,0.9065,0.9125,0.8932,0.8845,0.8837,0.8701,0.8611,0.8554,0.841,0.822,0.8016,0.7717,0.756,0.7526,0.7138,0.6836,0.6442,0.5951,0.0,0.0,0.0,0.0,0.0,0.0,0.0,0.0,0.0,0.0,0.0,0.0,0.0,0.0,0.0,0.0,0.0,0.0,0.0,0.0,0.0,0.0,0.0,0.0,-0.1988,-0.1924,-0.1949,-0.2044,-0.1857,-0.1215,-0.1235,-0.0692,0.0968,0.0412,0.1097,0.3452,0.3178,0.3604,0.5308,0.625,0.6262,0.5071,0.4317,0.4877,0.7068,0.3602,0.2883,0.4948,0.1612,0.0,0.0,0.0,0.0,-0.0,-0.0384,-0.0765,-0.1146,-0.176,-0.2008,-0.2014,0.0,0.0,0.0,0.0,-0.3128,-0.3526,0.0,0.0,0.0,0.0,0.0,0.0,0.8045,0.7595,0.738,0.7502,0.7818,0.8081,0.8201,0.8225,0.8274,0.8369,0.8179,0.8049,0.8035,0.7945,0.7948,0.807,0.8087,0.8209,0.8451,0.8571,0.8747,0.8992,0.9114,0.9234,0.9343,0.9242,0.9196,0.919,0.9082,0.9033,0.9033,0.9016,0.8948,0.8848,0.8823,0.859,0.8242,0.8509,0.8643,0.8675,0.8702,0.8274,0.7585,0.6995,0.0,0.0,0.0,0.0,0.0,0.0,0.0,0.0,0.0,0.0,0.0,0.0,0.0,0.0,0.0,0.0,0.0,0.0,0.0,0.0,0.0,0.0,0.0,0.0,-0.1955,-0.1924,-0.1854,-0.1863,-0.1349,-0.0,0.0281,0.0983,0.253,0.1402,0.1821,0.4775,0.3931,0.4632,0.7727,0.8588,0.0,0.0,0.0,0.7926,0.5292,0.5014,0.3572,0.0962,0.027,0.0,0.0,0.0,0.0,-0.0,-0.0777,-0.1165,-0.1161,-0.1884,-0.2122,-0.2011,-0.1986,-0.1977,-0.2096,-0.2308,-0.2752,-0.3298,0.0,0.0,0.0,0.0,0.0,0.0,0.8045,0.7595,0.738,0.7502,0.7744,0.7954,0.8076,0.8176,0.8204,0.813,0.8081,0.8011,0.7913,0.7975,0.8073,0.8195,0.8293,0.8459,0.8698,0.8821,0.8997,0.9237,0.9359,0.9481,0.9598,0.9576,0.9568,0.9565,0.9541,0.953,0.9525,0.9424,0.937,0.9332,0.9141,0.8791,0.838,0.8742,0.8747,0.8577,0.888,0.8802,0.8566,0.7945,0.7819,0.7875,0.7657,0.7132,0.0,0.0,0.0,0.0,0.0,0.0,0.0,0.0,0.0,0.0,0.0,0.0,0.0,0.0,0.0,0.0,0.0,0.0,0.0,-0.2091,-0.2045,-0.173,-0.0559,-0.0422,-0.0282,-0.0,0.1138,0.257,0.404,0.3967,0.4657,0.6919,0.6785,0.7217,0.8519,0.8668,0.8965,0.9128,0.9174,0.8889,0.842,0.8213,0.7687,0.6842,0.2285,0.0,0.0,0.0,0.0,-0.0,-0.0788,-0.105,-0.118,-0.1804,-0.2022,-0.1984,-0.1979,-0.2223,-0.2466,-0.2459,-0.2919,-0.3353,0.0,0.0,0.0,0.0,0.0,0.0,0.8045,0.7656,0.7403,0.7413,0.7638,0.7809,0.7872,0.7932,0.7943,0.7883,0.7877,0.7875,0.7872,0.8043,0.8225,0.8405,0.853,0.8734,0.9033,0.9098,0.9245,0.9487,0.9603,0.9693,0.9753,0.9753,0.9753,0.975,0.9696,0.9669,0.9666,0.9606,0.9579,0.9563,0.9383,0.913,0.8842,0.8795,0.878,0.8646,0.8591,0.8734,0.8765,0.8136,0.8295,0.8509,0.8081,0.7913,0.7311,0.0,0.0,0.0,0.0,0.0,0.0,0.0,0.0,0.0,0.0,0.0,0.0,0.0,0.0,-0.1456,0.0,0.0,-0.2086,-0.2199,-0.146,-0.0819,-0.0142,0.1428,0.229,0.2305,0.3045,0.4221,0.5677,0.5209,0.5505,0.7194,0.6572,0.6712,0.8078,0.8324,0.8584,0.9016,0.9109,0.9256,0.9318,0.915,0.8895,0.8694,0.5722,0.2801,0.0,0.0,0.0,-0.0,-0.0795,-0.1066,-0.1197,-0.1822,-0.2037,-0.1996,-0.1982,-0.2099,-0.222,-0.2203,-0.2549,-0.3128,0.0,0.0,0.0,0.0,0.0,0.0,0.0,0.7826,0.7539,0.732,0.7508,0.7641,0.7663,0.7665,0.7665,0.7665,0.7665,0.7725,0.7861,0.8122,0.8386,0.8647,0.8796,0.9033,0.9367,0.9397,0.9506,0.9701,0.9815,0.9873,0.9873,0.9873,0.9873,0.9867,0.9777,0.9739,0.9739,0.9739,0.9739,0.9729,0.9603,0.9481,0.9337,0.9003,0.8818,0.869,0.8356,0.8347,0.8531,0.7986,0.8093,0.8385,0.7644,0.784,0.8159,0.7511,0.4195,0.0,0.0,0.0,0.0,0.0,0.0,0.0,0.0,0.0,-0.1898,-0.1594,-0.1734,-0.1773,-0.1354,-0.1512,-0.1552,-0.1343,-0.0548,0.0279,0.0857,0.2865,0.4459,0.5088,0.5142,0.5743,0.6851,0.5878,0.5766,0.6951,0.5871,0.5863,0.7534,0.7922,0.8171,0.8729,0.9016,0.916,0.9304,0.9166,0.8911,0.882,0.8694,0.5902,0.0776,0.0266,-0.0133,-0.039,-0.0932,-0.1209,-0.1338,-0.1831,-0.2054,-0.2024,-0.1996,-0.1984,-0.1981,-0.1951,-0.2303,-0.29,0.0,0.0,0.0,0.0,0.0,0.0,0.0,0.0,0.7539,0.732,0.7358,0.7418,0.7527,0.754,0.754,0.754,0.754,0.7633,0.7856,0.8201,0.8552,0.8894,0.9125,0.9364,0.9622,0.9726,0.9791,0.9818,0.9941,1.0,1.0,1.0,1.0,1.0,0.9987,0.9981,0.9981,0.9981,0.9981,0.997,0.9848,0.9729,0.9601,0.9343,0.8978,0.8573,0.8326,0.8166,0.8129,0.7548,0.7532,0.7779,0.7429,0.7358,0.7475,0.7706,0.5681,0.2467,-0.0897,0.1344,0.392,0.1227,-0.0338,-0.0916,0.0,0.0,-0.1532,-0.0364,-0.1101,-0.1232,0.1378,0.0779,0.0403,0.1637,0.0839,0.1,0.3768,0.3195,0.3633,0.6404,0.6706,0.6855,0.699,0.6851,0.6857,0.7005,0.6923,0.7078,0.7586,0.7657,0.8099,0.8731,0.8726,0.8871,0.9304,0.9082,0.8965,0.8951,0.8747,0.6949,0.3671,0.1201,-0.0667,-0.1975,-0.1337,-0.147,-0.1982,-0.2107,-0.2086,-0.2056,-0.2025,-0.2014,-0.201,-0.1981,-0.2463,-0.2947,0.0,0.0,0.0,0.0,0.0,0.0,0.0,0.0,0.0,0.7133,0.7249,0.7355,0.7407,0.7413,0.7383,0.7312,0.7372,0.7573,0.7954,0.8315,0.8706,0.9139,0.9389,0.9595,0.9764,0.9813,0.9873,0.9943,0.9995,1.0019,1.0019,1.0019,1.0019,1.0019,1.0019,1.0019,1.0019,1.0019,1.0019,1.0008,0.9886,0.9726,0.953,0.9217,0.8845,0.8467,0.8296,0.8068,0.0,0.7451,0.7358,0.7364,0.7263,0.723,0.7236,0.7491,0.5677,0.3287,0.1349,0.202,0.3157,0.0,0.1855,0.1642,0.2043,0.1716,0.1374,0.1531,0.1032,0.0917,0.2159,0.1915,0.1663,0.0,0.258,0.3182,0.4509,0.4915,0.5438,0.6627,0.6758,0.6819,0.6974,0.7037,0.707,0.707,0.7054,0.7052,0.7359,0.7491,0.7754,0.8003,0.8437,0.8696,0.877,0.8965,0.8986,0.8845,0.8766,0.7132,0.4204,0.1323,-0.0795,-0.2243,-0.1873,-0.187,-0.2108,-0.209,-0.2065,-0.2035,-0.2005,-0.1994,-0.1992,-0.1981,-0.247,-0.2958,0.0,0.0,0.0,0.0,0.0,0.0,0.0,0.0,0.0,0.0,0.7133,0.7249,0.7282,0.7285,0.7249,0.7163,0.7266,0.7497,0.788,0.8272,0.869,0.9136,0.9454,0.9688,0.9835,0.987,0.9932,1.0019,1.0019,1.0019,1.0019,1.0019,1.0019,1.0019,1.0019,1.0019,1.0019,1.0019,1.0,0.996,0.984,0.9609,0.9304,0.8976,0.8587,0.8209,0.8119,0.7921,0.766,0.738,0.7249,0.7198,0.7165,0.716,0.7168,0.719,0.5886,0.3989,0.2602,0.0,0.0,0.341,0.3458,0.3628,0.374,0.3585,0.3407,0.3068,0.2682,0.2575,0.3352,0.3213,0.3081,0.3427,0.4179,0.4782,0.5238,0.5866,0.6312,0.6604,0.6523,0.6564,0.6782,0.6909,0.6998,0.7047,0.699,0.6992,0.7082,0.7317,0.7421,0.7566,0.8119,0.8499,0.8558,0.8815,0.8978,0.8769,0.8788,0.7564,0.536,0.1308,-0.105,-0.1847,-0.2133,-0.2129,-0.2106,-0.2067,-0.2038,-0.2016,-0.1988,-0.1977,-0.1977,-0.1977,-0.2346,-0.2838,0.0,0.0,0.0,0.0,0.0,0.0,0.0,0.0,0.0,0.0,0.0,0.0,0.0,0.716,0.716,0.7154,0.7266,0.7391,0.7527,0.7981,0.8407,0.8769,0.9239,0.9601,0.9832,0.9954,1.0017,1.0019,1.0019,1.0019,1.0019,1.0019,1.0019,1.0019,1.0019,1.0019,1.0019,1.0019,0.9951,0.9832,0.972,0.9391,0.894,0.8693,0.8233,0.7722,0.772,0.7712,0.7646,0.7282,0.7236,0.7309,0.7192,0.7168,0.7184,0.7192,0.6301,0.4741,0.1714,0.3098,0.5209,0.4179,0.4059,0.4052,0.4174,0.3319,0.2972,0.4304,0.3281,0.2955,0.5789,0.5172,0.4671,0.6187,0.5339,0.502,0.6684,0.5494,0.4945,0.6453,0.6355,0.6231,0.6327,0.65,0.6678,0.6849,0.6858,0.6896,0.6988,0.699,0.7133,0.7566,0.7907,0.8137,0.8556,0.8734,0.8894,0.8769,0.8652,0.8617,0.8282,0.1161,-0.1823,-0.1186,-0.1846,-0.211,-0.2105,-0.2045,-0.2019,-0.2016,-0.1988,-0.1977,-0.1977,-0.1977,-0.2222,-0.259,0.0,0.0,0.0,0.0,0.0,0.0,0.0,0.0,0.0,0.0,0.0,0.0,0.0,0.0,0.0,0.0,0.7192,0.7336,0.7622,0.7937,0.8242,0.8524,0.9068,0.9367,0.937,0.9644,0.9824,0.99,0.99,0.9941,1.0019,1.0019,1.0019,1.0017,0.9935,0.99,0.9889,0.9731,0.9731,0.9799,0.9367,0.9095,0.8889,0.8326,0.7891,0.7548,0.0,0.7274,0.7309,0.7108,0.707,0.7097,0.7056,0.7046,0.6845,0.5579,0.4291,0.3318,0.3951,0.4943,0.5769,0.5558,0.5536,0.5633,0.5851,0.5682,0.5568,0.5744,0.541,0.5195,0.609,0.5824,0.5619,0.6257,0.6149,0.6149,0.6659,0.636,0.6078,0.6145,0.6255,0.619,0.5982,0.6233,0.6484,0.6666,0.6735,0.6807,0.6894,0.6958,0.7106,0.7187,0.7442,0.7645,0.7507,0.8163,0.8227,0.798,0.684,0.5565,0.418,0.0261,-0.1567,-0.182,-0.1969,-0.2086,-0.2046,-0.2007,-0.1979,-0.1958,-0.1928,-0.1916,-0.1919,-0.2179,-0.2308,-0.2433,0.0,0.0,0.0,0.0,0.0,0.0,0.0,0.0,0.0,0.0,0.0,0.0,0.0,0.0,0.0,0.0,0.0,0.7255,0.7491,0.7731,0.7951,0.8155,0.8649,0.8908,0.8878,0.9144,0.9318,0.9391,0.9391,0.9432,0.9508,0.9508,0.9508,0.9506,0.9427,0.9413,0.9443,0.9247,0.9277,0.941,0.8902,0.8641,0.85,0.7905,0.7532,0.0,0.7018,0.6967,0.7018,0.6945,0.684,0.6872,0.6872,0.6798,0.6416,0.438,0.3673,0.3758,0.4918,0.5661,0.6216,0.6349,0.6462,0.6547,0.6692,0.6768,0.6731,0.6462,0.6329,0.6198,0.5994,0.5929,0.5965,0.6145,0.63,0.6464,0.6651,0.6615,0.6476,0.6227,0.6184,0.6096,0.5898,0.6088,0.631,0.6525,0.6656,0.6764,0.6849,0.6939,0.6962,0.6905,0.7302,0.7349,0.7188,0.7736,0.7956,0.7579,0.571,0.3813,0.1839,-0.0395,-0.17,-0.2065,-0.2084,-0.2065,-0.2014,-0.1964,-0.1932,-0.1913,-0.1894,-0.1886,-0.1891,-0.2291,-0.2552,-0.2677,0.0,0.0,0.0,0.0,0.0,0.0,0.0,0.0,0.0,0.0,0.0,0.0,0.0,0.0,0.0,0.0,0.0,0.0,0.7146,0.7369,0.7551,0.7668,0.8021,0.8269,0.8378,0.8505,0.8571,0.8579,0.8579,0.8581,0.8587,0.8587,0.8587,0.8587,0.8581,0.8644,0.8745,0.8614,0.8636,0.872,0.8342,0.8057,0.7823,0.7332,0.7171,0.6959,0.6836,0.6793,0.6796,0.6806,0.6674,0.6443,0.6448,0.6536,0.609,0.4011,0.4601,0.5728,0.464,0.5481,0.6496,0.6588,0.6733,0.6829,0.6739,0.6713,0.6627,0.6347,0.608,0.5867,0.0,0.0,0.5686,0.588,0.5994,0.6186,0.6547,0.631,0.619,0.0,0.0,0.0,0.0,0.0,0.6186,0.6441,0.6621,0.6758,0.6847,0.6939,0.6988,0.6982,0.7185,0.7374,0.7274,0.7543,0.7767,0.7664,0.533,0.3288,0.1447,-0.1053,-0.2222,-0.2064,-0.2062,-0.2044,-0.2009,-0.1924,-0.1888,-0.1888,-0.1887,-0.1886,-0.201,-0.2437,-0.2711,-0.3081,0.0,0.0,0.0,0.0,0.0,0.0,0.0,0.0,0.0,0.0,0.0,0.0,0.0,0.0,0.0,0.0,0.0,0.0,0.7021,0.7165,0.726,0.7293,0.7725,0.794,0.7886,0.8174,0.8369,0.8462,0.8462,0.8505,0.8587,0.8587,0.8587,0.8584,0.8497,0.8478,0.8494,0.8025,0.8054,0.8186,0.7332,0.7042,0.6968,0.6478,0.6258,0.6194,0.6083,0.6044,0.6068,0.0,0.0,0.0,0.0,0.6252,0.6084,0.5544,0.5762,0.6121,0.6037,0.6409,0.6774,0.6864,0.687,0.6813,0.666,0.6519,0.6325,0.5986,0.5755,0.5563,0.0,0.0,0.0,0.5765,0.6002,0.0,0.6641,0.6725,0.0,0.6572,0.0,0.6449,0.6268,0.6374,0.0,0.6549,0.6598,0.6692,0.6845,0.6939,0.6958,0.689,0.6946,0.6856,0.6762,0.6828,0.6914,0.7154,0.4112,0.2513,0.1867,-0.0916,-0.2071,-0.2063,-0.2039,-0.2014,-0.1984,-0.1938,-0.2039,-0.2274,-0.2249,-0.2474,-0.2715,-0.301,-0.3275,-0.3402,0.0,0.0,0.0,0.0,0.0,0.0,0.0,0.0,0.0,0.0,0.0,0.0,0.0,0.0,0.0,0.0,0.0,0.0,0.0,0.7016,0.7081,0.7081,0.7385,0.7527,0.7464,0.7657,0.782,0.7943,0.7839,0.7847,0.7959,0.7782,0.7635,0.7635,0.7625,0.762,0.7484,0.7306,0.7212,0.0,0.0,0.6429,0.6538,0.6034,0.5886,0.5872,0.5763,0.5653,0.0,0.0,0.0,0.6148,0.6219,0.6072,0.6034,0.626,0.0,0.6325,0.6226,0.631,0.6492,0.647,0.64,0.6419,0.6588,0.6359,0.6088,0.5688,0.5492,0.5349,0.521,0.5153,0.523,0.0,0.0,0.0,0.6431,0.6607,0.6696,0.0,0.6719,0.0,0.6511,0.659,0.6666,0.6702,0.6707,0.6749,0.6847,0.6939,0.6966,0.6915,0.6827,0.6721,0.659,0.65,0.6587,0.6719,0.3597,0.2132,0.2012,-0.0788,-0.2076,-0.2062,-0.2032,-0.2003,-0.1974,-0.1944,-0.205,-0.2409,-0.2407,-0.2634,-0.2982,-0.3295,-0.3432,-0.3538,0.0,0.0,0.0,0.0,0.0,0.0,0.0,0.0,0.0,0.0,0.6529,0.0,0.0,0.0,0.0,0.0,0.0,0.0,0.0,0.0,0.6945,0.6959,0.707,0.7133,0.7133,0.7146,0.7206,0.7312,0.7108,0.7059,0.7152,0.672,0.6557,0.6547,0.6538,0.646,0.6217,0.6468,0.6372,0.6316,0.6027,0.5896,0.6051,0.0,0.5672,0.566,0.5567,0.5401,0.0,0.0,0.5714,0.5927,0.5861,0.6023,0.6159,0.6429,0.6637,0.6673,0.6108,0.6162,0.629,0.6127,0.6007,0.5987,0.6347,0.6166,0.5835,0.5443,0.5279,0.5188,0.512,0.5043,0.5079,0.5355,0.0,0.5688,0.6151,0.6296,0.6482,0.6831,0.6807,0.6762,0.6762,0.6762,0.6792,0.6866,0.6872,0.6872,0.6872,0.6947,0.6978,0.6956,0.6878,0.6751,0.6574,0.6494,0.6453,0.6453,0.349,0.2146,0.2007,-0.0793,-0.2086,-0.2056,-0.2026,-0.1999,-0.1975,-0.1948,-0.2178,-0.2542,-0.2576,-0.2817,-0.3041,-0.3368,-0.35,-0.3589,0.0,0.0,0.0,0.0,0.0,0.0,0.0,0.0,0.0,0.0,0.6453,0.6469,0.0,0.0,0.0,0.0,0.0,0.0,0.0,0.0,0.0,0.6828,0.695,0.7016,0.7016,0.7105,0.7165,0.7187,0.7143,0.7135,0.7154,0.6803,0.6633,0.6544,0.6349,0.6199,0.6013,0.5863,0.5852,0.5681,0.5439,0.5282,0.5216,0.5001,0.0,0.0,0.4941,0.0,0.0,0.0,0.5587,0.5682,0.6027,0.6249,0.6437,0.6705,0.6915,0.708,0.7037,0.7203,0.7133,0.689,0.6604,0.6429,0.6204,0.5741,0.0,0.0,0.5135,0.5037,0.5098,0.5096,0.5171,0.5443,0.5561,0.5804,0.6331,0.6486,0.6647,0.0,0.6954,0.6943,0.6943,0.6943,0.0,0.6964,0.6966,0.6966,0.6966,0.6982,0.6923,0.6776,0.6758,0.6662,0.648,0.6462,0.6453,0.6453,0.349,0.2136,0.2112,-0.0781,-0.2055,-0.2024,-0.1996,-0.1981,-0.1976,-0.1971,-0.2337,-0.295,-0.2958,-0.3227,-0.375,-0.3852,-0.3865,-0.3888,0.0,0.0,0.0,0.0,0.0,0.0,0.0,0.6304,0.6309,0.642,0.6437,0.6437,0.6437,0.6437,0.6437,0.0,0.0,0.0,0.0,0.0,0.0,0.0,0.6825,0.6921,0.6983,0.7037,0.7127,0.7249,0.0,0.7097,0.7152,0.6761,0.6488,0.633,0.6224,0.587,0.5607,0.56,0.5541,0.5243,0.5141,0.4981,0.4896,0.0,0.0,0.0,0.0,0.0,0.0,0.0,0.5359,0.5594,0.6094,0.6376,0.6588,0.6903,0.7058,0.7017,0.6892,0.684,0.684,0.6595,0.6111,0.5889,0.5938,0.0,0.0,0.0,0.5032,0.4986,0.5028,0.4998,0.0,0.5263,0.5416,0.5647,0.6047,0.6343,0.0,0.6827,0.6933,0.699,0.699,0.699,0.699,0.699,0.699,0.699,0.699,0.699,0.6909,0.6731,0.6727,0.6639,0.6455,0.6453,0.6162,0.5318,0.3188,0.1847,0.1041,-0.1027,-0.2033,-0.2017,-0.1989,-0.1977,-0.1977,-0.2222,-0.2591,-0.2963,-0.3237,-0.3495,-0.3991,-0.3993,-0.3993,-0.3986,0.0,0.0,0.0,0.0,0.0,0.0,0.0,0.6268,0.632,0.6458,0.6475,0.6475,0.6475,0.645,0.6437,0.0,0.0,0.0,0.0,0.0,0.0,0.0,0.0,0.0,0.6904,0.0,0.0,0.726,0.71,0.0,0.0,0.0,0.0,0.0,0.5973,0.5623,0.5153,0.5415,0.5233,0.0,0.0,0.4916,0.0,0.0,0.0,0.0,0.0,0.0,0.0,0.0,0.5216,0.5445,0.5976,0.6323,0.6598,0.6939,0.708,0.7031,0.6656,0.6573,0.6525,0.6273,0.5773,0.554,0.5846,0.5524,0.0,0.5002,0.4955,0.4943,0.4943,0.4883,0.4888,0.0,0.52,0.5394,0.5682,0.6078,0.6421,0.0,0.6841,0.0,0.6988,0.699,0.699,0.699,0.699,0.699,0.699,0.699,0.6909,0.6731,0.6727,0.6639,0.6455,0.6433,0.573,0.4229,0.289,0.1433,0.0,-0.1397,-0.2015,-0.2133,-0.211,-0.2099,-0.2223,-0.2468,-0.2837,-0.3089,-0.3376,-0.3624,-0.3973,-0.4004,-0.3996,-0.3966,0.0,0.0,0.0,0.0,0.0,0.0,0.0,0.6268,0.635,0.6573,0.6603,0.6603,0.6603,0.6502,0.6437,0.0,0.0,0.0,0.0,0.0,0.0,0.0,0.0,0.0,0.0,0.0,0.0,0.7018,0.71,0.0,0.0,0.0,0.0,0.0,0.0,0.5028,0.4877,0.4953,0.0,0.0,0.0,0.0,0.0,0.0,0.0,0.0,0.0,0.0,0.0,0.0,0.0,0.5294,0.5512,0.5933,0.6398,0.668,0.0,0.0,0.7199,0.7307,0.7287,0.6941,0.6523,0.6106,0.5876,0.0,0.4992,0.4975,0.4906,0.4847,0.4847,0.4841,0.4867,0.4967,0.4998,0.513,0.5484,0.5782,0.6094,0.6437,0.0,0.0,0.6982,0.699,0.699,0.699,0.699,0.699,0.699,0.699,0.6909,0.6731,0.6727,0.6639,0.6455,0.637,0.5703,0.429,0.2874,0.1418,0.0,-0.1396,-0.2128,-0.2472,-0.2469,-0.259,-0.2961,-0.2961,-0.3208,-0.3457,-0.3461,-0.3738,-0.4022,-0.3976,-0.3988,-0.4021,0.0,0.0,0.0,0.0,0.0,0.0,0.6116,0.6159,0.6244,0.6478,0.651,0.651,0.651,0.6467,0.6437,0.6437,0.0,0.0,0.0,0.0,0.0,0.0,0.0,0.0,0.0,0.0,0.6836,0.6986,0.7029,0.0,0.0,0.0,0.0,0.0,0.0,0.5275,0.4998,0.4979,0.0,0.0,0.0,0.0,0.0,0.0,0.0,0.0,0.0,0.0,0.0,0.0,0.0,0.0,0.4659,0.4995,0.0,0.0,0.6551,0.6784,0.707,0.7256,0.728,0.6921,0.6492,0.6063,0.5698,0.0,0.489,0.489,0.4859,0.4834,0.4834,0.4834,0.4865,0.4957,0.4971,0.5059,0.5314,0.5535,0.5825,0.6241,0.6482,0.0,0.0,0.699,0.699,0.699,0.699,0.6966,0.6911,0.6909,0.6851,0.6731,0.6674,0.6582,0.6455,0.6364,0.5255,0.3012,0.2439,0.1012,-0.113,-0.1748,-0.2234,-0.2467,-0.2467,-0.2714,-0.2961,-0.3208,-0.3332,-0.3455,-0.3703,-0.3841,-0.3981,-0.3959,-0.4209,-0.4589,0.0,0.0,0.0,0.0,0.0,0.5814,0.6048,0.6116,0.6225,0.6461,0.6488,0.6488,0.6488,0.6458,0.6437,0.6437,0.6437,0.0,0.0,0.0,0.0,0.0,0.0,0.0,0.0,0.0,0.6703,0.6877,0.695,0.6918,0.0,0.0,0.6165,0.5627,0.0,0.0,0.0,0.0,0.0,0.0,0.0,0.0,0.0,0.0,0.0,0.0,0.0,0.0,0.0,0.0,0.0,0.0,0.0,0.0,0.0,0.0,0.6002,0.6402,0.6569,0.6799,0.7025,0.6688,0.6306,0.5919,0.0,0.0,0.4867,0.4841,0.4834,0.4834,0.4834,0.4834,0.4847,0.4888,0.4914,0.4975,0.5104,0.53,0.5567,0.0,0.0,0.6396,0.6756,0.6886,0.6949,0.6949,0.6974,0.6949,0.6858,0.6805,0.6747,0.6688,0.6598,0.6506,0.6415,0.6298,0.4792,0.2189,0.2147,0.0624,-0.1989,-0.2104,-0.2345,-0.2714,-0.2714,-0.2961,-0.3332,-0.3579,-0.358,-0.358,-0.3826,-0.3951,-0.3951,-0.4071,-0.4438,-0.4918,0.0,0.0,0.0,0.0,0.0,0.0,0.6048,0.6189,0.6352,0.6586,0.6619,0.6619,0.6619,0.651,0.6437,0.6437,0.6437,0.0,0.0,0.0,0.0,0.0,0.0,0.0,0.0,0.0,0.6622,0.6624,0.6866,0.6875,0.6544,0.6224,0.595,0.5631,0.0,0.0,0.0,0.0,0.0,0.0,0.0,0.0,0.0,0.0,0.0,0.0,0.0,0.0,0.0,0.0,0.0,0.0,0.0,0.0,0.0,0.0,0.5228,0.597,0.5626,0.6118,0.6666,0.639,0.6119,0.5825,0.0,0.5169,0.4945,0.4853,0.4834,0.4834,0.4834,0.4834,0.4808,0.4724,0.4781,0.4836,0.4839,0.5073,0.5314,0.0,0.0,0.5929,0.6288,0.6645,0.6854,0.6854,0.6937,0.6949,0.6858,0.6688,0.6592,0.659,0.6502,0.6413,0.6319,0.6143,0.4699,0.206,0.1999,0.0621,-0.2017,-0.2359,-0.2714,-0.2961,-0.3332,-0.3703,-0.3951,-0.3951,-0.3951,-0.3951,-0.3951,-0.3951,-0.395,-0.4682,-0.4925,-0.5047,0.0,0.0,0.0,0.0,0.0,0.0,0.0,0.6064,0.62,0.6358,0.6448,0.6494,0.6494,0.6461,0.6437,0.6437,0.6437,0.0,0.0,0.0,0.0,0.0,0.0,0.0,0.0,0.0,0.6535,0.6619,0.6574,0.6475,0.6221,0.6002,0.5625,0.5208,0.5116,0.492,0.0,0.0,0.0,0.0,0.0,0.0,0.0,0.0,0.0,0.0,0.0,0.0,0.0,0.0,0.0,0.0,0.0,0.0,0.0,0.3318,0.4074,0.0,0.46,0.476,0.4974,0.4802,0.4869,0.4914,0.4704,0.4675,0.4783,0.4755,0.4749,0.4749,0.4749,0.4796,0.4847,0.4881,0.4857,0.4857,0.0,0.0,0.0,0.5651,0.6127,0.6494,0.6668,0.6733,0.679,0.6849,0.6827,0.6743,0.6588,0.6527,0.6496,0.6496,0.6347,0.5862,0.4925,0.4706,0.3408,0.0762,0.0622,-0.0247,-0.199,-0.235,-0.2714,-0.2961,-0.3332,-0.3703,-0.3951,-0.3951,-0.3951,-0.3951,-0.3951,-0.3951,-0.395,-0.4682,-0.517,-0.5653,0.0,0.0,0.0,0.0,0.0,0.0,0.0,0.5543,0.5847,0.5664,0.6072,0.6448,0.6448,0.6439,0.6439,0.6445,0.6439,0.0,0.0,0.0,0.0,0.0,0.0,0.0,0.6437,0.6437,0.6396,0.6416,0.6432,0.6226,0.5893,0.5748,0.5482,0.5102,0.4977,0.4888,0.0,0.0,0.0,0.0,0.0,0.0,0.3632,0.0,0.0,0.0,0.0,0.0,0.0,0.0,0.0,0.0,0.0,0.0,0.0,0.0,0.2918,0.3692,0.0,0.3834,0.4024,0.3918,0.415,0.0,0.421,0.4472,0.4736,0.4671,0.471,0.4747,0.4714,0.4777,0.4843,0.4869,0.4824,0.4808,0.0,0.0,0.0,0.5629,0.0,0.0,0.6545,0.6627,0.6696,0.6749,0.6705,0.6611,0.6462,0.6388,0.6201,0.5642,0.5413,0.4979,0.4212,0.3647,0.2247,0.0,0.0,-0.074,-0.2222,-0.2591,-0.2838,-0.3208,-0.3455,-0.3703,0.0,-0.3951,-0.3951,-0.3951,-0.3951,-0.4073,-0.4316,-0.5049,-0.5661,-0.639,0.0,0.0,0.0,0.0,0.0,0.0,0.0,0.4608,0.5086,0.4394,0.5483,0.616,0.6158,0.6145,0.6142,0.6261,0.6348,0.0,0.0,0.0,0.0,0.0,0.0,0.0,0.6337,0.6337,0.6292,0.6203,0.6325,0.6114,0.5554,0.5576,0.543,0.51,0.4916,0.4734,0.0,0.0,0.0,0.0,0.0,0.0,0.0,0.0,0.0,0.0,0.0,0.0,0.0,0.0,0.0,0.0,0.0,0.0,0.0,0.0,0.0,0.0,0.0,0.3153,0.366,0.3492,0.3866,0.0,0.4065,0.4429,0.0,0.4616,0.4706,0.4792,0.4714,0.4769,0.48,0.4722,0.4708,0.471,0.0,0.4892,0.0,0.0,0.5859,0.5954,0.5948,0.6241,0.6437,0.658,0.6431,0.6385,0.6295,0.6132,0.5361,0.4023,0.3896,0.377,0.377,0.2479,0.1231,-0.0123,-0.0123,-0.0986,-0.2467,-0.2837,-0.3208,-0.3455,-0.3826,-0.3951,-0.3951,-0.3951,-0.3951,-0.3951,-0.395,-0.4316,-0.5047,-0.5661,-0.6396,-0.7011,0.0,0.0,0.0,0.0,0.0,0.0,0.0,0.0,0.0,0.0,0.3684,0.4133,0.3425,0.3725,0.4028,0.0,0.0,0.0,0.0,0.0,0.0,0.0,0.0,0.0,0.6142,0.6142,0.5952,0.5775,0.5763,0.5654,0.5569,0.5333,0.5214,0.51,0.4916,0.4533,0.0,0.0,0.0,0.0,0.0,0.0,0.0,0.0,0.0,0.0,0.2021,0.192,0.0,0.0,0.0,0.0,0.0,0.0,0.0,0.0,0.2019,0.2326,0.1939,0.0,0.2174,0.2575,0.3076,0.357,0.0,0.4388,0.4726,0.4685,0.0,0.4628,0.4608,0.4677,0.4732,0.4712,0.4708,0.473,0.4796,0.0,0.0,0.5187,0.5882,0.6201,0.5611,0.5144,0.534,0.648,0.5428,0.4675,0.4608,0.4573,0.3895,0.2599,0.1486,0.0991,0.0991,0.0617,-0.0247,-0.1482,-0.1482,-0.1851,-0.2467,-0.2837,-0.3208,-0.3455,-0.3826,-0.3951,-0.3951,-0.3951,-0.3951,-0.395,-0.4438,-0.4803,-0.5049,-0.6276,-0.6766,-0.7011,0.0,0.0,0.0,0.0,0.0,0.0,0.0,0.0,0.0,0.0,0.209,0.2418,0.2116,0.2518,0.0,0.0,0.0,0.0,0.0,0.0,0.0,0.0,0.0,0.5937,0.5839,0.5839,0.5763,0.5507,0.5518,0.5409,0.5386,0.5191,0.5067,0.51,0.461,0.4133,0.3633,0.0,0.0,0.0,0.2241,0.0,0.0,0.0,0.0,0.0,0.1617,0.1617,0.0,0.1617,0.1617,0.1617,0.0,0.0,0.0,0.0,0.1818,0.2019,0.1718,0.1617,0.1717,0.222,0.2826,0.3323,0.3789,0.0,0.0,0.0,0.0,0.4622,0.4579,0.442,0.445,0.4645,0.4452,0.0,0.0,0.0,0.4915,0.4531,0.4846,0.4697,0.3776,0.3384,0.3395,0.4079,0.3224,0.2783,0.2992,0.299,0.2343,0.0965,0.0122,-0.0247,-0.0247,-0.0863,-0.1603,-0.2469,-0.2469,-0.2592,-0.2961,-0.3208,-0.3455,-0.3702,-0.3799,-0.3909,-0.3906,-0.3879,-0.3868,-0.3867,-0.4585,-0.4944,-0.5305,-0.6386,-0.6899,-0.7299,0.0,0.0,0.0,0.0,0.0,0.0,0.0,0.0,0.0,0.0,0.0,0.0,0.0,0.0,0.0,0.0,0.0,0.0,0.0,0.0,0.0,0.0,0.5334,0.5334,0.5334,0.5436,0.548,0.5263,0.5294,0.5284,0.522,0.5065,0.502,0.4851,0.4089,0.3531,0.3031,0.2566,0.2355,0.2223,0.185,0.0,0.0,0.0,0.0,0.0,0.0,0.0,0.0,0.1617,0.1617,0.1617,0.1617,0.0,0.0,0.0,0.0,0.0,0.1617,0.1617,0.1717,0.222,0.2826,0.3314,0.3839,0.0,0.0,0.0,0.0,0.0,0.0,0.4182,0.0,0.0,0.0,0.0,0.4461,0.4197,0.3802,0.341,0.3121,0.2535,0.1531,0.1407,0.1281,0.1281,0.1009,0.0994,0.1228,0.1224,0.0604,-0.0706,-0.0845,-0.0857,-0.0979,-0.1969,-0.2711,-0.2951,-0.2958,-0.3204,-0.3445,-0.3452,-0.3698,-0.3933,-0.3883,-0.3854,-0.3842,-0.379,-0.3886,-0.4004,-0.4589,-0.5174,-0.576,-0.6462,-0.7123,-0.7687,0.0,0.0,0.0,0.0,0.0,0.0,0.0,0.0,0.0,0.0,0.0,0.0,0.0,0.0,0.0,0.0,0.0,0.0,0.0,0.0,0.0,0.2616,0.3621,0.4126,0.3929,0.4834,0.5146,0.4857,0.5012,0.5102,0.5128,0.51,0.4804,0.4168,0.3133,0.2623,0.2522,0.1925,0.1722,0.1718,0.1622,0.0,0.0,0.0,0.0,0.0,0.0,0.0,0.0,0.1617,0.1617,0.1617,0.1617,0.0,0.0,0.0,0.0,0.0,0.1617,0.1617,0.1717,0.222,0.2826,0.3314,0.3839,0.0,0.0,0.0,0.0,0.0,0.0,0.4238,0.4379,0.0,0.0,0.2921,0.0,0.0,0.1528,0.0722,0.1125,0.127,0.0372,-0.0125,-0.0,0.1009,0.0,-0.0605,-0.0483,-0.0477,-0.1064,-0.2354,-0.2483,-0.2608,-0.2846,-0.2922,-0.2942,-0.2904,-0.2943,-0.3186,-0.339,-0.3435,-0.3676,-0.3873,-0.3864,-0.3831,-0.3782,-0.3774,-0.4121,-0.4589,-0.5174,-0.5877,-0.6464,-0.7049,-0.7477,-0.7698,0.0,0.0,0.0,0.0,0.0,0.0,0.0,0.0,0.0,0.0,0.0,0.0,0.0,0.0,0.0,0.0,0.0,0.0,0.0,0.0,0.0101,0.0101,0.1208,0.2316,0.3325,0.3828,0.4354,0.4908,0.4994,0.5059,0.5106,0.4744,0.4035,0.3127,0.2623,0.222,0.1919,0.1718,0.1617,0.1617,0.0,0.0,0.0,0.0,0.0,0.0,0.0,0.0,0.0,0.0,0.1617,0.1617,0.1617,0.0,0.0,0.0,0.0,0.0,0.1617,0.1617,0.1617,0.1919,0.2322,0.2919,0.3393,0.0,0.0,0.0,0.0,0.0,0.0,0.0,0.3127,0.2442,0.0,0.1492,0.1,0.0685,0.0234,-0.048,-0.049,-0.0864,-0.1706,-0.2082,-0.2083,-0.1579,-0.2158,-0.237,-0.2115,-0.2116,-0.2451,-0.2982,-0.3033,-0.3165,-0.3487,-0.345,-0.3358,-0.3334,-0.3477,-0.3477,-0.3573,-0.36,-0.3717,-0.3809,-0.3777,-0.3747,-0.3718,-0.3684,-0.4014,-0.4698,-0.5268,-0.5838,-0.6536,-0.7238,-0.7513,-0.7524,0.0,0.0,0.0,0.0,0.0,0.0,0.0,0.0,0.0,0.0,0.0,0.0,0.0,0.0,0.0,0.0,0.0,0.0,0.0,-0.1617,-0.1617,-0.1617,-0.0807,0.0606,0.2838,0.3143,0.3786,0.5004,0.5024,0.4956,0.4894,0.4285,0.3387,0.2422,0.222,0.2019,0.1617,0.1617,0.1617,0.1617,0.0,0.0,0.0,0.0,0.0,0.0,0.0,0.0,0.0,0.0,0.0,0.0,0.0,0.0,0.0,0.1617,0.1617,0.1615,0.1608,0.1611,0.1613,0.1599,0.2006,0.2519,0.2911,0.0,0.0,0.0,0.0,0.0,0.0,0.2331,0.0,0.1006,0.042,-0.0,-0.0225,-0.0689,-0.1172,-0.1681,-0.2176,-0.2779,-0.348,-0.349,-0.3595,-0.3774,-0.3756,-0.361,-0.3335,-0.336,-0.3338,-0.3253,-0.3332,-0.3472,-0.3657,-0.3819,-0.385,-0.3748,-0.3762,-0.3762,-0.3748,-0.3763,-0.3762,-0.3745,-0.3699,-0.367,-0.3653,-0.3606,-0.4033,-0.4702,-0.526,-0.5817,-0.6621,-0.7167,-0.7415,-0.7372,0.0,0.0,0.0,0.0,0.0,0.0,0.0,0.0,0.0,0.0,0.0,0.0,0.0,0.0,0.0,0.0,0.0,0.0,0.0,-0.1617,-0.1617,-0.1617,-0.1516,-0.0407,0.1755,0.2894,0.3964,0.5098,0.5184,0.4863,0.4365,0.3762,0.3079,0.2422,0.1919,0.1617,0.1617,0.1617,0.1617,0.1617,0.1617,0.0,0.0,0.0,0.0,0.0,0.0,0.0,0.0,0.0,0.0,0.0,0.0,0.0,0.1617,0.1617,0.1617,0.1611,0.1582,0.1595,0.1603,0.1547,0.1967,0.0,0.2367,0.275,0.0,0.3067,0.0,0.0,0.0,0.162,0.089,0.0308,-0.0432,-0.1467,-0.2802,-0.3093,-0.3247,-0.3618,-0.3787,-0.3778,-0.3786,-0.3827,-0.3835,-0.3774,-0.3717,-0.3683,-0.3679,-0.3628,-0.3597,-0.3587,-0.3595,-0.3598,-0.3594,-0.4158,-0.4192,-0.3685,-0.3743,-0.374,-0.3687,-0.3744,-0.3739,-0.3684,-0.368,-0.3646,-0.3594,-0.359,-0.4257,-0.5371,-0.5371,-0.6151,-0.7171,-0.7301,-0.7342,-0.7372,0.0,0.0,0.0,0.0,0.0,0.0,0.0,0.0,0.0,0.0,0.0,0.0,0.0,0.0,0.0,0.0,0.0,0.0,0.0,-0.1617,-0.1617,-0.1617,-0.1617,-0.0916,0.0621,0.1036,0.2205,0.4106,0.4845,0.4687,0.3767,0.3393,0.2743,0.1918,0.1718,0.1617,0.1617,0.1617,0.1617,0.1617,0.1617,0.1617,0.0,0.0,0.0,0.0,0.0,0.0,0.0,0.0,0.1617,0.1617,0.1617,0.1617,0.1617,0.1617,0.1604,0.1586,0.1575,0.1566,0.1555,0.1532,0.164,0.0,0.0,0.198,0.2163,0.2173,0.1679,0.0,0.0,0.0,-0.102,-0.1241,-0.2078,-0.2858,-0.3473,-0.3647,-0.3684,-0.3804,-0.3824,-0.3805,-0.3721,-0.3733,-0.3722,-0.3661,-0.3974,-0.4184,-0.4184,-0.4496,-0.4704,-0.4704,-0.4704,-0.4704,-0.4704,-0.4925,-0.4942,-0.4748,-0.4438,-0.4438,-0.4748,-0.3986,-0.4098,-0.4748,-0.441,-0.4394,-0.4704,-0.4704,-0.526,-0.604,-0.6374,-0.6818,-0.7171,-0.729,-0.7336,-0.7372,0.0,0.0,0.0,0.0,0.0,0.0,0.0,0.0,0.0,0.0,0.0,0.0,0.0,0.0,0.0,0.0,0.0,0.0,-0.1617,-0.1617,-0.1617,-0.1617,-0.1617,-0.1222,-0.0518,-0.0519,0.0843,0.3489,0.4612,0.4534,0.3417,0.3258,0.2726,0.1818,0.1931,0.193,0.1819,0.2032,0.1929,0.1617,0.1818,0.1717,0.0,0.0,0.0,0.0,0.0,0.0,0.0,0.0,0.1617,0.1617,0.1617,0.1617,0.1615,0.1605,0.1588,0.1567,0.1548,0.1534,0.1521,0.0,0.0,0.0,0.1603,0.16,0.1594,0.1625,0.111,0.0399,-0.0693,0.0,0.0,-0.2072,-0.2971,-0.3679,-0.3679,-0.373,-0.3762,-0.3743,-0.3758,-0.3854,-0.3999,-0.4009,-0.3994,-0.415,-0.459,-0.4814,-0.4814,-0.5148,-0.5371,-0.5371,-0.5371,-0.5371,-0.5371,-0.5594,-0.5706,-0.5706,-0.526,-0.5148,-0.5371,-0.4592,-0.4592,-0.5371,-0.4925,-0.5037,-0.5371,-0.5371,-0.5706,-0.6374,-0.6932,-0.7154,-0.7165,-0.7247,-0.7301,-0.7366,0.0,0.0,0.0,0.0,0.0,0.0,0.0,0.0,0.0,0.0,0.0,0.0,0.0,0.0,0.0,0.0,0.0,0.0,-0.1617,-0.1617,-0.1617,-0.1617,-0.1617,-0.163,-0.1661,-0.1662,0.0,0.3597,0.4611,0.4534,0.3417,0.3256,0.2927,0.2424,0.2572,0.2567,0.2425,0.3085,0.2667,0.1617,0.2221,0.212,0.1617,0.0,0.0,0.0,0.0,0.0,0.0,0.0,0.1617,0.1617,0.1617,0.1616,0.1611,0.158,0.1571,0.1558,0.1497,0.1502,0.0,0.0,0.0,0.0,0.1603,0.1617,0.1626,0.1656,0.1615,0.1087,-0.0603,-0.1009,-0.132,-0.2069,-0.3081,-0.3677,-0.3677,-0.3729,-0.3745,-0.3684,-0.373,-0.3951,-0.4494,-0.4548,-0.4788,-0.5377,-0.5371,-0.5371,-0.5371,-0.5371,-0.5371,-0.5371,-0.5369,-0.5369,-0.5371,-0.6038,-0.6262,-0.6262,-0.6262,-0.604,-0.5371,-0.5371,-0.5371,-0.5371,-0.5371,-0.5371,-0.5371,-0.5371,-0.5817,-0.6374,-0.6932,-0.7154,-0.7154,-0.7157,-0.723,-0.735,0.0,0.0,0.0,0.0,0.0,0.0,0.0,0.0,0.0,0.0,0.0,0.0,0.0,0.0,0.0,0.0,0.0,0.0,-0.1617,-0.1617,-0.1617,-0.1617,-0.1617,-0.1621,-0.163,-0.0825,0.0417,0.2207,0.3347,0.3829,0.3862,0.374,0.3555,0.3085,0.3102,0.31,0.3085,0.3308,0.2871,0.2221,0.2321,0.212,0.1617,0.0,0.0,0.0,0.0,0.0,0.0,0.0,0.0,0.0,0.1617,0.1602,0.1583,0.1575,0.1541,0.1504,0.1485,0.1472,0.0,0.1466,0.0,0.0,0.0,0.1111,0.0,0.0,-0.0634,-0.1355,-0.2515,-0.2754,-0.2876,-0.2964,-0.3404,-0.3615,-0.3615,-0.3969,-0.4312,-0.4291,-0.4646,-0.4979,-0.5152,-0.5172,-0.5176,-0.5373,-0.5817,-0.604,-0.604,-0.6485,-0.6707,-0.6707,-0.6526,-0.6523,-0.6707,-0.6746,-0.6816,-0.6816,-0.6816,-0.6746,-0.6596,-0.5817,-0.5817,-0.6596,-0.6262,-0.6262,-0.6707,-0.6707,-0.6821,-0.6932,-0.7154,-0.7154,-0.7165,-0.7249,-0.7201,-0.7143,0.0,0.0,0.0,0.0,0.0,0.0,0.0,0.0,0.0,0.0,0.0,0.0,0.0,0.0,0.0,0.0,0.0,0.0,0.0,-0.1617,-0.1617,-0.1617,-0.1617,-0.1617,-0.1617,-0.0919,-0.0103,0.0921,0.2579,0.3387,0.3328,0.3861,0.4,0.3733,0.3259,0.336,0.3731,0.3445,0.2993,0.2423,0.2643,0.2336,0.1618,0.0,0.0,0.0,0.0,0.0,0.0,0.0,0.0,0.0,0.1617,0.1596,0.1569,0.1557,0.1519,0.1478,0.1099,0.0996,0.0,0.0644,0.0187,-0.0192,-0.0204,0.0,0.0,0.0,-0.1624,-0.2028,-0.3225,-0.3238,-0.3134,-0.3447,-0.3744,-0.3921,-0.3921,-0.4479,-0.4814,-0.4814,-0.5148,-0.5483,-0.5706,-0.5706,-0.5817,-0.6151,-0.6485,-0.6689,-0.6754,-0.713,-0.7334,-0.7233,-0.7211,-0.7211,-0.7231,-0.7161,-0.7124,-0.7234,-0.7124,-0.7161,-0.7122,-0.6404,-0.6445,-0.7152,-0.6774,-0.6756,-0.7084,-0.7035,-0.7016,-0.7016,-0.7016,-0.7016,-0.7024,-0.7097,-0.7035,-0.6961,0.0,0.0,0.0,0.0,0.0,0.0,0.0,0.0,0.0,0.0,0.0,0.0,0.0,0.0,0.0,0.0,0.0,0.0,0.0,-0.1617,-0.1617,-0.1617,-0.1617,-0.1617,-0.1617,-0.1617,-0.1111,-0.0101,0.2152,0.2972,0.2522,0.3597,0.415,0.406,0.3013,0.3109,0.4058,0.3488,0.3027,0.2633,0.319,0.2771,0.1826,0.2371,0.0,0.0,0.0,0.0,0.0,0.0,0.0,0.0,0.1915,0.1691,0.1561,0.1627,0.15,0.1287,0.0631,0.0,0.0,-0.0646,-0.0958,0.0,-0.1159,-0.1189,-0.143,-0.2117,0.0,-0.172,-0.3275,-0.2921,-0.269,-0.3496,-0.4103,-0.448,-0.459,-0.5142,-0.547,-0.547,-0.547,-0.5804,-0.6362,-0.6359,-0.6584,-0.7138,-0.7241,-0.7295,-0.7402,-0.7509,-0.7466,-0.7226,-0.7321,-0.7327,-0.722,-0.7206,-0.7308,-0.7629,-0.7308,-0.72,-0.7206,-0.7017,-0.7024,-0.7116,-0.7013,-0.697,-0.6959,-0.685,-0.6801,-0.6801,-0.6801,-0.6801,-0.6804,-0.6815,-0.6804,-0.6806,0.0,0.0,0.0,0.0,0.0,0.0,0.0,0.0,0.0,0.0,0.0,0.0,0.0,0.0,0.0,0.0,0.0,0.0,0.0,-0.1617,-0.1617,-0.1617,-0.1617,-0.1617,-0.1617,-0.1617,-0.1515,-0.1212,0.0911,0.2328,0.3024,0.3286,0.3445,0.3495,0.2379,0.2481,0.3493,0.3399,0.3469,0.3816,0.3933,0.3619,0.299,0.3207,0.3075,0.0,0.0,0.0,0.0,0.0,0.0,0.0,0.2877,0.2239,0.1718,0.2434,0.1743,0.0902,0.0898,0.0635,0.0,0.0,-0.1396,-0.2101,-0.2764,-0.3273,-0.3445,-0.2533,-0.2651,-0.3108,-0.3565,-0.3446,-0.3552,-0.4231,-0.4359,-0.4702,-0.5148,-0.5645,-0.5927,-0.5927,-0.6364,-0.6694,-0.6803,-0.7018,-0.7233,-0.7342,-0.7469,-0.7508,-0.7587,-0.7615,-0.7602,-0.7542,-0.7467,-0.7464,-0.7542,-0.7434,-0.7382,-0.7489,-0.7382,-0.7382,-0.7386,-0.6995,-0.6855,-0.6877,-0.6853,-0.6842,-0.6839,-0.6815,-0.6801,-0.6801,-0.6801,-0.6801,-0.6815,-0.691,-0.6823,-0.6703,0.0,0.0,0.0,0.0,0.0,0.0,0.0,0.0,0.0,0.0,0.0,0.0,0.0,0.0,0.0,0.0,0.0,0.0,0.0,0.0,-0.1617,-0.1617,-0.1617,-0.1617,-0.1617,-0.1617,-0.1617,-0.1617,0.0,0.1411,0.2421,0.3004,0.3269,0.3195,0.1625,0.1514,0.255,0.2529,0.2807,0.3379,0.3925,0.3816,0.338,0.3615,0.3485,0.323,0.3531,0.0,0.0,0.0,0.0,0.0,0.0,0.0,0.1045,0.1975,0.1377,0.0359,0.0359,0.0,0.0,-0.1148,0.0,-0.2848,-0.3298,-0.3675,-0.382,-0.3354,-0.3611,-0.4096,-0.4319,-0.4069,-0.4058,-0.4753,-0.5054,-0.5245,-0.5571,-0.6072,-0.6468,-0.6468,-0.6682,-0.7003,-0.7107,-0.7214,-0.7321,-0.7538,-0.7581,-0.7617,-0.7654,-0.7716,-0.7691,-0.7564,-0.7651,-0.7651,-0.7558,-0.7486,-0.755,-0.7652,-0.755,-0.7449,-0.7351,-0.7243,-0.7118,-0.7006,-0.695,-0.6821,-0.6711,-0.6651,-0.6627,-0.6627,-0.6627,-0.6627,-0.6635,-0.67,-0.6641,-0.6559,0.0,0.0,0.0,0.0,0.0,0.0,0.0,0.0,0.0,0.0,0.0,0.0,0.0,0.0,0.0,0.0,0.0,0.0,0.0,0.0,0.0,-0.1617,-0.1617,-0.1617,-0.1617,-0.1617,-0.1617,-0.1617,-0.0504,0.0404,0.1318,0.2305,0.266,0.2662,0.0542,0.0325,0.138,0.1356,0.1848,0.2639,0.3399,0.3595,0.3555,0.3814,0.3794,0.3531,0.3932,0.4133,0.4033,0.343,0.0,0.0,0.0,0.0,0.0476,0.1327,0.0738,-0.0179,0.0,0.0,-0.1005,-0.2022,-0.2813,0.0,-0.3369,-0.3504,-0.3728,-0.4244,-0.4298,-0.4566,-0.5112,-0.4731,-0.4601,-0.5208,-0.5692,-0.5955,-0.6059,-0.6469,-0.6771,-0.6771,-0.6771,-0.6876,-0.7188,-0.729,-0.7398,-0.7611,-0.7697,-0.7733,-0.7817,-0.7927,-0.7885,-0.7653,-0.7857,-0.7847,-0.7611,-0.7608,-0.7694,-0.7963,-0.7671,-0.747,-0.7276,-0.7508,-0.7416,-0.7116,-0.6992,-0.6847,-0.6653,-0.6548,-0.6418,-0.6437,-0.6437,-0.6448,-0.6467,-0.6445,-0.645,-0.6464,0.0,0.0,0.0,0.0,0.0,0.0,0.0,0.0,0.0,0.0,0.0,0.0,0.0,0.0,0.0,0.0,0.0,0.0,-0.1617,0.0,0.0,-0.1617,-0.1617,-0.1617,-0.1617,-0.1617,-0.1617,-0.1617,-0.0504,0.0102,0.0,0.0316,0.0319,0.032,-0.0976,-0.0974,0.0106,0.0209,0.1344,0.3201,0.2379,0.31,0.4646,0.383,0.3993,0.4634,0.4634,0.4734,0.4533,0.3527,0.3728,0.0,0.0,0.0,0.1423,0.1398,0.0456,-0.0538,0.0,0.0,-0.2412,0.0,-0.3054,-0.3244,0.0,0.0,-0.4348,0.0,-0.4537,-0.4381,-0.4912,-0.4904,-0.511,-0.5654,-0.5857,-0.6061,-0.659,-0.6607,-0.6643,-0.6643,-0.6852,-0.6961,-0.7061,-0.747,-0.7773,-0.7776,-0.7867,-0.7992,-0.7969,-0.7985,-0.7979,-0.7942,-0.7959,-0.7898,-0.7748,-0.7744,-0.778,-0.7658,-0.7658,-0.7563,-0.7563,-0.7604,-0.7401,-0.7021,-0.6885,-0.6894,-0.6902,-0.6683,-0.6642,-0.6742,-0.6537,-0.6502,-0.6581,-0.6475,-0.6505,-0.6581,0.0,0.0,0.0,0.0,0.0,0.0,0.0,0.0,0.0,0.0,0.0,0.0,0.0,0.0,0.0,-0.1617,-0.1617,-0.1617,-0.1617,-0.1617,-0.1617,-0.1617,-0.1617,-0.1617,-0.1617,-0.1617,-0.1617,-0.1617,-0.1111,0.0,0.0,-0.0951,-0.0642,-0.0108,-0.1307,-0.1516,-0.0957,-0.0313,0.0618,0.1529,0.2242,0.316,0.3977,0.418,0.4463,0.4834,0.4834,0.4431,0.3827,0.3324,0.2719,0.2007,0.1676,0.0,0.0,0.0,-0.0182,0.0,-0.0795,-0.133,-0.1976,0.0,-0.2732,-0.3087,-0.3121,-0.3396,-0.3758,-0.4227,-0.4485,-0.4763,-0.5749,-0.5608,-0.559,-0.6167,-0.6228,-0.6269,-0.6513,-0.6456,-0.6399,-0.6328,-0.658,-0.6921,-0.7018,-0.7488,-0.7733,-0.7932,-0.7895,-0.7913,-0.7913,-0.7834,-0.7794,-0.7794,-0.7887,-0.7948,-0.7879,-0.797,-0.8033,-0.7969,-0.7691,-0.7691,-0.7782,-0.7602,-0.7363,-0.7114,-0.7054,-0.6871,-0.6646,-0.662,-0.6588,-0.655,-0.6412,-0.6469,-0.651,-0.6456,-0.6469,-0.651,0.0,0.0,0.0,0.0,0.0,0.0,0.0,0.0,0.0,0.0,0.0,0.0,0.0,0.0,0.0,0.0,-0.1617,-0.1617,-0.1617,-0.1617,-0.1617,-0.1617,-0.1617,-0.1617,-0.1617,-0.1617,-0.1617,-0.1617,0.0,0.0,-0.1673,-0.1695,-0.1293,0.0,-0.1424,-0.1737,-0.1713,-0.0838,-0.0309,0.0101,0.1716,0.2719,0.3324,0.413,0.4531,0.4834,0.4834,0.413,0.3224,0.3224,0.1913,0.0502,0.1084,0.0193,0.0,0.0,0.0,0.0,0.0,0.0,-0.1557,-0.1847,-0.2422,-0.2929,0.0,0.0,-0.329,-0.3985,-0.4428,-0.5085,-0.6266,-0.6134,-0.5924,-0.6414,-0.6426,-0.6317,-0.6233,-0.6222,-0.6187,-0.6189,-0.6545,-0.6795,-0.7081,-0.7375,-0.7635,-0.7929,-0.7821,-0.7756,-0.7756,-0.7658,-0.76,-0.76,-0.7782,-0.7854,-0.7812,-0.8051,-0.8214,-0.8217,-0.7759,-0.7667,-0.7752,-0.7454,-0.7279,-0.7197,-0.7197,-0.6938,-0.6514,-0.6646,-0.6526,-0.6377,-0.6393,-0.6456,-0.6478,-0.6448,-0.6456,-0.6478,0.0,0.0,0.0,0.0,0.0,0.0,0.0,0.0,0.0,0.0,0.0,0.0,-0.1617,-0.1617,-0.1617,-0.1617,-0.1617,-0.1617,-0.1617,-0.1617,-0.1617,-0.1617,-0.1617,0.0,-0.1617,-0.1617,-0.1617,-0.1617,0.0,0.0,-0.1702,-0.1703,-0.1736,-0.1679,-0.1763,-0.1748,-0.1744,0.0,0.0,0.0,0.0101,0.141,0.3224,0.3224,0.3929,0.4834,0.4834,0.413,0.3224,0.3224,0.2418,0.1307,0.0394,0.0097,-0.019,0.0,0.0,0.0,0.0,-0.1684,0.0,-0.2278,-0.249,0.0,0.0,0.0,-0.3263,-0.4371,-0.4583,-0.4966,-0.5921,-0.6203,-0.6279,-0.6285,-0.6184,-0.6102,-0.6094,-0.6094,-0.6186,-0.6364,-0.6655,-0.6944,-0.713,-0.7426,-0.7621,-0.7621,-0.7614,-0.7611,-0.7611,-0.7604,-0.76,-0.76,-0.7782,-0.7802,-0.7741,-0.7864,-0.7878,-0.7878,-0.7616,-0.7531,-0.7531,-0.7248,-0.7156,-0.7074,-0.7074,-0.7068,-0.6942,-0.6798,-0.6736,-0.6663,-0.649,-0.6507,-0.6594,-0.6478,-0.651,-0.6592,0.0,0.0,0.0,0.0,0.0,0.0,0.0,0.0,0.0,0.0,0.0,0.0,0.0,-0.1617,-0.1617,-0.1617,-0.1617,-0.1617,-0.1617,-0.1617,-0.1617,-0.1617,-0.1617,-0.1617,-0.1617,-0.1617,-0.1617,-0.1617,0.0,-0.1637,-0.1677,-0.1677,-0.1709,-0.1766,-0.1775,-0.1767,-0.1747,-0.1706,0.0,0.0,0.0,0.0,0.0,0.0,0.3828,0.4734,0.0,0.0,0.3022,0.1611,0.0907,0.0401,-0.0681,-0.0958,-0.1039,-0.1352,0.0,0.0,0.0,0.0,0.0,-0.205,-0.2235,-0.243,-0.2571,-0.2715,-0.2942,-0.3323,-0.404,-0.4652,-0.4863,-0.5642,-0.6151,-0.6151,-0.6113,-0.6056,-0.5977,-0.6157,-0.6221,-0.6227,-0.6661,-0.6993,-0.7082,-0.7356,-0.76,-0.76,-0.7509,-0.7543,-0.7632,-0.7447,-0.7396,-0.7761,-0.7851,-0.8001,-0.8298,-0.8147,-0.8204,-0.83,-0.7771,-0.7595,-0.7768,-0.7319,-0.7139,-0.7139,-0.7139,-0.6907,-0.6616,-0.6749,-0.6584,-0.6359,-0.6361,-0.6464,-0.6497,-0.6453,-0.6464,-0.6497,0.0,0.0,0.0,0.0,0.0,0.0,0.0,0.0,0.0,-0.1617,0.0,0.0,0.0,0.0,-0.1617,-0.1617,-0.1617,-0.1617,-0.1617,-0.1617,-0.1617,-0.1617,-0.1617,-0.1617,-0.1617,-0.1607,-0.1607,-0.1617,-0.1607,-0.1622,-0.1662,-0.1662,-0.1688,-0.1735,-0.1755,-0.1759,0.0,0.0,0.0,-0.1555,0.0,0.0,0.1714,0.0,0.0,0.0,0.0,0.0,0.1914,0.0907,0.01,-0.0596,-0.0866,-0.1222,-0.1467,-0.1397,0.0,0.0,-0.1458,0.0,0.0,0.0,0.0,-0.2103,-0.2317,-0.2524,-0.2728,-0.2918,-0.3603,-0.4192,-0.4395,-0.5112,-0.5676,-0.5899,-0.5871,-0.5817,-0.5827,-0.6031,-0.6189,-0.6147,-0.6602,-0.6847,-0.689,-0.7148,-0.7319,-0.737,-0.7282,-0.7331,-0.7469,-0.7375,-0.7499,-0.794,-0.8028,-0.8208,-0.8568,-0.8384,-0.838,-0.8472,-0.7944,-0.7768,-0.7856,-0.7411,-0.7231,-0.7231,-0.7143,-0.6874,-0.6539,-0.6679,-0.6494,-0.6139,-0.6241,-0.6317,-0.6325,-0.6366,-0.638,-0.638,0.0,0.0,0.0,0.0,0.0,0.0,0.0,0.0,-0.1617,-0.1617,0.0,0.0,0.0,0.0,0.0,-0.1617,-0.1617,-0.1617,-0.1617,-0.1617,-0.1617,-0.1617,-0.1617,-0.1617,-0.1617,-0.1588,-0.1587,-0.1617,-0.1587,-0.1603,-0.1661,-0.1661,-0.1676,-0.1703,-0.1703,-0.1719,-0.1745,0.0,-0.1687,-0.1555,0.0,0.0605,0.1514,0.0,0.0,0.0,0.1916,0.0907,0.0,0.121,0.0,0.0,0.0,0.0,0.0,0.0,0.0,0.0,0.0,0.0,0.0,0.0,0.0,0.0,-0.2181,-0.2273,-0.2532,-0.3255,-0.3355,-0.369,-0.4527,-0.4696,-0.4898,-0.5344,-0.5442,-0.5455,-0.5624,-0.5808,-0.6011,-0.6222,-0.6489,-0.6603,-0.6722,-0.6709,-0.677,-0.6922,-0.6936,-0.6997,-0.7132,-0.7415,-0.7768,-0.8197,-0.8201,-0.838,-0.8568,-0.8568,-0.8472,-0.8201,-0.8201,-0.8113,-0.7856,-0.7591,-0.7507,-0.7507,-0.7231,-0.6966,-0.6805,-0.6672,-0.6456,-0.6291,-0.6134,-0.6086,-0.61,-0.6219,-0.6263,-0.6263,0.0,0.0,0.0,0.0,0.0,-0.1617,-0.1617,-0.1617,-0.1617,0.0,0.0,0.0,-0.165,-0.165,-0.1641,-0.1619,-0.1617,-0.1617,-0.1617,-0.1617,-0.1617,-0.1617,-0.1617,-0.1617,-0.1617,-0.1609,-0.1609,-0.1516,-0.1609,-0.1613,-0.1629,-0.1629,-0.1645,-0.1673,-0.1674,-0.1679,-0.1686,-0.1677,0.0,-0.1662,-0.1343,-0.0515,0.0,0.0,0.0,0.0,0.0,0.0706,0.1008,0.0,-0.0598,-0.0487,0.0,0.0,0.0,0.0,0.0,0.0,-0.1266,0.0,0.0,0.0,0.0,0.0,-0.1743,-0.1981,-0.2301,-0.2476,-0.2916,-0.3345,-0.3531,-0.4133,-0.4654,-0.4683,-0.5112,-0.5452,-0.5455,-0.5653,-0.5829,-0.604,-0.6315,-0.6531,-0.6858,-0.6865,-0.6926,-0.7071,-0.7082,-0.7102,-0.7411,-0.7764,-0.8025,-0.8201,-0.8384,-0.8564,-0.8568,-0.8384,-0.8288,-0.8201,-0.8028,-0.7856,-0.7591,-0.7507,-0.7415,-0.7231,-0.7143,-0.7051,-0.6976,-0.6947,-0.6642,-0.6291,-0.6318,-0.6272,-0.6089,-0.6124,-0.6135,-0.6135,0.0,0.0,0.0,-0.1617,-0.1627,-0.1636,-0.1636,-0.1636,-0.1636,0.0,0.0,0.0,-0.1662,-0.1662,-0.165,-0.162,-0.1617,-0.1617,-0.1617,-0.1617,-0.1617,-0.1617,-0.1617,-0.1617,-0.1617,-0.1403,-0.1203,-0.1212,-0.1203,-0.1203,-0.1313,-0.1313,-0.1423,-0.1643,0.0,0.0,0.0,0.0,0.0,0.0,-0.1657,0.0,0.0,-0.0523,-0.0,0.0,0.0,0.0,0.0101,-0.1212,-0.119,0.0,0.0,0.0,0.0,0.0,0.0,0.0,0.0,0.0,0.0,0.0,0.0,0.0,-0.165,-0.1885,-0.2119,-0.2275,-0.2695,-0.3029,-0.3069,-0.357,-0.4062,-0.4316,-0.4726,-0.5057,-0.53,-0.551,-0.5688,-0.5953,-0.6159,-0.6371,-0.6647,-0.6705,-0.68,-0.6946,-0.7014,-0.7169,-0.7503,-0.7768,-0.794,-0.8113,-0.8208,-0.83,-0.83,-0.8116,-0.8028,-0.794,-0.794,-0.7768,-0.7507,-0.7507,-0.7415,-0.7234,-0.7143,-0.7054,-0.6972,-0.6975,-0.6647,-0.6292,-0.6182,-0.6029,-0.5945,-0.5991,-0.5917,-0.573,0.0,0.0,-0.1615,-0.1612,-0.164,-0.1662,-0.1662,-0.1665,-0.1667,0.0,-0.167,-0.1672,-0.1672,-0.1669,-0.1655,-0.1624,-0.1619,-0.1617,-0.1617,-0.1617,-0.1617,-0.1617,-0.1516,-0.1516,-0.1617,-0.1093,-0.0795,-0.0707,-0.0695,-0.0696,-0.0707,-0.0707,-0.101,-0.1516,-0.1516,0.0,0.0,0.0,0.0,-0.162,-0.1654,-0.1144,0.0,0.0,-0.1053,-0.0311,-0.1346,-0.164,-0.1615,-0.1609,-0.157,-0.1515,0.0,0.0,0.0,0.0,-0.1326,0.0,0.0,0.0,0.0,0.0,-0.1335,0.0,-0.1729,-0.1887,-0.1964,-0.2354,-0.2433,-0.2511,-0.2904,-0.3062,-0.3295,-0.4151,-0.4307,-0.454,-0.5165,-0.5342,-0.553,-0.5799,-0.5978,-0.6172,-0.6217,-0.6413,-0.6559,-0.6712,-0.6865,-0.7097,-0.7499,-0.7507,-0.7595,-0.7856,-0.7944,-0.7944,-0.7944,-0.7856,-0.7768,-0.7507,-0.7768,-0.768,-0.7415,-0.7507,-0.7507,-0.7415,-0.7143,-0.6966,-0.6795,-0.6707,-0.6612,-0.6343,-0.5908,-0.5733,-0.5746,-0.5847,-0.5608,-0.5153,0.0,-0.1596,-0.1609,-0.1585,-0.1626,-0.1662,-0.1662,-0.1682,-0.1696,-0.1696,-0.1718,-0.1733,-0.1733,-0.1711,-0.1684,-0.1656,-0.163,-0.1617,-0.1617,-0.1617,-0.1617,-0.1617,-0.1212,-0.1111,-0.1617,-0.151,-0.1006,-0.0202,-0.0101,-0.0101,-0.0202,-0.0202,-0.0404,-0.0909,-0.0909,0.0,0.0,0.0,0.0,-0.1622,-0.1675,-0.1577,-0.1353,-0.1587,-0.1581,-0.1348,-0.1532,-0.1622,-0.1609,-0.156,-0.1536,-0.1515,-0.1455,-0.1414,-0.1384,-0.1356,0.0,0.0,0.0,0.0,0.0,-0.1335,-0.1335,0.0,-0.1415,-0.1572,-0.165,-0.1728,-0.1886,-0.212,-0.2353,-0.2668,-0.2982,-0.3295,-0.3686,-0.4153,-0.4937,-0.5115,-0.5199,-0.5401,-0.5422,-0.5623,-0.5943,-0.6238,-0.6463,-0.661,-0.6927,-0.72,-0.7503,-0.7507,-0.7595,-0.7856,-0.7944,-0.7944,-0.7944,-0.768,-0.7595,-0.7507,-0.7595,-0.7415,-0.7143,-0.7415,-0.7415,-0.7143,-0.6969,-0.6792,-0.6792,-0.6349,-0.6171,-0.6169,-0.6083,-0.5908,-0.5735,-0.576,-0.5405,-0.5041,-0.1575,-0.1596,-0.1612,-0.1596,-0.1643,-0.1683,-0.1683,-0.1708,-0.1727,-0.1727,-0.174,-0.175,-0.175,-0.1723,-0.1694,-0.1665,-0.1635,-0.1516,-0.1212,-0.1212,-0.1314,-0.1617,-0.1314,-0.1111,-0.0808,-0.0808,-0.0505,0.0,0.0,0.0,0.0,0.0,-0.0404,-0.1212,-0.1212,-0.1314,0.0,0.0,-0.1617,-0.1621,-0.1665,0.0,-0.1665,-0.1693,-0.1686,-0.166,-0.1645,-0.163,-0.1607,-0.1547,-0.1526,-0.1515,-0.1455,-0.1425,-0.1403,-0.1361,-0.1337,-0.1315,-0.1269,-0.1335,-0.1335,-0.1335,-0.1335,0.0,0.0,-0.1507,-0.1595,-0.1734,-0.1824,-0.1911,-0.2046,-0.2276,-0.2589,-0.2904,-0.345,-0.3921,-0.4311,-0.4545,-0.4857,-0.5243,-0.5321,-0.5425,-0.5726,-0.6015,-0.6261,-0.656,-0.6883,-0.7143,-0.7323,-0.7323,-0.7323,-0.7496,-0.7496,-0.7496,-0.7496,-0.7411,-0.7323,-0.7323,-0.7323,-0.7231,-0.7139,-0.7231,-0.7146,-0.6966,-0.6884,-0.6707,-0.6438,-0.6171,-0.5997,-0.5908,-0.5908,-0.5822,-0.5733,-0.5733,-0.5282,-0.4654,-0.147,-0.1488,-0.1608,-0.1608,-0.1657,-0.1696,-0.1696,-0.1727,-0.1752,-0.1538,-0.1538,-0.1648,-0.1759,-0.1727,-0.1697,-0.1673,-0.1535,-0.1313,-0.0808,-0.0707,-0.0808,-0.1313,-0.1313,-0.0909,-0.0,0.0,0.0,0.0,0.0,0.0,0.0,0.0,-0.0505,-0.1313,-0.1516,-0.1617,0.0,0.0,0.0,-0.1619,0.0,-0.1654,-0.1656,-0.1685,-0.1678,-0.1654,-0.1654,-0.1634,-0.16,-0.1545,-0.1522,-0.1508,-0.1453,-0.1436,-0.1424,-0.128,-0.1263,-0.1335,-0.1273,-0.1335,-0.1335,-0.1335,-0.1335,-0.1335,0.0,0.0,0.0,-0.1736,-0.1761,-0.1779,-0.1827,-0.1984,-0.222,-0.2594,-0.3149,-0.354,-0.3587,-0.3906,-0.4384,-0.5085,-0.5207,-0.5375,-0.5488,-0.5701,-0.6055,-0.6474,-0.6883,-0.7054,-0.7054,-0.7054,-0.7139,-0.7139,-0.7139,-0.7139,-0.7139,-0.7139,-0.7139,-0.7139,-0.7139,-0.7054,-0.7054,-0.7054,-0.6966,-0.6704,-0.6704,-0.6438,-0.6083,-0.6083,-0.5997,-0.5908,-0.5733,-0.5733,-0.5733,-0.5644,-0.5015,-0.43,-0.0766,-0.1264,-0.1577,-0.1478,-0.1525,-0.1667,-0.1667,-0.1714,-0.1539,-0.1004,-0.1118,-0.1342,-0.179,-0.1739,-0.1703,0.0,-0.1339,-0.101,-0.0808,-0.0404,-0.0101,-0.0202,-0.0202,-0.0101,-0.0,0.0,0.0,0.0,0.0,0.0,0.0,0.0,-0.0101,-0.0202,-0.1212,0.0,0.0,0.0,-0.1617,0.0,-0.1621,-0.1622,-0.1625,-0.1656,-0.1648,-0.1622,-0.1622,-0.1603,-0.1571,-0.1538,-0.1508,-0.148,-0.1446,-0.1436,-0.1424,-0.128,-0.1263,-0.1335,-0.1273,-0.1335,-0.1335,-0.1335,-0.1335,-0.1335,-0.1335,0.0,-0.1341,-0.1337,0.0,-0.1383,-0.1623,0.0,0.0,-0.1978,-0.2237,-0.2472,-0.2827,-0.3096,-0.353,-0.4384,-0.5036,-0.5328,-0.5115,-0.5465,-0.5913,-0.6316,-0.6627,-0.6792,-0.6792,-0.6966,-0.7139,-0.7139,-0.7139,-0.7139,-0.7139,-0.7139,-0.7139,-0.7139,-0.7139,-0.6966,-0.6792,-0.6792,-0.67,-0.6432,-0.6257,-0.6171,-0.6083,-0.5819,-0.6083,-0.6605,-0.5997,-0.5733,-0.5644,-0.5191,-0.4743,-0.421,-0.0285,-0.0484,-0.0785,-0.108,-0.1114,-0.1246,-0.1558,-0.1713,-0.1652,-0.1455,-0.0897,-0.0782,-0.1662,0.0,0.0,0.0,0.0,-0.1314,0.0,-0.0505,0.0,0.0,0.0,0.0,0.0,0.0,0.0,0.0,0.0,0.0,0.0,0.0,0.0,-0.0,-0.0505,0.0,-0.1617,0.0,-0.1111,0.0,-0.1516,-0.1617,-0.1618,-0.1631,-0.1628,-0.1614,-0.1597,-0.1582,-0.1564,-0.1516,-0.1491,-0.1476,-0.1444,-0.1423,-0.1401,-0.136,-0.1335,-0.1312,-0.1269,-0.1335,-0.1335,-0.1335,-0.1335,-0.1335,-0.1335,-0.1271,-0.1279,-0.1261,0.0,0.0,0.0,0.0,0.0,0.0,-0.2058,-0.2372,-0.225,-0.292,-0.3584,-0.4001,-0.4359,-0.4601,-0.4819,-0.5397,-0.5843,-0.6055,-0.6378,-0.6533,-0.6609,-0.6609,-0.6697,-0.6697,-0.6697,-0.6697,-0.6697,-0.6697,-0.6697,-0.6697,-0.6697,-0.6609,-0.6612,-0.6612,-0.6435,-0.6257,-0.6523,-0.6609,-0.6517,-0.6697,-0.6962,-0.7132,-0.67,-0.6257,-0.5899,-0.5544,-0.4743,-0.3853,0.0,0.0,0.0,-0.0494,-0.0607,-0.0826,-0.1453,-0.1707,-0.1642,-0.1334,-0.0559,-0.0334,-0.1207,-0.1408,0.0,0.0,-0.1443,-0.143,0.0,-0.0913,-0.0305,-0.0,0.0,0.0,0.0,0.0,0.0,0.0,0.0,0.0,0.0,0.0,0.0,0.0,0.0,-0.0404,-0.1111,0.0,-0.0707,-0.0808,-0.1415,-0.1617,-0.1617,-0.1415,-0.1511,-0.1601,-0.1579,-0.1561,-0.154,-0.1402,-0.1383,-0.1464,-0.1442,-0.1326,-0.1212,-0.1356,-0.1326,-0.1296,-0.1266,-0.1335,-0.1335,-0.1335,-0.1335,-0.1335,-0.1335,-0.1274,-0.1284,-0.1262,-0.1281,0.0,0.0,0.0,-0.1516,-0.1497,0.0,-0.2131,-0.1871,-0.254,-0.3199,-0.3458,-0.3742,-0.4059,-0.4401,-0.4909,-0.5274,-0.5526,-0.5855,-0.6106,-0.6283,-0.6322,-0.6428,-0.6428,-0.6428,-0.6428,-0.6428,-0.6428,-0.6428,-0.6428,-0.6605,-0.6694,-0.6605,-0.6782,-0.6786,-0.6523,-0.6962,-0.7048,-0.6871,-0.7224,-0.7489,-0.7665,-0.7404,-0.6959,-0.6425,-0.6074,-0.5099,-0.4032,0.0,0.0,0.0,0.0,-0.0,-0.0407,-0.1451,-0.1583,-0.1182,-0.0219,-0.0,0.0,0.0,0.0,0.0,0.0,0.0,-0.1049,-0.152,-0.1541,-0.1132,-0.0,0.0,0.0,0.0,0.0,0.0,0.0,0.0,0.0,0.0,0.0,0.0,0.0,0.0,-0.0,-0.0,-0.0,-0.0303,-0.0808,-0.1415,-0.1617,-0.1516,-0.101,-0.1099,-0.1573,-0.1572,-0.1534,-0.1391,-0.1018,-0.1096,-0.1437,-0.1436,-0.1062,-0.078,-0.1188,-0.1326,-0.1296,-0.1266,-0.1335,-0.1335,-0.1335,-0.1335,-0.1335,-0.1335,-0.1336,-0.1337,-0.1336,-0.1281,-0.1302,-0.1301,-0.1325,-0.1326,-0.1346,-0.1522,0.0,0.0,-0.1782,-0.2202,-0.2747,-0.3374,-0.3803,-0.3895,-0.3984,-0.4146,-0.4634,-0.5078,-0.5462,-0.5895,-0.6186,-0.6428,-0.6428,-0.6428,-0.6428,-0.6428,-0.6428,-0.6428,-0.6428,-0.7136,-0.7312,-0.7139,-0.7845,-0.7933,-0.7489,-0.7489,-0.7312,-0.7051,-0.7139,-0.7492,-0.8113,-0.7848,-0.7669,-0.7401,-0.6605,-0.5808,-0.501,0.0,0.0,0.0,0.0,0.0,-0.0102,-0.0526,-0.0531,-0.0431,0.0,0.0,0.0,0.0,-0.0217,-0.032,0.0,0.0,-0.0307,-0.0506,-0.0508,-0.0407,-0.0,0.0,0.0,0.0,0.0,0.0,0.0,0.0,0.0,0.0,0.0,0.0,0.0,0.0,0.0,0.0,0.0,0.0,0.0,-0.1516,-0.1404,-0.0991,-0.1289,-0.0988,-0.0587,-0.1335,-0.1592,-0.1478,-0.0546,-0.0361,-0.0538,-0.1166,-0.1062,-0.0693,-0.0509,-0.0663,-0.081,-0.087,-0.11,-0.1335,-0.1335,-0.11,-0.0943,-0.1257,-0.1335,-0.1335,-0.1335,-0.1265,-0.1273,-0.1273,-0.1281,-0.1281,-0.1261,-0.1345,-0.1423,0.0,-0.1407,-0.165,-0.2121,-0.2707,-0.316,-0.3314,-0.3605,-0.3838,-0.4227,-0.4318,-0.4459,-0.476,-0.4887,-0.5112,-0.5453,-0.5188,-0.528,-0.5905,-0.5633,-0.5897,-0.6691,-0.6956,-0.7221,-0.7573,-0.7665,-0.7665,-0.7489,-0.7841,-0.7933,-0.7845,-0.8201,-0.8468,-0.8644,-0.8384,-0.8296,-0.8116,-0.7228,-0.6251,-0.5453,0.0,0.0,0.0,0.0,0.0,0.0,0.0,0.0,0.0,0.0,0.0,0.0,0.0,0.0,0.0,0.0,0.0,0.0,0.0,0.0,0.0,0.0,0.0,0.0,0.0,0.0,0.0202,0.0606,0.0202,0.0,0.0,0.0,0.0,0.0,0.0,0.0,0.0,0.0,-0.0402,0.0,-0.1404,-0.1286,-0.0777,-0.135,-0.1154,-0.0575,-0.0934,-0.129,-0.137,-0.0361,0.0,-0.009,-0.0718,-0.0708,-0.0433,-0.0085,-0.0166,-0.0405,-0.0395,-0.0628,-0.0943,-0.1257,-0.11,-0.0864,-0.0864,-0.0943,-0.1021,-0.1021,-0.1178,-0.1335,-0.1335,-0.1335,-0.1335,-0.1335,-0.1335,-0.1257,0.0,-0.1178,-0.1335,-0.1415,-0.199,-0.2423,-0.2783,-0.2913,-0.3229,-0.3685,-0.3666,-0.3714,-0.4106,-0.4144,-0.4378,-0.4741,-0.4476,-0.4567,-0.5196,-0.5191,-0.563,-0.6425,-0.7044,-0.7485,-0.7925,-0.8105,-0.8109,-0.8021,-0.8288,-0.838,-0.838,-0.8648,-0.8736,-0.8644,-0.8472,-0.8384,-0.83,-0.7852,-0.7228,-0.6517,0.0,0.0,0.0,0.0,0.0,0.0,0.0,0.0,0.0,0.0,0.0,0.0,0.0,0.0,0.0,0.0,0.0,0.0,0.0,0.0,0.0,0.0,0.0,0.0,0.0,0.0101,0.0606,0.1617,0.0606,0.0101,0.0,0.0,0.0,0.0,0.0,0.0,0.0,0.0,0.0,-0.0101,-0.1087,-0.1163,-0.076,-0.1212,-0.148,-0.1386,-0.037,-0.0547,-0.1166,-0.0269,0.0,0.0,0.0,0.0,0.0,0.0,0.0,0.0,0.0,0.0,-0.0236,-0.1021,-0.1257,-0.1021,-0.0236,-0.0314,-0.055,-0.055,-0.0943,-0.1258,-0.1259,-0.1259,-0.1259,-0.1259,-0.1258,-0.11,-0.0629,-0.1021,-0.11,-0.0629,-0.1257,-0.1806,-0.2118,-0.1963,-0.22,-0.2984,-0.2962,-0.3273,-0.3936,-0.4024,-0.4112,-0.4295,-0.421,-0.421,-0.43,-0.5186,-0.5719,-0.5808,-0.7401,-0.8201,-0.8288,-0.8995,-0.9174,-0.8911,-0.8911,-0.874,-0.8568,-0.8568,-0.8472,-0.8201,-0.8201,-0.8025,-0.7944,-0.8388,-0.8384,-0.8025,0.0,0.0,0.0,0.0,0.0,0.0,0.0,0.0,0.0,0.0,0.0,0.0,0.0,0.0,0.0,0.0,0.0,0.0,0.0,0.0,0.0,0.0,0.0,0.0,0.0,0.0808,0.1314,0.1617,0.1314,0.101,0.0606,0.0498,0.0493,0.0491,0.0193,0.0,0.0,0.0,0.0,-0.0,-0.0289,-0.0285,-0.028,-0.1113,-0.1375,-0.1266,-0.0362,-0.018,-0.0359,-0.009,0.0,0.0,0.0,0.0,0.0,0.0,0.0,0.0,0.0,0.0,-0.0079,-0.0314,-0.0314,-0.0471,-0.0864,-0.055,-0.0157,-0.0157,-0.0236,-0.0553,-0.1207,-0.1049,-0.0807,-0.0807,-0.1034,-0.11,-0.0629,-0.1021,-0.11,-0.0629,-0.0786,-0.1021,-0.1492,-0.165,-0.1963,-0.2433,-0.2289,-0.2419,-0.302,-0.2703,-0.2932,-0.376,-0.3229,-0.3406,-0.43,-0.4921,-0.563,-0.6514,-0.7665,-0.8464,-0.8995,-0.8999,-0.8999,-0.8911,-0.874,-0.8652,-0.8568,-0.8384,-0.8288,-0.8197,-0.8025,-0.7848,-0.7669,-0.794,-0.8028,-0.794,0.0403,0.0,0.0,0.0,0.0,0.0,0.0,0.0,0.0,0.0,0.0,0.0,0.0,0.0,0.0,0.0,0.0,0.0202,0.0707,0.0707,0.0606,0.0404,0.0303,0.0303,0.0303,0.0909,0.1415,0.1617,0.1603,0.1397,0.1197,0.1076,0.1062,0.0957,0.0757,0.0376,0.0,0.0,0.0,0.0,0.0,0.0,0.0,-0.0548,-0.0998,-0.1256,-0.0356,0.0,0.0,0.0,0.0,0.0,0.0,0.0,0.0,0.0,0.0,0.0,0.0,0.0,0.0,0.0,0.0,-0.0157,-0.0628,-0.0314,0.0,0.0,0.0,-0.0237,-0.1134,-0.1058,-0.0816,-0.0412,-0.0572,-0.0646,-0.0399,-0.0559,-0.0716,-0.0629,-0.0628,-0.0786,-0.1257,-0.1415,-0.1649,-0.2042,-0.1886,-0.1925,-0.2265,-0.2102,-0.2317,-0.2956,-0.2959,-0.3315,-0.4028,-0.5097,-0.5985,-0.6602,-0.7669,-0.8376,-0.8819,-0.8644,-0.8556,-0.8556,-0.8384,-0.83,-0.8296,-0.8116,-0.7937,-0.7669,-0.7408,-0.7139,-0.7048,-0.7231,-0.7323,-0.7411,0.0808,0.0,0.0,0.0,0.0,0.0,0.0,0.0,0.0,0.0,0.0,0.0,0.0,0.0,0.0,0.0,0.0,0.0404,0.1314,0.1516,0.1415,0.0909,0.0909,0.0909,0.0909,0.0909,0.111,0.1611,0.1584,0.1569,0.1565,0.1534,0.1506,0.1388,0.0,0.0,0.0,0.0,0.0,0.0,0.0,0.0,0.0,0.0,-0.0538,-0.1072,-0.0263,0.0,0.0,0.0,0.0,0.0,0.0,0.0,0.0,0.0,0.0,0.0,0.0,0.0,0.0,0.0,0.0,0.0,0.0,0.0,0.0,0.0,0.0,-0.0238,-0.0977,-0.1148,-0.0909,-0.0084,0.0,0.0,0.0,0.0,-0.0161,-0.0475,-0.0472,0.0,-0.0943,-0.11,-0.1335,-0.1807,-0.1572,-0.1522,-0.167,-0.1847,-0.1972,-0.2142,-0.3041,-0.358,-0.3578,-0.545,-0.6428,-0.6432,-0.758,-0.8201,-0.8201,-0.8201,-0.8201,-0.8113,-0.794,-0.7852,-0.7852,-0.7768,-0.7496,-0.6962,-0.652,-0.6343,-0.6343,-0.6428,-0.6523,-0.6707,0.0923,0.0,0.0,0.0,0.0,0.0,0.0,0.0,0.0,0.0,0.0,0.0,0.0,0.0,0.0,0.0,0.0,0.0101,0.0303,0.1111,0.1516,0.1415,0.1415,0.1415,0.1415,0.1415,0.1504,0.1579,0.1574,0.1558,0.1534,0.1503,0.1486,0.148,0.0,0.0,0.0,0.0,0.0,0.0,0.0,0.0,0.0,0.0,-0.0089,-0.0263,-0.0087,0.0,0.0,0.0,0.0,0.0,0.0,0.0,0.0,0.0,0.0,0.0,0.0,0.0,0.0,0.0,0.0,0.0,0.0,0.0,0.0,0.0,0.0,-0.008,-0.0166,-0.0255,-0.0172,-0.0,0.0,0.0,0.0,0.0,-0.0,-0.0081,0.0159,0.0471,0.0786,0.0157,-0.055,-0.1335,-0.1021,-0.1033,-0.1632,-0.1582,-0.1704,-0.2096,-0.2842,-0.3403,-0.3578,-0.545,-0.6428,-0.6428,-0.7496,-0.794,-0.794,-0.794,-0.794,-0.794,-0.7669,-0.7577,-0.758,-0.7146,-0.6789,-0.6517,-0.6432,-0.6343,-0.6171,-0.6343,-0.6169,-0.5911,0.4343,0.0,0.0,0.0,0.044,0.0437,0.0438,0.0428,0.0317,0.0,0.0,0.0,0.0,0.0,0.0,0.0,0.0505,0.0606,0.0,0.101,0.1617,0.1617,0.1617,0.1617,0.1617,0.1617,0.1602,0.1571,0.1555,0.1532,0.1502,0.1471,0.1457,0.1457,0.0,0.1076,0.0,0.0179,0.0,0.0,0.0,0.0,0.0,0.0,0.0,0.0,0.0,0.0,0.0,0.0,0.0,0.0,0.0,0.0,0.0,0.0,0.0,0.0,0.0,0.0,0.0,0.0,0.0,0.0,0.0,0.0,0.0,0.0,0.0,0.0,0.0,0.0,0.0177,0.0619,0.0701,0.0607,0.0429,0.0336,0.033,0.0326,0.0478,0.0786,0.1257,0.0943,0.0314,-0.055,-0.055,-0.0555,-0.0812,-0.1151,-0.143,-0.1738,-0.263,-0.3452,-0.4208,-0.563,-0.6428,-0.6428,-0.7054,-0.7323,-0.7323,-0.7323,-0.7323,-0.7323,-0.7051,-0.6959,-0.6871,-0.6612,-0.6349,-0.6257,-0.6083,-0.5994,-0.5908,-0.5994,-0.5908,-0.5733,0.7732,0.6453,0.0,0.2899,0.2212,0.1865,0.1866,0.1825,0.1375,0.032,0.0213,0.0211,0.0208,0.0205,0.0203,0.0202,0.0909,0.1111,0.0404,0.1111,0.1617,0.1617,0.1617,0.1617,0.1617,0.1611,0.1592,0.1562,0.1531,0.1498,0.1461,0.1443,0.1436,0.1436,0.1436,0.1256,0.1076,0.0538,0.0269,0.0179,0.0,0.0,0.0,0.0,0.0,0.0,0.0,0.0,0.0,0.0,0.0,0.0,0.0,0.0,0.0,0.0,0.0,0.0,0.0,0.0,0.0,0.0,0.0,0.0079,0.0236,0.0314,0.0314,0.0314,0.0158,0.016,0.0167,0.0174,0.0357,0.1165,0.1345,0.1247,0.0873,0.0769,0.0752,0.0734,0.0717,0.0864,0.1257,0.1335,0.1021,0.0314,-0.0079,-0.0238,-0.0,-0.0649,-0.1161,-0.1554,-0.2335,-0.3413,-0.4837,-0.5899,-0.6428,-0.6428,-0.6612,-0.6704,-0.6704,-0.6704,-0.6704,-0.6704,-0.6435,-0.6343,-0.6257,-0.6083,-0.5994,-0.5997,-0.5822,-0.5733,-0.5733,-0.5733,-0.5733,-0.5733,0.8383,0.0,0.7943,0.8091,0.6381,0.5023,0.5023,0.501,0.396,0.1071,0.0736,0.0728,0.0727,0.0726,0.072,0.0708,0.0808,0.101,0.1415,0.1516,0.1617,0.1617,0.1617,0.1617,0.1617,0.159,0.1561,0.153,0.15,0.1455,0.1399,0.1424,0.1436,0.1436,0.1436,0.1346,0.1345,0.1256,0.0987,0.0628,0.0179,0.0,0.0,0.0,0.0,0.0,0.0,0.0,0.0,0.0,0.0,0.0,0.0,0.0,0.0,0.0,0.0,0.0,0.0,0.0,0.0,0.0,0.0,0.0236,0.1021,0.1178,0.1178,0.1178,0.0879,0.0572,0.0587,0.0602,0.0703,0.0715,0.1166,0.1336,0.1223,0.1196,0.1253,0.1224,0.1196,0.1257,0.1257,0.1335,0.1257,0.1178,0.0393,-0.0,-0.0,-0.008,-0.074,-0.2191,-0.2401,-0.3235,-0.5008,-0.5897,-0.6428,-0.6428,-0.6432,-0.6432,-0.6432,-0.6432,-0.6432,-0.6432,-0.6257,-0.5997,-0.5733,-0.5733,-0.5733,-0.5733,-0.5733,-0.5733,-0.5733,-0.5733,-0.5733,-0.5733,0.8719,0.8686,0.8504,0.7955,0.7051,0.6128,0.5296,0.5243,0.4732,0.3463,0.21,0.1253,0.1328,0.1327,0.1324,0.1314,0.1313,0.1415,0.1617,0.1617,0.1617,0.1617,0.1617,0.1617,0.1617,0.2204,0.2261,0.1526,0.2173,0.212,0.1417,0.1429,0.1445,0.1462,0.1443,0.1445,0.1461,0.1443,0.1256,0.1075,0.0885,0.0441,0.0,0.0,0.0,0.0,0.0,0.0,0.0,0.0,0.0,0.0,0.0,0.0,0.0,0.0,0.0,0.0,0.0,0.0,0.0,0.0,0.0393,0.0864,0.1257,0.11,0.0943,0.1257,0.1121,0.1066,0.1091,0.1115,0.1139,0.1162,0.1256,0.1425,0.1395,0.1366,0.1337,0.1306,0.1276,0.1335,0.1335,0.1335,0.1414,0.1648,0.1099,0.0629,0.0393,0.0396,-0.0324,-0.1682,-0.2541,-0.3631,-0.4835,-0.5638,-0.5994,-0.5994,-0.5994,-0.5994,-0.5994,-0.5994,-0.5994,-0.5994,-0.5908,-0.5822,-0.5733,-0.5733,-0.5733,-0.5733,-0.5733,-0.5733,-0.5733,-0.5733,-0.5733,-0.5733,0.891,0.894,0.8605,0.782,0.7598,0.7346,0.6379,0.6165,0.6162,0.5947,0.4295,0.2914,0.2623,0.2518,0.2521,0.2521,0.2521,0.2422,0.212,0.212,0.1919,0.1617,0.1617,0.1613,0.1604,0.2288,0.244,0.189,0.2359,0.2318,0.1793,0.1535,0.1465,0.1493,0.1462,0.146,0.1478,0.1448,0.143,0.1421,0.1313,0.0954,0.0343,0.0248,0.0163,0.0162,0.0158,0.0157,0.0157,0.0157,0.0157,0.0236,0.0314,0.0236,0.0,0.0157,0.0079,0.0,0.0157,0.0314,0.0314,0.0236,0.0628,0.11,0.1257,0.1021,0.0864,0.1257,0.1281,0.1312,0.1258,0.1365,0.1393,0.1429,0.1436,0.1425,0.1394,0.1366,0.1337,0.1468,0.1514,0.1492,0.1649,0.1649,0.1805,0.2038,0.1726,0.1256,0.0864,0.0786,0.0161,-0.1261,-0.2438,-0.3603,-0.4563,-0.5193,-0.5552,-0.5733,-0.5733,-0.5733,-0.5733,-0.5733,-0.5733,-0.5733,-0.5733,-0.5644,-0.5463,-0.5463,-0.5374,-0.5285,-0.5285,-0.5285,-0.5285,-0.5285,-0.5285,-0.5285,0.891,0.894,0.8937,0.8826,0.8826,0.8826,0.8826,0.8696,0.8652,0.8499,0.7413,0.6154,0.4935,0.4724,0.4724,0.4724,0.4724,0.4323,0.3224,0.3224,0.2722,0.1617,0.1617,0.1603,0.1573,0.1543,0.1984,0.2867,0.1943,0.2014,0.2868,0.1923,0.1496,0.1524,0.1493,0.148,0.1478,0.1448,0.1418,0.1391,0.1393,0.1375,0.1261,0.0739,0.057,0.0568,0.0554,0.0628,0.0628,0.0628,0.0628,0.0707,0.11,0.0707,0.0079,0.0471,0.0314,0.0079,0.0471,0.0943,0.1178,0.0707,0.0628,0.0707,0.1178,0.1257,0.1257,0.1335,0.1281,0.1312,0.1258,0.1264,0.1282,0.1426,0.1436,0.1425,0.1394,0.1366,0.1419,0.1874,0.1909,0.2038,0.2431,0.251,0.251,0.2511,0.2117,0.1726,0.1335,0.1257,0.0562,-0.0923,-0.1934,-0.2917,-0.3927,-0.4648,-0.528,-0.5733,-0.5733,-0.5733,-0.5733,-0.5733,-0.5733,-0.5733,-0.5733,-0.546,-0.501,-0.501,-0.4743,-0.43,-0.43,-0.43,-0.43,-0.43,-0.43,-0.43,0.891,0.894,0.894,0.894,0.894,0.8869,0.8659,0.8584,0.8465,0.8214,0.7834,0.7384,0.7036,0.5627,0.4824,0.4824,0.4824,0.4624,0.4323,0.4323,0.3802,0.2771,0.267,0.2353,0.1541,0.2197,0.2734,0.2866,0.3324,0.3289,0.2868,0.2617,0.2106,0.1494,0.1463,0.1461,0.1477,0.1426,0.1399,0.1386,0.1348,0.1326,0.1313,0.1123,0.1112,0.1111,0.1103,0.11,0.11,0.11,0.11,0.11,0.1257,0.11,0.0864,0.0629,0.0707,0.0864,0.0629,0.0943,0.1257,0.11,0.11,0.11,0.1257,0.1273,0.1288,0.1288,0.1312,0.1342,0.1371,0.1377,0.1389,0.1429,0.1436,0.1418,0.1368,0.1354,0.1328,0.1436,0.1499,0.157,0.1649,0.1649,0.1884,0.2431,0.2117,0.1882,0.1726,0.1435,0.0897,-0.0084,-0.0682,-0.1654,-0.2952,-0.3487,-0.4115,-0.4746,-0.4946,-0.5085,-0.509,-0.5159,-0.5013,-0.4748,-0.4748,-0.4656,-0.4565,-0.4565,-0.4438,-0.4212,-0.4275,-0.4261,-0.4214,-0.4275,-0.43,-0.43,0.892,0.894,0.892,0.8862,0.8852,0.8767,0.852,0.8435,0.8336,0.8251,0.8175,0.8137,0.8137,0.6927,0.6126,0.6029,0.6029,0.5827,0.5427,0.549,0.4946,0.3819,0.3788,0.3263,0.2075,0.2635,0.3167,0.3468,0.4503,0.4508,0.3482,0.3118,0.2597,0.2077,0.1654,0.1463,0.1477,0.1416,0.1378,0.1354,0.1317,0.1296,0.1284,0.1264,0.1335,0.1335,0.1335,0.1335,0.1335,0.1335,0.1335,0.1335,0.1335,0.1335,0.1257,0.0943,0.11,0.1257,0.0943,0.11,0.1335,0.1335,0.1335,0.1339,0.1271,0.1298,0.132,0.132,0.1343,0.1369,0.1386,0.139,0.14,0.143,0.1436,0.1418,0.1542,0.1524,0.1666,0.2022,0.2078,0.2147,0.2227,0.2147,0.2297,0.2904,0.2431,0.2196,0.2353,0.1847,0.1233,0.0672,0.0172,-0.0614,-0.17,-0.2505,-0.3221,-0.3937,-0.4418,-0.4635,-0.4604,-0.4698,-0.4565,-0.43,-0.43,-0.419,-0.3984,-0.3984,-0.3847,-0.3608,-0.3689,-0.3689,-0.3655,-0.3735,-0.3765,-0.3765,0.894,0.894,0.8893,0.875,0.8716,0.8659,0.8506,0.8364,0.8367,0.866,0.8524,0.8432,0.8432,0.8432,0.8333,0.8038,0.8028,0.7528,0.6534,0.6606,0.6139,0.4785,0.4784,0.4317,0.3043,0.3043,0.3468,0.4467,0.5375,0.5388,0.4352,0.3507,0.3063,0.2818,0.1873,0.1474,0.147,0.141,0.1352,0.1302,0.13,0.1282,0.1335,0.1335,0.1335,0.1335,0.1335,0.1335,0.1335,0.1335,0.1335,0.1335,0.1335,0.1335,0.1335,0.1335,0.1335,0.1335,0.1335,0.1335,0.1335,0.1335,0.1335,0.1265,0.1296,0.1326,0.1264,0.1266,0.1373,0.1393,0.148,0.148,0.149,0.1517,0.1522,0.1598,0.1996,0.2039,0.2348,0.3185,0.3285,0.3403,0.3736,0.3485,0.3371,0.369,0.2979,0.2668,0.3062,0.2407,0.1807,0.1347,0.0775,0.0176,-0.0358,-0.1609,-0.2588,-0.3117,-0.3927,-0.4244,-0.4167,-0.4257,-0.421,-0.421,-0.421,-0.3899,-0.3481,-0.3476,-0.3177,-0.2704,-0.276,-0.2786,-0.2797,-0.2853,-0.2877,-0.288,0.894,0.894,0.8927,0.8893,0.8788,0.8659,0.8506,0.8364,0.833,0.8507,0.8457,0.8432,0.8726,0.8726,0.8726,0.8627,0.8126,0.7815,0.763,0.7594,0.7162,0.6108,0.6087,0.56,0.4501,0.4499,0.4846,0.5711,0.6459,0.5953,0.4353,0.4083,0.3187,0.1739,0.1517,0.1412,0.1408,0.1348,0.1315,0.1301,0.1277,0.1264,0.1335,0.1335,0.1335,0.1335,0.1335,0.1335,0.1335,0.1335,0.1335,0.1335,0.1335,0.1335,0.1335,0.1335,0.1335,0.1335,0.1335,0.1335,0.1335,0.1335,0.1335,0.1265,0.1296,0.1326,0.1354,0.1376,0.1403,0.1514,0.1959,0.2048,0.213,0.237,0.2365,0.242,0.2492,0.2467,0.254,0.2704,0.2728,0.271,0.2921,0.2798,0.2841,0.3219,0.3061,0.2982,0.3062,0.2967,0.2543,0.1849,0.1746,0.1249,0.0179,-0.0176,-0.1127,-0.2556,-0.3296,-0.3664,-0.3561,-0.3728,-0.3587,-0.323,-0.323,-0.3132,-0.3027,-0.2976,-0.286,-0.2763,-0.2778,-0.2812,-0.2854,-0.2689,-0.263,-0.2661,0.894,0.9051,0.9137,0.9064,0.9033,0.898,0.882,0.8663,0.8632,0.8744,0.8733,0.8832,0.8928,0.9031,0.8928,0.8825,0.8448,0.8311,0.8231,0.8292,0.7927,0.7297,0.7333,0.6764,0.5708,0.5617,0.5797,0.6068,0.6874,0.6697,0.5534,0.5181,0.4133,0.272,0.2288,0.1823,0.1386,0.1327,0.1294,0.128,0.1264,0.1335,0.1335,0.1335,0.1335,0.1335,0.1335,0.1335,0.1335,0.1335,0.1335,0.1335,0.1335,0.1335,0.1335,0.1335,0.1335,0.1335,0.1335,0.1267,0.1278,0.1278,0.1278,0.1366,0.1644,0.1682,0.1719,0.2018,0.2045,0.2152,0.2511,0.2511,0.2583,0.2706,0.2695,0.274,0.2861,0.2843,0.2924,0.3169,0.3134,0.3124,0.3165,0.2972,0.3015,0.3376,0.3217,0.3219,0.3374,0.3449,0.3104,0.2318,0.2312,0.2091,0.1394,0.0689,-0.0423,-0.1736,-0.2623,-0.298,-0.3037,-0.3019,-0.2876,-0.2703,-0.2703,-0.2616,-0.2525,-0.2582,-0.2485,-0.2403,-0.2451,-0.2473,-0.2484,-0.2441,-0.2371,-0.237,0.8937,0.9268,0.9446,0.9305,0.9345,0.928,0.9138,0.8948,0.8928,0.9133,0.9236,0.9236,0.9236,0.9232,0.913,0.8924,0.8924,0.8856,0.8601,0.8596,0.8517,0.82,0.8209,0.7753,0.6773,0.6681,0.6596,0.6422,0.7143,0.7323,0.6962,0.6163,0.523,0.4213,0.3265,0.2339,0.1638,0.1408,0.1285,0.1335,0.1335,0.1414,0.1414,0.1492,0.1492,0.1492,0.1492,0.1414,0.1414,0.1492,0.1414,0.1414,0.1492,0.1492,0.1492,0.1492,0.1492,0.1492,0.1335,0.1359,0.1385,0.1471,0.1555,0.1644,0.2093,0.2225,0.2357,0.2756,0.2861,0.2957,0.2957,0.3038,0.3012,0.2865,0.2848,0.2969,0.325,0.331,0.3476,0.3816,0.3887,0.3885,0.3897,0.3561,0.3523,0.3769,0.3452,0.3374,0.3763,0.3836,0.3557,0.2829,0.2738,0.2687,0.2594,0.117,0.0083,-0.0812,-0.174,-0.2244,-0.2547,-0.2422,-0.2358,-0.2367,-0.2358,-0.2186,-0.1849,-0.2011,-0.1928,-0.1772,-0.1752,-0.1768,-0.1851,-0.1735,-0.165,-0.1538,0.9268,0.9596,0.9699,0.9673,0.9529,0.9321,0.9294,0.9022,0.8928,0.9133,0.9236,0.9335,0.9529,0.9529,0.9529,0.9529,0.943,0.9257,0.8601,0.8586,0.8493,0.8371,0.848,0.8476,0.8296,0.8021,0.7933,0.7845,0.7852,0.7316,0.6245,0.6071,0.5455,0.4214,0.3243,0.2748,0.2528,0.1645,0.1285,0.1335,0.1648,0.1803,0.1883,0.2198,0.2276,0.2276,0.2276,0.2118,0.1883,0.2198,0.2118,0.1883,0.2198,0.2276,0.2276,0.2276,0.2276,0.2198,0.1492,0.1597,0.196,0.2415,0.2595,0.2598,0.2606,0.265,0.2694,0.2706,0.2834,0.3047,0.3406,0.3446,0.3466,0.3733,0.3743,0.3741,0.3718,0.3704,0.3732,0.3889,0.3832,0.3814,0.3891,0.3828,0.3779,0.3765,0.3763,0.3684,0.3763,0.3777,0.3785,0.3628,0.3371,0.2997,0.2616,0.1796,0.0896,0.0,-0.0652,-0.1414,-0.215,-0.2117,-0.2124,-0.2159,-0.212,-0.1681,-0.1007,-0.0987,-0.0991,-0.0925,-0.0084,-0.0175,-0.0732,0.0276,0.0652,0.0658,0.9379,0.9706,1.0036,1.0036,0.9865,0.9746,0.9746,0.945,0.9229,0.943,0.943,0.943,0.9628,0.9628,0.9628,0.9628,0.9539,0.9308,0.8851,0.8877,0.8702,0.8516,0.8609,0.8568,0.8568,0.8476,0.838,0.8201,0.8113,0.776,0.7048,0.7048,0.6511,0.5435,0.4541,0.3703,0.2981,0.2061,0.1536,0.128,0.15,0.1726,0.1882,0.2117,0.2275,0.2511,0.2511,0.2353,0.2275,0.2431,0.2353,0.2275,0.2431,0.2511,0.2511,0.2511,0.2533,0.248,0.2081,0.2197,0.2491,0.2685,0.28,0.2824,0.3082,0.3219,0.3268,0.3534,0.365,0.3762,0.3942,0.3912,0.4019,0.4139,0.4163,0.4082,0.4095,0.4153,0.4169,0.4137,0.4025,0.3938,0.3983,0.3868,0.3763,0.3763,0.3763,0.3763,0.3763,0.3763,0.3763,0.3763,0.3683,0.3465,0.327,0.2471,0.1844,0.1297,0.0649,0.0,-0.0511,-0.0417,-0.0334,-0.034,-0.0333,-0.0084,0.0427,0.0338,0.0341,0.0435,0.088,0.0804,0.0545,0.1103,0.1291,0.138,0.9599,1.0006,1.0307,1.0307,1.0233,1.0099,1.0099,0.9831,0.9628,0.9628,0.9628,0.9628,0.9628,0.9628,0.9628,0.9628,0.9458,0.9283,0.9108,0.9056,0.8893,0.858,0.8568,0.8568,0.8568,0.8568,0.8476,0.8292,0.8292,0.8204,0.794,0.794,0.7492,0.6678,0.5874,0.4865,0.3626,0.2744,0.2123,0.1624,0.1666,0.1884,0.2196,0.2273,0.251,0.2824,0.2824,0.2746,0.2668,0.2746,0.2746,0.2668,0.2746,0.2835,0.2847,0.2847,0.2907,0.2973,0.2808,0.2833,0.2952,0.3066,0.3111,0.323,0.3564,0.3708,0.3848,0.4273,0.4374,0.4389,0.4476,0.4459,0.4391,0.4393,0.4345,0.4351,0.4411,0.4384,0.4384,0.4384,0.4231,0.4155,0.4155,0.3999,0.3919,0.3919,0.3919,0.3919,0.3843,0.3843,0.3843,0.3763,0.3763,0.3763,0.3763,0.3137,0.2617,0.235,0.1784,0.1317,0.1013,0.1163,0.1251,0.1275,0.1242,0.1422,0.1819,0.1628,0.1643,0.1769,0.1996,0.1906,0.1797,0.2037,0.2119,0.2255,1.0257,1.0349,1.0349,1.0349,1.0148,0.9904,0.9904,0.9746,0.9628,0.9628,0.9628,0.9628,0.9628,0.9628,0.9628,0.9628,0.9458,0.9283,0.9108,0.8934,0.8759,0.8576,0.8568,0.8568,0.8568,0.8568,0.8568,0.8568,0.8568,0.8472,0.8201,0.8201,0.8025,0.7764,0.6763,0.5897,0.5094,0.4053,0.3227,0.2514,0.2853,0.2982,0.3061,0.3528,0.3684,0.3684,0.3684,0.3452,0.3141,0.353,0.3452,0.3141,0.353,0.374,0.3808,0.3808,0.393,0.398,0.3545,0.341,0.3479,0.4062,0.4194,0.418,0.4189,0.4238,0.4275,0.4454,0.4597,0.4748,0.4921,0.4934,0.4837,0.472,0.462,0.4515,0.4399,0.4384,0.4384,0.4384,0.4384,0.4384,0.4384,0.4384,0.4384,0.4384,0.4384,0.4307,0.4079,0.4079,0.3999,0.3841,0.3763,0.3763,0.3763,0.3763,0.3329,0.2594,0.2513,0.2157,0.1469,0.1554,0.1658,0.16,0.1536,0.1953,0.2767,0.2571,0.2561,0.2794,0.371,0.3587,0.2978,0.4113,0.4385,0.4252,1.0257,1.0337,1.0436,1.0436,1.0132,0.9884,0.9884,0.9738,0.9628,0.9628,0.9628,0.9628,0.9628,0.9628,0.9583,0.947,0.9295,0.912,0.8938,0.8763,0.8633,0.8568,0.8568,0.8568,0.8568,0.8568,0.8568,0.8568,0.8568,0.8564,0.8472,0.8472,0.8384,0.83,0.7489,0.6747,0.6156,0.4761,0.392,0.3304,0.2869,0.2904,0.3141,0.3295,0.353,0.3763,0.3763,0.3686,0.3538,0.3748,0.373,0.354,0.383,0.3832,0.3838,0.395,0.4074,0.4287,0.4206,0.4098,0.3963,0.4374,0.4391,0.4485,0.4685,0.4718,0.4732,0.4784,0.4807,0.4924,0.501,0.4927,0.4827,0.489,0.4779,0.4751,0.4794,0.4779,0.4779,0.4779,0.4698,0.4621,0.4621,0.4462,0.4384,0.4384,0.4384,0.4384,0.4309,0.4309,0.4261,0.4323,0.4325,0.4166,0.3848,0.3903,0.3812,0.3556,0.3556,0.344,0.3271,0.323,0.3247,0.3306,0.3214,0.3413,0.3782,0.3671,0.3673,0.384,0.4176,0.4201,0.3945,0.447,0.4579,0.4518,1.0464,1.0401,1.0351,1.0351,1.0046,0.9803,0.9803,0.9701,0.9628,0.9628,0.9628,0.9628,0.9628,0.9628,0.9575,0.9449,0.923,0.9043,0.8917,0.8694,0.8568,0.8568,0.8568,0.8568,0.8568,0.8568,0.8568,0.8568,0.8568,0.8568,0.8568,0.8568,0.8568,0.8568,0.8028,0.7464,0.6873,0.578,0.4836,0.4049,0.3423,0.3215,0.3295,0.3295,0.353,0.3763,0.3763,0.3781,0.3812,0.3844,0.3834,0.3812,0.3846,0.3834,0.383,0.3957,0.4153,0.4423,0.4484,0.4521,0.4437,0.4637,0.4622,0.4617,0.4858,0.4937,0.4913,0.5,0.5027,0.5039,0.5092,0.5058,0.4986,0.5092,0.5002,0.4908,0.4956,0.5018,0.5018,0.5018,0.4859,0.4779,0.4779,0.4698,0.4621,0.4621,0.4621,0.4557,0.4589,0.4513,0.4484,0.4589,0.4707,0.4561,0.4231,0.4185,0.4166,0.4257,0.426,0.4218,0.4297,0.4269,0.4304,0.4379,0.4293,0.4357,0.4512,0.4483,0.4487,0.4572,0.4697,0.4691,0.4769,0.4866,0.4862,0.4801,1.066,1.0408,1.016,1.016,0.9864,0.9628,0.9628,0.9628,0.9628,0.9628,0.9628,0.9628,0.9628,0.9628,0.9624,0.9624,0.9299,0.9096,0.9092,0.8763,0.8568,0.8568,0.8568,0.8568,0.8568,0.8568,0.8568,0.8568,0.8568,0.8568,0.8568,0.8568,0.8568,0.8568,0.8568,0.8115,0.7168,0.7097,0.6194,0.4849,0.4744,0.4311,0.3841,0.3763,0.3763,0.3763,0.3763,0.3822,0.3885,0.3795,0.3826,0.3883,0.3793,0.3826,0.3899,0.3901,0.4193,0.4468,0.428,0.4536,0.4884,0.4982,0.4932,0.4774,0.4774,0.478,0.4787,0.4957,0.5124,0.5251,0.539,0.5466,0.5469,0.5224,0.5184,0.5146,0.5031,0.5018,0.5018,0.5018,0.5018,0.5018,0.5018,0.5018,0.5018,0.5018,0.5018,0.4991,0.4945,0.4708,0.4676,0.4701,0.4808,0.4863,0.4865,0.4587,0.4415,0.4513,0.4346,0.4218,0.4302,0.4393,0.4485,0.4565,0.4475,0.4538,0.4694,0.4795,0.4862,0.5052,0.5349,0.5425,0.5439,0.5451,0.5356,0.5172,1.0526,1.0322,1.0123,0.9989,0.9778,0.9628,0.9628,0.9628,0.9628,0.9628,0.9628,0.9628,0.9628,0.9628,0.9527,0.9279,0.9157,0.8991,0.8743,0.8625,0.8568,0.8568,0.8568,0.8568,0.8568,0.8568,0.8568,0.8568,0.8568,0.8568,0.8568,0.8568,0.8568,0.8568,0.8568,0.8448,0.8123,0.7595,0.6927,0.6365,0.5339,0.4688,0.4387,0.3997,0.3921,0.3999,0.3999,0.4019,0.406,0.4326,0.429,0.4049,0.4325,0.4357,0.4396,0.447,0.4649,0.4824,0.491,0.5094,0.5181,0.5044,0.5027,0.5083,0.517,0.5228,0.5202,0.5288,0.5315,0.5328,0.5377,0.5328,0.5271,0.5197,0.5121,0.5056,0.5021,0.5018,0.5018,0.5018,0.5018,0.5018,0.5018,0.5018,0.5018,0.5018,0.5018,0.5067,0.5103,0.5025,0.5117,0.5235,0.5274,0.5331,0.5502,0.5022,0.4844,0.4875,0.4789,0.4805,0.4835,0.4938,0.4963,0.4931,0.5044,0.5128,0.5086,0.5216,0.5207,0.5244,0.5446,0.5425,0.5351,0.5527,0.5508,0.5384,1.044,1.0286,1.0103,0.9916,0.9742,0.9628,0.9628,0.9628,0.9628,0.9628,0.9628,0.9628,0.9628,0.9563,0.9433,0.9218,0.9072,0.896,0.8844,0.874,0.8597,0.8666,0.8605,0.8568,0.8568,0.8568,0.8568,0.8568,0.8568,0.8568,0.8568,0.8568,0.8568,0.8568,0.8568,0.8528,0.845,0.799,0.7465,0.6923,0.6018,0.5272,0.4698,0.4387,0.4231,0.4079,0.4155,0.4518,0.4844,0.4692,0.4475,0.4297,0.4475,0.4588,0.4629,0.457,0.4755,0.4943,0.4989,0.5186,0.5347,0.5094,0.5099,0.5131,0.5298,0.5262,0.523,0.523,0.5303,0.5341,0.5246,0.5246,0.5227,0.5135,0.5061,0.5018,0.5018,0.5018,0.5018,0.5018,0.5018,0.5018,0.5018,0.5018,0.5018,0.5018,0.5018,0.5089,0.5249,0.5257,0.5371,0.5616,0.5621,0.5659,0.5733,0.546,0.528,0.5191,0.501,0.501,0.5013,0.5077,0.5094,0.5079,0.521,0.5315,0.5391,0.5583,0.558,0.5588,0.5754,0.5711,0.5628,0.5759,0.5769,0.5699,1.0379,1.0262,1.0079,0.9892,0.9734,0.9628,0.9628,0.9628,0.9628,0.9628,0.9628,0.962,0.9604,0.955,0.9436,0.9403,0.9087,0.8999,0.9358,0.9016,0.8738,0.8882,0.875,0.8668,0.8568,0.8568,0.8568,0.8568,0.8568,0.8568,0.8568,0.8568,0.8568,0.8568,0.8656,0.8558,0.8398,0.8398,0.7859,0.6984,0.6893,0.608,0.4867,0.501,0.4696,0.4235,0.4474,0.5231,0.5967,0.5135,0.4804,0.4809,0.4696,0.4651,0.4634,0.4533,0.4791,0.5056,0.4862,0.5025,0.529,0.5083,0.5102,0.517,0.517,0.5091,0.5018,0.5018,0.5186,0.5273,0.5056,0.5192,0.5268,0.5053,0.5018,0.5018,0.5018,0.5018,0.5018,0.5018,0.5018,0.5018,0.5018,0.5018,0.5018,0.5018,0.5026,0.5132,0.5358,0.5379,0.5494,0.5727,0.5733,0.5733,0.5733,0.5733,0.5644,0.546,0.5191,0.5099,0.5099,0.5109,0.5072,0.5156,0.5175,0.5287,0.5557,0.5856,0.5942,0.5927,0.6133,0.6162,0.6056,0.6078,0.6078,0.6051,1.0241,1.0071,0.9888,0.9713,0.9652,0.9628,0.9628,0.9628,0.9628,0.9628,0.992,1.016,1.0018,0.9953,0.9802,0.9505,0.9276,0.9389,0.9781,0.9925,0.9696,0.9239,0.9335,0.9148,0.8568,0.8568,0.8568,0.8568,0.8568,0.8568,0.8568,0.8568,0.8568,0.8656,0.9003,0.9152,0.9109,0.9109,0.8884,0.8401,0.7435,0.6796,0.6245,0.5352,0.5007,0.5101,0.5665,0.5905,0.6028,0.6665,0.6695,0.6538,0.6479,0.5951,0.5297,0.527,0.525,0.5154,0.5197,0.5195,0.5102,0.514,0.5102,0.5053,0.5053,0.5034,0.5018,0.5018,0.5059,0.5078,0.5026,0.5059,0.5075,0.5026,0.5018,0.5018,0.5018,0.5018,0.5018,0.5018,0.5018,0.5018,0.5018,0.5018,0.5018,0.5018,0.5099,0.5214,0.536,0.5461,0.5578,0.573,0.5733,0.5733,0.5733,0.5733,0.5644,0.5644,0.5552,0.5552,0.5555,0.5642,0.5647,0.5599,0.5781,0.5834,0.5802,0.5992,0.5922,0.5767,0.5947,0.5912,0.5833,0.6018,0.6026,0.5926,1.0067,0.9949,0.9831,0.9657,0.9628,0.9628,0.9628,0.9628,0.9628,0.9628,1.0117,1.0338,1.0154,1.0229,1.0283,1.0051,0.9749,0.9777,1.0294,1.0226,1.0018,0.9753,0.9757,0.9575,0.9038,0.9218,0.9174,0.8911,0.9174,0.9262,0.9262,0.8999,0.8911,0.8915,0.9174,0.9262,0.934,0.942,0.9347,0.9054,0.8286,0.7701,0.7211,0.6655,0.6437,0.6424,0.6745,0.6867,0.7092,0.8062,0.8101,0.7696,0.7612,0.6939,0.6205,0.6074,0.5699,0.5336,0.523,0.5151,0.5099,0.5105,0.5061,0.5018,0.5018,0.5059,0.5097,0.5097,0.5143,0.5167,0.5108,0.5097,0.508,0.5026,0.5018,0.5018,0.5018,0.5018,0.5018,0.5018,0.5018,0.5018,0.5018,0.5018,0.504,0.5094,0.5151,0.5265,0.5445,0.5515,0.5521,0.573,0.5784,0.5787,0.5733,0.5787,0.5787,0.5733,0.5733,0.5733,0.5735,0.5795,0.579,0.5741,0.5863,0.5912,0.5909,0.5972,0.5893,0.5744,0.5858,0.5833,0.5754,0.5934,0.5994,0.5996,0.9916,0.986,0.9795,0.9652,0.9628,0.9628,0.9628,0.9628,0.9628,0.9628,1.0087,1.0387,1.0196,1.0431,1.0595,1.0579,1.0294,1.0309,1.0778,1.044,1.026,1.0348,1.0186,0.9976,0.9571,0.9948,0.9864,0.9262,0.9781,1.0038,0.9951,0.9607,0.9437,0.9432,0.9519,0.9519,0.9506,0.9648,0.9623,0.9437,0.9119,0.8604,0.7983,0.8097,0.7867,0.7592,0.7741,0.8104,0.8661,0.9456,0.9252,0.8632,0.8559,0.7946,0.7243,0.6976,0.6485,0.5902,0.5639,0.5618,0.5669,0.5308,0.5294,0.5305,0.5129,0.5118,0.5186,0.5186,0.535,0.5391,0.5286,0.525,0.5206,0.511,0.5093,0.5015,0.5015,0.5015,0.5023,0.5045,0.5064,0.5069,0.5048,0.5064,0.5116,0.5211,0.5238,0.5339,0.5454,0.5502,0.5657,0.576,0.5874,0.588,0.5763,0.5855,0.5855,0.5763,0.5763,0.5752,0.5733,0.5754,0.5752,0.5733,0.5733,0.5787,0.5874,0.5874,0.5806,0.5711,0.5806,0.5798,0.5749,0.5885,0.6024,0.6168,0.9888,0.9766,0.9657,0.9632,0.9628,0.9628,0.9628,0.9628,0.9628,0.9628,1.0268,1.0659,1.045,1.0527,1.0614,1.0641,1.0549,1.0809,1.1545,1.1473,1.1311,1.0895,1.0865,1.0598,0.9906,1.0309,1.012,0.9262,0.9781,1.0038,1.0038,0.9951,0.9864,0.9951,1.0294,1.0463,1.0448,1.0239,1.0213,1.007,0.9341,0.8927,0.8802,0.8304,0.8097,0.8086,0.888,0.9844,1.0872,1.0836,1.0324,0.9721,0.9698,0.9009,0.8325,0.8273,0.81,0.797,0.7659,0.7698,0.7516,0.6474,0.6374,0.6352,0.5592,0.5339,0.5186,0.5186,0.5364,0.5453,0.5436,0.5504,0.5503,0.5485,0.5401,0.5243,0.5243,0.509,0.5053,0.5151,0.5257,0.5281,0.5173,0.526,0.5328,0.5344,0.5442,0.543,0.5462,0.5744,0.5863,0.588,0.5996,0.6002,0.5882,0.5896,0.5896,0.588,0.588,0.5828,0.5735,0.5836,0.5825,0.5733,0.5733,0.5741,0.5757,0.5757,0.5684,0.5491,0.5505,0.5654,0.576,0.598,0.62,0.6363,1.1534,1.1437,1.1277,1.0988,1.0988,1.0792,1.0507,1.0511,1.0511,1.0511,1.0922,1.1189,1.0959,1.1003,1.0992,1.0992,1.0992,1.1126,1.1499,1.1505,1.1417,1.1154,1.1154,1.0927,1.0381,1.0733,1.0646,1.0033,1.0472,1.0738,1.0738,1.0467,1.0381,1.0381,1.0549,1.0636,1.0621,1.0657,1.0648,1.0611,0.9997,0.981,0.9812,0.9511,0.9418,0.9548,0.9908,1.0522,1.1133,1.102,1.0889,1.0646,1.0646,1.0033,0.9309,0.937,0.9095,0.8618,0.8569,0.8565,0.8516,0.7927,0.7857,0.773,0.6845,0.6569,0.644,0.5794,0.5621,0.5621,0.5785,0.5698,0.5637,0.5637,0.5559,0.5503,0.5653,0.5448,0.5347,0.5401,0.5502,0.549,0.5361,0.5444,0.5499,0.5567,0.5621,0.5708,0.5841,0.5882,0.5934,0.6002,0.6124,0.613,0.6005,0.6072,0.6072,0.6005,0.6075,0.6045,0.5928,0.5912,0.5912,0.5926,0.5858,0.5869,0.5926,0.5855,0.5719,0.547,0.5539,0.5725,0.5858,0.61,0.6252,0.6336]}]]